<?xml version="1.0" encoding="UTF-8" standalone="no" ?>
<gpx xmlns="http://www.topografix.com/GPX/1/1" xmlns:xsi="http://www.w3.org/2001/XMLSchema-instance" xsi:schemaLocation="http://www.topografix.com/GPX/1/1 http://www.topografix.com/GPX/1/1/gpx.xsd" version="1.1" creator="VisuGPX - https://www.visugpx.com">
  <metadata>
    <name>VTT hurigny 2018</name>
    <desc><![CDATA[Parcours VTT Hurigny 42 kms dénivelé 1200mètres]]></desc>
  </metadata>
  <trk>
    <name><![CDATA[20180912223202-KsC4m]]></name>
    <trkseg>
      <trkpt lat="46.34982" lon="4.79477">
        <ele>306.5</ele>
      </trkpt>
      <trkpt lat="46.34982" lon="4.79485">
        <ele>308</ele>
        <time>2018-09-09T06:03:45.000Z</time>
      </trkpt>
      <trkpt lat="46.34996" lon="4.79504">
        <ele>308.60000610352</ele>
        <time>2018-09-09T06:03:54.000Z</time>
      </trkpt>
      <trkpt lat="46.35009" lon="4.79523">
        <ele>309</ele>
        <time>2018-09-09T06:04:01.000Z</time>
      </trkpt>
      <trkpt lat="46.35022" lon="4.79545">
        <ele>309.39999389648</ele>
        <time>2018-09-09T06:04:08.000Z</time>
      </trkpt>
      <trkpt lat="46.35034" lon="4.79567">
        <ele>310</ele>
        <time>2018-09-09T06:04:16.000Z</time>
      </trkpt>
      <trkpt lat="46.3504" lon="4.79572">
        <ele>310.20001220703</ele>
        <time>2018-09-09T06:04:20.000Z</time>
      </trkpt>
      <trkpt lat="46.35049" lon="4.79596">
        <ele>310.39999389648</ele>
        <time>2018-09-09T06:04:27.000Z</time>
      </trkpt>
      <trkpt lat="46.35069" lon="4.79605">
        <ele>311</ele>
        <time>2018-09-09T06:04:32.000Z</time>
      </trkpt>
      <trkpt lat="46.35073" lon="4.79606">
        <ele>311.20001220703</ele>
        <time>2018-09-09T06:04:33.000Z</time>
      </trkpt>
      <trkpt lat="46.35096" lon="4.7961">
        <ele>311.39999389648</ele>
        <time>2018-09-09T06:04:38.000Z</time>
      </trkpt>
      <trkpt lat="46.35114" lon="4.79613">
        <ele>311.60000610352</ele>
        <time>2018-09-09T06:04:42.000Z</time>
      </trkpt>
      <trkpt lat="46.35135" lon="4.79617">
        <ele>311.79998779297</ele>
        <time>2018-09-09T06:04:47.000Z</time>
      </trkpt>
      <trkpt lat="46.35155" lon="4.79624">
        <ele>312.20001220703</ele>
        <time>2018-09-09T06:04:52.000Z</time>
      </trkpt>
      <trkpt lat="46.35175" lon="4.7963">
        <ele>312.79998779297</ele>
        <time>2018-09-09T06:04:59.000Z</time>
      </trkpt>
      <trkpt lat="46.35194" lon="4.79637">
        <ele>313.39999389648</ele>
        <time>2018-09-09T06:05:05.000Z</time>
      </trkpt>
      <trkpt lat="46.35207" lon="4.79655">
        <ele>314.20001220703</ele>
        <time>2018-09-09T06:05:12.000Z</time>
      </trkpt>
      <trkpt lat="46.35204" lon="4.79682">
        <ele>314.60000610352</ele>
        <time>2018-09-09T06:05:18.000Z</time>
      </trkpt>
      <trkpt lat="46.35198" lon="4.79712">
        <ele>314</ele>
        <time>2018-09-09T06:05:24.000Z</time>
      </trkpt>
      <trkpt lat="46.35202" lon="4.79742">
        <ele>313.79998779297</ele>
        <time>2018-09-09T06:05:30.000Z</time>
      </trkpt>
      <trkpt lat="46.35217" lon="4.79756">
        <ele>314.60000610352</ele>
        <time>2018-09-09T06:05:36.000Z</time>
      </trkpt>
      <trkpt lat="46.35236" lon="4.79758">
        <ele>315.20001220703</ele>
        <time>2018-09-09T06:05:42.000Z</time>
      </trkpt>
      <trkpt lat="46.35254" lon="4.79761">
        <ele>314.39999389648</ele>
        <time>2018-09-09T06:05:48.000Z</time>
      </trkpt>
      <trkpt lat="46.35272" lon="4.79765">
        <ele>313.79998779297</ele>
        <time>2018-09-09T06:05:54.000Z</time>
      </trkpt>
      <trkpt lat="46.35281" lon="4.79771">
        <ele>313.39999389648</ele>
        <time>2018-09-09T06:05:58.000Z</time>
      </trkpt>
      <trkpt lat="46.35285" lon="4.79798">
        <ele>312.60000610352</ele>
        <time>2018-09-09T06:06:05.000Z</time>
      </trkpt>
      <trkpt lat="46.35285" lon="4.79828">
        <ele>311.20001220703</ele>
        <time>2018-09-09T06:06:11.000Z</time>
      </trkpt>
      <trkpt lat="46.35287" lon="4.7986">
        <ele>309</ele>
        <time>2018-09-09T06:06:15.000Z</time>
      </trkpt>
      <trkpt lat="46.35289" lon="4.79887">
        <ele>307</ele>
        <time>2018-09-09T06:06:18.000Z</time>
      </trkpt>
      <trkpt lat="46.3529" lon="4.79917">
        <ele>305.39999389648</ele>
        <time>2018-09-09T06:06:21.000Z</time>
      </trkpt>
      <trkpt lat="46.35292" lon="4.79948">
        <ele>303.20001220703</ele>
        <time>2018-09-09T06:06:24.000Z</time>
      </trkpt>
      <trkpt lat="46.35293" lon="4.79983">
        <ele>301.39999389648</ele>
        <time>2018-09-09T06:06:27.000Z</time>
      </trkpt>
      <trkpt lat="46.35295" lon="4.80022">
        <ele>299.39999389648</ele>
        <time>2018-09-09T06:06:30.000Z</time>
      </trkpt>
      <trkpt lat="46.35296" lon="4.80048">
        <ele>298.20001220703</ele>
        <time>2018-09-09T06:06:32.000Z</time>
      </trkpt>
      <trkpt lat="46.35299" lon="4.80085">
        <ele>297.79998779297</ele>
        <time>2018-09-09T06:06:35.000Z</time>
      </trkpt>
      <trkpt lat="46.353" lon="4.80111">
        <ele>297.60000610352</ele>
        <time>2018-09-09T06:06:38.000Z</time>
      </trkpt>
      <trkpt lat="46.35303" lon="4.80122">
        <ele>297.60000610352</ele>
        <time>2018-09-09T06:06:40.000Z</time>
      </trkpt>
      <trkpt lat="46.35306" lon="4.80125">
        <ele>298.20001220703</ele>
        <time>2018-09-09T06:06:41.000Z</time>
      </trkpt>
      <trkpt lat="46.35322" lon="4.80125">
        <ele>298.60000610352</ele>
        <time>2018-09-09T06:06:45.000Z</time>
      </trkpt>
      <trkpt lat="46.3534" lon="4.80122">
        <ele>298.60000610352</ele>
        <time>2018-09-09T06:06:50.000Z</time>
      </trkpt>
      <trkpt lat="46.35359" lon="4.80119">
        <ele>299.20001220703</ele>
        <time>2018-09-09T06:06:56.000Z</time>
      </trkpt>
      <trkpt lat="46.35379" lon="4.80118">
        <ele>299.60000610352</ele>
        <time>2018-09-09T06:07:02.000Z</time>
      </trkpt>
      <trkpt lat="46.35399" lon="4.80117">
        <ele>300</ele>
        <time>2018-09-09T06:07:08.000Z</time>
      </trkpt>
      <trkpt lat="46.35419" lon="4.80117">
        <ele>300.79998779297</ele>
        <time>2018-09-09T06:07:14.000Z</time>
      </trkpt>
      <trkpt lat="46.35438" lon="4.80117">
        <ele>301.39999389648</ele>
        <time>2018-09-09T06:07:20.000Z</time>
      </trkpt>
      <trkpt lat="46.35458" lon="4.80117">
        <ele>302.20001220703</ele>
        <time>2018-09-09T06:07:27.000Z</time>
      </trkpt>
      <trkpt lat="46.35468" lon="4.80119">
        <ele>302.39999389648</ele>
        <time>2018-09-09T06:07:31.000Z</time>
      </trkpt>
      <trkpt lat="46.35481" lon="4.80139">
        <ele>304.60000610352</ele>
        <time>2018-09-09T06:07:38.000Z</time>
      </trkpt>
      <trkpt lat="46.35495" lon="4.8016">
        <ele>306.79998779297</ele>
        <time>2018-09-09T06:07:47.000Z</time>
      </trkpt>
      <trkpt lat="46.35504" lon="4.80186">
        <ele>309.39999389648</ele>
        <time>2018-09-09T06:07:55.000Z</time>
      </trkpt>
      <trkpt lat="46.35512" lon="4.80211">
        <ele>311.79998779297</ele>
        <time>2018-09-09T06:08:02.000Z</time>
      </trkpt>
      <trkpt lat="46.35514" lon="4.80211">
        <ele>311.79998779297</ele>
        <time>2018-09-09T06:08:03.000Z</time>
      </trkpt>
      <trkpt lat="46.35525" lon="4.8021">
        <ele>311.79998779297</ele>
        <time>2018-09-09T06:08:08.000Z</time>
      </trkpt>
      <trkpt lat="46.35543" lon="4.80215">
        <ele>312.39999389648</ele>
        <time>2018-09-09T06:08:15.000Z</time>
      </trkpt>
      <trkpt lat="46.35557" lon="4.80232">
        <ele>313.60000610352</ele>
        <time>2018-09-09T06:08:22.000Z</time>
      </trkpt>
      <trkpt lat="46.35573" lon="4.80251">
        <ele>314.39999389648</ele>
        <time>2018-09-09T06:08:29.000Z</time>
      </trkpt>
      <trkpt lat="46.35579" lon="4.80262">
        <ele>314.79998779297</ele>
        <time>2018-09-09T06:08:31.000Z</time>
      </trkpt>
      <trkpt lat="46.35589" lon="4.80278">
        <ele>315.39999389648</ele>
        <time>2018-09-09T06:08:35.000Z</time>
      </trkpt>
      <trkpt lat="46.356" lon="4.80295">
        <ele>315.39999389648</ele>
        <time>2018-09-09T06:08:39.000Z</time>
      </trkpt>
      <trkpt lat="46.35612" lon="4.80316">
        <ele>314.20001220703</ele>
        <time>2018-09-09T06:08:44.000Z</time>
      </trkpt>
      <trkpt lat="46.35629" lon="4.80342">
        <ele>312.79998779297</ele>
        <time>2018-09-09T06:08:49.000Z</time>
      </trkpt>
      <trkpt lat="46.35641" lon="4.80365">
        <ele>311.60000610352</ele>
        <time>2018-09-09T06:08:52.000Z</time>
      </trkpt>
      <trkpt lat="46.35649" lon="4.80391">
        <ele>311.20001220703</ele>
        <time>2018-09-09T06:08:57.000Z</time>
      </trkpt>
      <trkpt lat="46.35651" lon="4.80419">
        <ele>311.20001220703</ele>
        <time>2018-09-09T06:09:01.000Z</time>
      </trkpt>
      <trkpt lat="46.35656" lon="4.80445">
        <ele>311.20001220703</ele>
        <time>2018-09-09T06:09:04.000Z</time>
      </trkpt>
      <trkpt lat="46.35663" lon="4.8047">
        <ele>311</ele>
        <time>2018-09-09T06:09:07.000Z</time>
      </trkpt>
      <trkpt lat="46.35673" lon="4.80495">
        <ele>310.60000610352</ele>
        <time>2018-09-09T06:09:10.000Z</time>
      </trkpt>
      <trkpt lat="46.35681" lon="4.80521">
        <ele>310.39999389648</ele>
        <time>2018-09-09T06:09:13.000Z</time>
      </trkpt>
      <trkpt lat="46.35688" lon="4.80552">
        <ele>309.60000610352</ele>
        <time>2018-09-09T06:09:16.000Z</time>
      </trkpt>
      <trkpt lat="46.3571" lon="4.80567">
        <ele>308.3</ele>
      </trkpt>
      <trkpt lat="46.35743" lon="4.80592">
        <ele>303.8</ele>
      </trkpt>
      <trkpt lat="46.35775" lon="4.80632">
        <ele>297.1</ele>
      </trkpt>
      <trkpt lat="46.35816" lon="4.80688">
        <ele>291.9</ele>
      </trkpt>
      <trkpt lat="46.35891" lon="4.80773">
        <ele>282.1</ele>
      </trkpt>
      <trkpt lat="46.35902" lon="4.80792">
        <ele>281.9</ele>
      </trkpt>
      <trkpt lat="46.35905" lon="4.80813">
        <ele>281.7</ele>
      </trkpt>
      <trkpt lat="46.35909" lon="4.80853">
        <ele>281</ele>
      </trkpt>
      <trkpt lat="46.35917" lon="4.80886">
        <ele>278.8</ele>
      </trkpt>
      <trkpt lat="46.35937" lon="4.80913">
        <ele>278.6</ele>
      </trkpt>
      <trkpt lat="46.35961" lon="4.80919">
        <ele>277.4</ele>
      </trkpt>
      <trkpt lat="46.35999" lon="4.80963">
        <ele>276.8</ele>
      </trkpt>
      <trkpt lat="46.36004" lon="4.81001">
        <ele>276.1</ele>
      </trkpt>
      <trkpt lat="46.36001" lon="4.81054">
        <ele>277.9</ele>
      </trkpt>
      <trkpt lat="46.36055" lon="4.8113">
        <ele>282.7</ele>
      </trkpt>
      <trkpt lat="46.36088" lon="4.81107">
        <ele>281</ele>
      </trkpt>
      <trkpt lat="46.36125" lon="4.81122">
        <ele>282.4</ele>
      </trkpt>
      <trkpt lat="46.36149" lon="4.81068">
        <ele>279.5</ele>
      </trkpt>
      <trkpt lat="46.3618" lon="4.81049">
        <ele>281.1</ele>
      </trkpt>
      <trkpt lat="46.36223" lon="4.81036">
        <ele>281.4</ele>
      </trkpt>
      <trkpt lat="46.36313" lon="4.81077">
        <ele>281.1</ele>
      </trkpt>
      <trkpt lat="46.36341" lon="4.81122">
        <ele>279.7</ele>
      </trkpt>
      <trkpt lat="46.36411" lon="4.81156">
        <ele>278.7</ele>
      </trkpt>
      <trkpt lat="46.36508" lon="4.81229">
        <ele>272.3</ele>
      </trkpt>
      <trkpt lat="46.36553" lon="4.81302">
        <ele>271.5</ele>
      </trkpt>
      <trkpt lat="46.36563" lon="4.81315">
        <ele>271.4</ele>
      </trkpt>
      <trkpt lat="46.36577" lon="4.81343">
        <ele>271.1</ele>
      </trkpt>
      <trkpt lat="46.3658" lon="4.81371">
        <ele>271</ele>
      </trkpt>
      <trkpt lat="46.36548" lon="4.81394">
        <ele>271.2</ele>
      </trkpt>
      <trkpt lat="46.3656" lon="4.81465">
        <ele>272.3</ele>
      </trkpt>
      <trkpt lat="46.36522" lon="4.81517">
        <ele>276</ele>
      </trkpt>
      <trkpt lat="46.36476" lon="4.81592">
        <ele>284.8</ele>
      </trkpt>
      <trkpt lat="46.36471" lon="4.81682">
        <ele>289.1</ele>
      </trkpt>
      <trkpt lat="46.36467" lon="4.81714">
        <ele>289.6</ele>
      </trkpt>
      <trkpt lat="46.36467" lon="4.81742">
        <ele>289.8</ele>
      </trkpt>
      <trkpt lat="46.3643" lon="4.81776">
        <ele>291.3</ele>
      </trkpt>
      <trkpt lat="46.36393" lon="4.81828">
        <ele>292.9</ele>
      </trkpt>
      <trkpt lat="46.36349" lon="4.81933">
        <ele>289.4</ele>
      </trkpt>
      <trkpt lat="46.36295" lon="4.82038">
        <ele>285.3</ele>
      </trkpt>
      <trkpt lat="46.36183" lon="4.82253">
        <ele>280.4</ele>
      </trkpt>
      <trkpt lat="46.36163" lon="4.82311">
        <ele>279.3</ele>
      </trkpt>
      <trkpt lat="46.36153" lon="4.82386">
        <ele>280.8</ele>
      </trkpt>
      <trkpt lat="46.36153" lon="4.82452">
        <ele>281.9</ele>
      </trkpt>
      <trkpt lat="46.36149" lon="4.82519">
        <ele>281.8</ele>
      </trkpt>
      <trkpt lat="46.36106" lon="4.8248">
        <ele>282.7</ele>
      </trkpt>
      <trkpt lat="46.3607" lon="4.82472">
        <ele>284.2</ele>
      </trkpt>
      <trkpt lat="46.3598" lon="4.82484">
        <ele>285.8</ele>
      </trkpt>
      <trkpt lat="46.35924" lon="4.82495">
        <ele>286.1</ele>
      </trkpt>
      <trkpt lat="46.35925" lon="4.82435">
        <ele>287</ele>
      </trkpt>
      <trkpt lat="46.35921" lon="4.82349">
        <ele>285</ele>
      </trkpt>
      <trkpt lat="46.35925" lon="4.8224">
        <ele>275.5</ele>
      </trkpt>
      <trkpt lat="46.35953" lon="4.82156">
        <ele>274</ele>
      </trkpt>
      <trkpt lat="46.35996" lon="4.82083">
        <ele>280.4</ele>
      </trkpt>
      <trkpt lat="46.36005" lon="4.82049">
        <ele>284.4</ele>
      </trkpt>
      <trkpt lat="46.35996" lon="4.81987">
        <ele>290.5</ele>
      </trkpt>
      <trkpt lat="46.35984" lon="4.81796">
        <ele>308.2</ele>
      </trkpt>
      <trkpt lat="46.35971" lon="4.81697">
        <ele>313.7</ele>
      </trkpt>
      <trkpt lat="46.35969" lon="4.81609">
        <ele>317</ele>
      </trkpt>
      <trkpt lat="46.35953" lon="4.81491">
        <ele>315</ele>
      </trkpt>
      <trkpt lat="46.35922" lon="4.81386">
        <ele>308.9</ele>
      </trkpt>
      <trkpt lat="46.35862" lon="4.8136">
        <ele>308.2</ele>
      </trkpt>
      <trkpt lat="46.35812" lon="4.8137">
        <ele>307.9</ele>
      </trkpt>
      <trkpt lat="46.35747" lon="4.81393">
        <ele>307.3</ele>
      </trkpt>
      <trkpt lat="46.35711" lon="4.81404">
        <ele>307.1</ele>
      </trkpt>
      <trkpt lat="46.35671" lon="4.81415">
        <ele>307.8</ele>
      </trkpt>
      <trkpt lat="46.35651" lon="4.81409">
        <ele>306.39999389648</ele>
        <time>2018-09-09T06:11:33.000Z</time>
      </trkpt>
      <trkpt lat="46.3564" lon="4.81413">
        <ele>307.20001220703</ele>
        <time>2018-09-09T06:11:37.000Z</time>
      </trkpt>
      <trkpt lat="46.35622" lon="4.81403">
        <ele>308.60000610352</ele>
        <time>2018-09-09T06:11:43.000Z</time>
      </trkpt>
      <trkpt lat="46.35606" lon="4.81386">
        <ele>309.60000610352</ele>
        <time>2018-09-09T06:11:49.000Z</time>
      </trkpt>
      <trkpt lat="46.35589" lon="4.81372">
        <ele>310.60000610352</ele>
        <time>2018-09-09T06:11:55.000Z</time>
      </trkpt>
      <trkpt lat="46.35573" lon="4.81357">
        <ele>311.60000610352</ele>
        <time>2018-09-09T06:12:01.000Z</time>
      </trkpt>
      <trkpt lat="46.3556" lon="4.81335">
        <ele>312</ele>
        <time>2018-09-09T06:12:08.000Z</time>
      </trkpt>
      <trkpt lat="46.35546" lon="4.81318">
        <ele>312.79998779297</ele>
        <time>2018-09-09T06:12:14.000Z</time>
      </trkpt>
      <trkpt lat="46.3553" lon="4.81303">
        <ele>313.79998779297</ele>
        <time>2018-09-09T06:12:20.000Z</time>
      </trkpt>
      <trkpt lat="46.35513" lon="4.81291">
        <ele>315</ele>
        <time>2018-09-09T06:12:26.000Z</time>
      </trkpt>
      <trkpt lat="46.35495" lon="4.81283">
        <ele>316.39999389648</ele>
        <time>2018-09-09T06:12:32.000Z</time>
      </trkpt>
      <trkpt lat="46.35477" lon="4.81275">
        <ele>318.20001220703</ele>
        <time>2018-09-09T06:12:39.000Z</time>
      </trkpt>
      <trkpt lat="46.35473" lon="4.81273">
        <ele>318.60000610352</ele>
        <time>2018-09-09T06:12:41.000Z</time>
      </trkpt>
      <trkpt lat="46.35459" lon="4.81264">
        <ele>319.79998779297</ele>
        <time>2018-09-09T06:12:48.000Z</time>
      </trkpt>
      <trkpt lat="46.35443" lon="4.81249">
        <ele>321.20001220703</ele>
        <time>2018-09-09T06:12:56.000Z</time>
      </trkpt>
      <trkpt lat="46.35431" lon="4.8124">
        <ele>322.20001220703</ele>
        <time>2018-09-09T06:13:03.000Z</time>
      </trkpt>
      <trkpt lat="46.35415" lon="4.81242">
        <ele>323.60000610352</ele>
        <time>2018-09-09T06:13:11.000Z</time>
      </trkpt>
      <trkpt lat="46.35406" lon="4.81244">
        <ele>324.20001220703</ele>
        <time>2018-09-09T06:13:15.000Z</time>
      </trkpt>
      <trkpt lat="46.3539" lon="4.81254">
        <ele>325.60000610352</ele>
        <time>2018-09-09T06:13:22.000Z</time>
      </trkpt>
      <trkpt lat="46.35387" lon="4.81254">
        <ele>325.79998779297</ele>
        <time>2018-09-09T06:13:23.000Z</time>
      </trkpt>
      <trkpt lat="46.35384" lon="4.81234">
        <ele>326.20001220703</ele>
        <time>2018-09-09T06:13:29.000Z</time>
      </trkpt>
      <trkpt lat="46.35381" lon="4.81207">
        <ele>326.39999389648</ele>
        <time>2018-09-09T06:13:36.000Z</time>
      </trkpt>
      <trkpt lat="46.35377" lon="4.8118">
        <ele>326.39999389648</ele>
        <time>2018-09-09T06:13:43.000Z</time>
      </trkpt>
      <trkpt lat="46.35373" lon="4.81175">
        <ele>326.60000610352</ele>
        <time>2018-09-09T06:13:45.000Z</time>
      </trkpt>
      <trkpt lat="46.35363" lon="4.81175">
        <ele>327.60000610352</ele>
        <time>2018-09-09T06:13:49.000Z</time>
      </trkpt>
      <trkpt lat="46.35351" lon="4.81178">
        <ele>328.60000610352</ele>
        <time>2018-09-09T06:13:54.000Z</time>
      </trkpt>
      <trkpt lat="46.35333" lon="4.81178">
        <ele>330.20001220703</ele>
        <time>2018-09-09T06:14:02.000Z</time>
      </trkpt>
      <trkpt lat="46.35328" lon="4.81178">
        <ele>330.60000610352</ele>
        <time>2018-09-09T06:14:04.000Z</time>
      </trkpt>
      <trkpt lat="46.35308" lon="4.81179">
        <ele>332</ele>
        <time>2018-09-09T06:14:12.000Z</time>
      </trkpt>
      <trkpt lat="46.35301" lon="4.81181">
        <ele>332.60000610352</ele>
        <time>2018-09-09T06:14:15.000Z</time>
      </trkpt>
      <trkpt lat="46.35292" lon="4.81156">
        <ele>332.79998779297</ele>
        <time>2018-09-09T06:14:24.000Z</time>
      </trkpt>
      <trkpt lat="46.35286" lon="4.81129">
        <ele>332.79998779297</ele>
        <time>2018-09-09T06:14:31.000Z</time>
      </trkpt>
      <trkpt lat="46.3528" lon="4.81101">
        <ele>333</ele>
        <time>2018-09-09T06:14:38.000Z</time>
      </trkpt>
      <trkpt lat="46.35274" lon="4.81075">
        <ele>333.39999389648</ele>
        <time>2018-09-09T06:14:44.000Z</time>
      </trkpt>
      <trkpt lat="46.35267" lon="4.81052">
        <ele>333.60000610352</ele>
        <time>2018-09-09T06:14:51.000Z</time>
      </trkpt>
      <trkpt lat="46.35259" lon="4.81028">
        <ele>334</ele>
        <time>2018-09-09T06:14:59.000Z</time>
      </trkpt>
      <trkpt lat="46.35246" lon="4.81008">
        <ele>335.20001220703</ele>
        <time>2018-09-09T06:15:06.000Z</time>
      </trkpt>
      <trkpt lat="46.35239" lon="4.81002">
        <ele>335.79998779297</ele>
        <time>2018-09-09T06:15:09.000Z</time>
      </trkpt>
      <trkpt lat="46.3522" lon="4.80991">
        <ele>337.39999389648</ele>
        <time>2018-09-09T06:15:16.000Z</time>
      </trkpt>
      <trkpt lat="46.35217" lon="4.8099">
        <ele>337.60000610352</ele>
        <time>2018-09-09T06:15:17.000Z</time>
      </trkpt>
      <trkpt lat="46.35197" lon="4.80988">
        <ele>339</ele>
        <time>2018-09-09T06:15:25.000Z</time>
      </trkpt>
      <trkpt lat="46.35194" lon="4.80986">
        <ele>339.20001220703</ele>
        <time>2018-09-09T06:15:26.000Z</time>
      </trkpt>
      <trkpt lat="46.35191" lon="4.80985">
        <ele>339.60000610352</ele>
        <time>2018-09-09T06:15:27.000Z</time>
      </trkpt>
      <trkpt lat="46.35172" lon="4.8098">
        <ele>341</ele>
        <time>2018-09-09T06:15:33.000Z</time>
      </trkpt>
      <trkpt lat="46.35166" lon="4.80979">
        <ele>341.39999389648</ele>
        <time>2018-09-09T06:15:35.000Z</time>
      </trkpt>
      <trkpt lat="46.35157" lon="4.80963">
        <ele>342.20001220703</ele>
        <time>2018-09-09T06:15:40.000Z</time>
      </trkpt>
      <trkpt lat="46.35156" lon="4.8096">
        <ele>342.39999389648</ele>
        <time>2018-09-09T06:15:41.000Z</time>
      </trkpt>
      <trkpt lat="46.35148" lon="4.80948">
        <ele>343</ele>
        <time>2018-09-09T06:15:45.000Z</time>
      </trkpt>
      <trkpt lat="46.35143" lon="4.80947">
        <ele>342.79998779297</ele>
        <time>2018-09-09T06:15:47.000Z</time>
      </trkpt>
      <trkpt lat="46.35126" lon="4.80965">
        <ele>341.79998779297</ele>
        <time>2018-09-09T06:15:54.000Z</time>
      </trkpt>
      <trkpt lat="46.35115" lon="4.80967">
        <ele>341.20001220703</ele>
        <time>2018-09-09T06:15:57.000Z</time>
      </trkpt>
      <trkpt lat="46.35095" lon="4.8097">
        <ele>340.20001220703</ele>
        <time>2018-09-09T06:16:03.000Z</time>
      </trkpt>
      <trkpt lat="46.35076" lon="4.80968">
        <ele>339.20001220703</ele>
        <time>2018-09-09T06:16:08.000Z</time>
      </trkpt>
      <trkpt lat="46.35055" lon="4.80964">
        <ele>338.60000610352</ele>
        <time>2018-09-09T06:16:13.000Z</time>
      </trkpt>
      <trkpt lat="46.35036" lon="4.8096">
        <ele>337.39999389648</ele>
        <time>2018-09-09T06:16:17.000Z</time>
      </trkpt>
      <trkpt lat="46.35017" lon="4.80956">
        <ele>336.20001220703</ele>
        <time>2018-09-09T06:16:21.000Z</time>
      </trkpt>
      <trkpt lat="46.34998" lon="4.80954">
        <ele>335</ele>
        <time>2018-09-09T06:16:24.000Z</time>
      </trkpt>
      <trkpt lat="46.34992" lon="4.80955">
        <ele>334.60000610352</ele>
        <time>2018-09-09T06:16:25.000Z</time>
      </trkpt>
      <trkpt lat="46.34985" lon="4.80956">
        <ele>334.20001220703</ele>
        <time>2018-09-09T06:16:26.000Z</time>
      </trkpt>
      <trkpt lat="46.34963" lon="4.80962">
        <ele>331.79998779297</ele>
        <time>2018-09-09T06:16:30.000Z</time>
      </trkpt>
      <trkpt lat="46.34946" lon="4.80978">
        <ele>330</ele>
        <time>2018-09-09T06:16:34.000Z</time>
      </trkpt>
      <trkpt lat="46.34941" lon="4.80981">
        <ele>329.39999389648</ele>
        <time>2018-09-09T06:16:35.000Z</time>
      </trkpt>
      <trkpt lat="46.34922" lon="4.80994">
        <ele>327.60000610352</ele>
        <time>2018-09-09T06:16:39.000Z</time>
      </trkpt>
      <trkpt lat="46.34902" lon="4.81003">
        <ele>326.39999389648</ele>
        <time>2018-09-09T06:16:43.000Z</time>
      </trkpt>
      <trkpt lat="46.34883" lon="4.81014">
        <ele>324.79998779297</ele>
        <time>2018-09-09T06:16:47.000Z</time>
      </trkpt>
      <trkpt lat="46.3487" lon="4.81019">
        <ele>323.60000610352</ele>
        <time>2018-09-09T06:16:53.000Z</time>
      </trkpt>
      <trkpt lat="46.34854" lon="4.81001">
        <ele>320.60000610352</ele>
        <time>2018-09-09T06:17:00.000Z</time>
      </trkpt>
      <trkpt lat="46.34845" lon="4.80997">
        <ele>319.39999389648</ele>
        <time>2018-09-09T06:17:03.000Z</time>
      </trkpt>
      <trkpt lat="46.34827" lon="4.80988">
        <ele>317</ele>
        <time>2018-09-09T06:17:08.000Z</time>
      </trkpt>
      <trkpt lat="46.3482" lon="4.80981">
        <ele>315.79998779297</ele>
        <time>2018-09-09T06:17:10.000Z</time>
      </trkpt>
      <trkpt lat="46.34807" lon="4.80957">
        <ele>312.60000610352</ele>
        <time>2018-09-09T06:17:15.000Z</time>
      </trkpt>
      <trkpt lat="46.34799" lon="4.80936">
        <ele>310.20001220703</ele>
        <time>2018-09-09T06:17:19.000Z</time>
      </trkpt>
      <trkpt lat="46.34795" lon="4.80929">
        <ele>309.20001220703</ele>
        <time>2018-09-09T06:17:21.000Z</time>
      </trkpt>
      <trkpt lat="46.34779" lon="4.80914">
        <ele>306.79998779297</ele>
        <time>2018-09-09T06:17:28.000Z</time>
      </trkpt>
      <trkpt lat="46.3477" lon="4.80903">
        <ele>305</ele>
        <time>2018-09-09T06:17:31.000Z</time>
      </trkpt>
      <trkpt lat="46.3476" lon="4.80892">
        <ele>303.20001220703</ele>
        <time>2018-09-09T06:17:34.000Z</time>
      </trkpt>
      <trkpt lat="46.34746" lon="4.80874">
        <ele>300.60000610352</ele>
        <time>2018-09-09T06:17:38.000Z</time>
      </trkpt>
      <trkpt lat="46.34732" lon="4.8085">
        <ele>297.60000610352</ele>
        <time>2018-09-09T06:17:43.000Z</time>
      </trkpt>
      <trkpt lat="46.34723" lon="4.80831">
        <ele>295.60000610352</ele>
        <time>2018-09-09T06:17:48.000Z</time>
      </trkpt>
      <trkpt lat="46.34719" lon="4.80826">
        <ele>295.20001220703</ele>
        <time>2018-09-09T06:17:50.000Z</time>
      </trkpt>
      <trkpt lat="46.34711" lon="4.80816">
        <ele>294</ele>
        <time>2018-09-09T06:17:54.000Z</time>
      </trkpt>
      <trkpt lat="46.34707" lon="4.80809">
        <ele>293.39999389648</ele>
        <time>2018-09-09T06:17:57.000Z</time>
      </trkpt>
      <trkpt lat="46.347" lon="4.80803">
        <ele>292.60000610352</ele>
        <time>2018-09-09T06:18:00.000Z</time>
      </trkpt>
      <trkpt lat="46.34688" lon="4.80788">
        <ele>290.79998779297</ele>
        <time>2018-09-09T06:18:06.000Z</time>
      </trkpt>
      <trkpt lat="46.3467" lon="4.80793">
        <ele>290.39999389648</ele>
        <time>2018-09-09T06:18:14.000Z</time>
      </trkpt>
      <trkpt lat="46.34664" lon="4.80799">
        <ele>290.39999389648</ele>
        <time>2018-09-09T06:18:17.000Z</time>
      </trkpt>
      <trkpt lat="46.34652" lon="4.80786">
        <ele>289</ele>
        <time>2018-09-09T06:18:24.000Z</time>
      </trkpt>
      <trkpt lat="46.34652" lon="4.8078">
        <ele>288.39999389648</ele>
        <time>2018-09-09T06:18:25.000Z</time>
      </trkpt>
      <trkpt lat="46.34654" lon="4.8076">
        <ele>286.60000610352</ele>
        <time>2018-09-09T06:18:28.000Z</time>
      </trkpt>
      <trkpt lat="46.34645" lon="4.80741">
        <ele>284.20001220703</ele>
        <time>2018-09-09T06:18:34.000Z</time>
      </trkpt>
      <trkpt lat="46.34635" lon="4.8075">
        <ele>284.79998779297</ele>
        <time>2018-09-09T06:18:38.000Z</time>
      </trkpt>
      <trkpt lat="46.34623" lon="4.80766">
        <ele>285.60000610352</ele>
        <time>2018-09-09T06:18:42.000Z</time>
      </trkpt>
      <trkpt lat="46.34608" lon="4.80777">
        <ele>285</ele>
        <time>2018-09-09T06:18:46.000Z</time>
      </trkpt>
      <trkpt lat="46.34589" lon="4.80781">
        <ele>283.60000610352</ele>
        <time>2018-09-09T06:18:50.000Z</time>
      </trkpt>
      <trkpt lat="46.34581" lon="4.80778">
        <ele>282.79998779297</ele>
        <time>2018-09-09T06:18:52.000Z</time>
      </trkpt>
      <trkpt lat="46.34576" lon="4.8076">
        <ele>281.20001220703</ele>
        <time>2018-09-09T06:18:56.000Z</time>
      </trkpt>
      <trkpt lat="46.34571" lon="4.80732">
        <ele>279.20001220703</ele>
        <time>2018-09-09T06:19:00.000Z</time>
      </trkpt>
      <trkpt lat="46.34567" lon="4.80703">
        <ele>277</ele>
        <time>2018-09-09T06:19:03.000Z</time>
      </trkpt>
      <trkpt lat="46.34564" lon="4.8067">
        <ele>274.79998779297</ele>
        <time>2018-09-09T06:19:06.000Z</time>
      </trkpt>
      <trkpt lat="46.34565" lon="4.80635">
        <ele>272.79998779297</ele>
        <time>2018-09-09T06:19:09.000Z</time>
      </trkpt>
      <trkpt lat="46.34566" lon="4.80602">
        <ele>271.20001220703</ele>
        <time>2018-09-09T06:19:12.000Z</time>
      </trkpt>
      <trkpt lat="46.34563" lon="4.80568">
        <ele>269.39999389648</ele>
        <time>2018-09-09T06:19:15.000Z</time>
      </trkpt>
      <trkpt lat="46.34562" lon="4.80556">
        <ele>268.79998779297</ele>
        <time>2018-09-09T06:19:16.000Z</time>
      </trkpt>
      <trkpt lat="46.34559" lon="4.80522">
        <ele>268.20001220703</ele>
        <time>2018-09-09T06:19:19.000Z</time>
      </trkpt>
      <trkpt lat="46.34555" lon="4.80488">
        <ele>268.60000610352</ele>
        <time>2018-09-09T06:19:22.000Z</time>
      </trkpt>
      <trkpt lat="46.34551" lon="4.80459">
        <ele>269</ele>
        <time>2018-09-09T06:19:25.000Z</time>
      </trkpt>
      <trkpt lat="46.34547" lon="4.80432">
        <ele>269.60000610352</ele>
        <time>2018-09-09T06:19:28.000Z</time>
      </trkpt>
      <trkpt lat="46.34543" lon="4.804">
        <ele>271.20001220703</ele>
        <time>2018-09-09T06:19:32.000Z</time>
      </trkpt>
      <trkpt lat="46.34541" lon="4.80385">
        <ele>271.79998779297</ele>
        <time>2018-09-09T06:19:34.000Z</time>
      </trkpt>
      <trkpt lat="46.34535" lon="4.80358">
        <ele>273</ele>
        <time>2018-09-09T06:19:38.000Z</time>
      </trkpt>
      <trkpt lat="46.34529" lon="4.80333">
        <ele>274</ele>
        <time>2018-09-09T06:19:42.000Z</time>
      </trkpt>
      <trkpt lat="46.34522" lon="4.80305">
        <ele>274.79998779297</ele>
        <time>2018-09-09T06:19:47.000Z</time>
      </trkpt>
      <trkpt lat="46.34515" lon="4.80279">
        <ele>275.79998779297</ele>
        <time>2018-09-09T06:19:52.000Z</time>
      </trkpt>
      <trkpt lat="46.34507" lon="4.80252">
        <ele>277</ele>
        <time>2018-09-09T06:19:58.000Z</time>
      </trkpt>
      <trkpt lat="46.34499" lon="4.80224">
        <ele>278.39999389648</ele>
        <time>2018-09-09T06:20:04.000Z</time>
      </trkpt>
      <trkpt lat="46.34492" lon="4.80196">
        <ele>279.60000610352</ele>
        <time>2018-09-09T06:20:10.000Z</time>
      </trkpt>
      <trkpt lat="46.34488" lon="4.8017">
        <ele>280.79998779297</ele>
        <time>2018-09-09T06:20:15.000Z</time>
      </trkpt>
      <trkpt lat="46.34486" lon="4.80144">
        <ele>282</ele>
        <time>2018-09-09T06:20:20.000Z</time>
      </trkpt>
      <trkpt lat="46.34483" lon="4.80115">
        <ele>283.20001220703</ele>
        <time>2018-09-09T06:20:26.000Z</time>
      </trkpt>
      <trkpt lat="46.34478" lon="4.80085">
        <ele>283.79998779297</ele>
        <time>2018-09-09T06:20:32.000Z</time>
      </trkpt>
      <trkpt lat="46.34472" lon="4.80058">
        <ele>284.60000610352</ele>
        <time>2018-09-09T06:20:38.000Z</time>
      </trkpt>
      <trkpt lat="46.34468" lon="4.80032">
        <ele>285</ele>
        <time>2018-09-09T06:20:43.000Z</time>
      </trkpt>
      <trkpt lat="46.34462" lon="4.80004">
        <ele>285.60000610352</ele>
        <time>2018-09-09T06:20:49.000Z</time>
      </trkpt>
      <trkpt lat="46.34449" lon="4.79984">
        <ele>285.60000610352</ele>
        <time>2018-09-09T06:20:56.000Z</time>
      </trkpt>
      <trkpt lat="46.3443" lon="4.79992">
        <ele>284.39999389648</ele>
        <time>2018-09-09T06:21:01.000Z</time>
      </trkpt>
      <trkpt lat="46.34411" lon="4.80001">
        <ele>284.60000610352</ele>
        <time>2018-09-09T06:21:05.000Z</time>
      </trkpt>
      <trkpt lat="46.3439" lon="4.80011">
        <ele>283.79998779297</ele>
        <time>2018-09-09T06:21:09.000Z</time>
      </trkpt>
      <trkpt lat="46.3437" lon="4.80023">
        <ele>282.20001220703</ele>
        <time>2018-09-09T06:21:13.000Z</time>
      </trkpt>
      <trkpt lat="46.34349" lon="4.80033">
        <ele>281.20001220703</ele>
        <time>2018-09-09T06:21:17.000Z</time>
      </trkpt>
      <trkpt lat="46.34328" lon="4.80043">
        <ele>279.79998779297</ele>
        <time>2018-09-09T06:21:21.000Z</time>
      </trkpt>
      <trkpt lat="46.34311" lon="4.80052">
        <ele>279.20001220703</ele>
        <time>2018-09-09T06:21:24.000Z</time>
      </trkpt>
      <trkpt lat="46.34293" lon="4.80062">
        <ele>278.39999389648</ele>
        <time>2018-09-09T06:21:27.000Z</time>
      </trkpt>
      <trkpt lat="46.34276" lon="4.80072">
        <ele>277.60000610352</ele>
        <time>2018-09-09T06:21:30.000Z</time>
      </trkpt>
      <trkpt lat="46.34256" lon="4.80079">
        <ele>276.20001220703</ele>
        <time>2018-09-09T06:21:33.000Z</time>
      </trkpt>
      <trkpt lat="46.34233" lon="4.80087">
        <ele>274.79998779297</ele>
        <time>2018-09-09T06:21:36.000Z</time>
      </trkpt>
      <trkpt lat="46.34208" lon="4.80097">
        <ele>274.39999389648</ele>
        <time>2018-09-09T06:21:39.000Z</time>
      </trkpt>
      <trkpt lat="46.34191" lon="4.80105">
        <ele>273.39999389648</ele>
        <time>2018-09-09T06:21:41.000Z</time>
      </trkpt>
      <trkpt lat="46.34182" lon="4.80109">
        <ele>273</ele>
        <time>2018-09-09T06:21:42.000Z</time>
      </trkpt>
      <trkpt lat="46.34163" lon="4.80111">
        <ele>272</ele>
        <time>2018-09-09T06:21:44.000Z</time>
      </trkpt>
      <trkpt lat="46.34144" lon="4.80113">
        <ele>271.39999389648</ele>
        <time>2018-09-09T06:21:46.000Z</time>
      </trkpt>
      <trkpt lat="46.34128" lon="4.80119">
        <ele>271</ele>
        <time>2018-09-09T06:21:48.000Z</time>
      </trkpt>
      <trkpt lat="46.34105" lon="4.80134">
        <ele>270.39999389648</ele>
        <time>2018-09-09T06:21:51.000Z</time>
      </trkpt>
      <trkpt lat="46.34086" lon="4.80154">
        <ele>269.60000610352</ele>
        <time>2018-09-09T06:21:54.000Z</time>
      </trkpt>
      <trkpt lat="46.34069" lon="4.80175">
        <ele>267.60000610352</ele>
        <time>2018-09-09T06:21:57.000Z</time>
      </trkpt>
      <trkpt lat="46.3405" lon="4.80194">
        <ele>267.39999389648</ele>
        <time>2018-09-09T06:22:00.000Z</time>
      </trkpt>
      <trkpt lat="46.34032" lon="4.80209">
        <ele>267.39999389648</ele>
        <time>2018-09-09T06:22:03.000Z</time>
      </trkpt>
      <trkpt lat="46.34014" lon="4.80222">
        <ele>268</ele>
        <time>2018-09-09T06:22:06.000Z</time>
      </trkpt>
      <trkpt lat="46.34008" lon="4.80227">
        <ele>268.20001220703</ele>
        <time>2018-09-09T06:22:07.000Z</time>
      </trkpt>
      <trkpt lat="46.3399" lon="4.80241">
        <ele>267.79998779297</ele>
        <time>2018-09-09T06:22:10.000Z</time>
      </trkpt>
      <trkpt lat="46.33972" lon="4.80252">
        <ele>267.39999389648</ele>
        <time>2018-09-09T06:22:13.000Z</time>
      </trkpt>
      <trkpt lat="46.33954" lon="4.8026">
        <ele>267.60000610352</ele>
        <time>2018-09-09T06:22:16.000Z</time>
      </trkpt>
      <trkpt lat="46.33936" lon="4.80267">
        <ele>267.60000610352</ele>
        <time>2018-09-09T06:22:19.000Z</time>
      </trkpt>
      <trkpt lat="46.33918" lon="4.80273">
        <ele>267.60000610352</ele>
        <time>2018-09-09T06:22:22.000Z</time>
      </trkpt>
      <trkpt lat="46.339" lon="4.80281">
        <ele>267.39999389648</ele>
        <time>2018-09-09T06:22:25.000Z</time>
      </trkpt>
      <trkpt lat="46.33881" lon="4.80292">
        <ele>266.79998779297</ele>
        <time>2018-09-09T06:22:28.000Z</time>
      </trkpt>
      <trkpt lat="46.33862" lon="4.80303">
        <ele>266.20001220703</ele>
        <time>2018-09-09T06:22:31.000Z</time>
      </trkpt>
      <trkpt lat="46.33842" lon="4.80314">
        <ele>265.39999389648</ele>
        <time>2018-09-09T06:22:34.000Z</time>
      </trkpt>
      <trkpt lat="46.3382" lon="4.80324">
        <ele>264.39999389648</ele>
        <time>2018-09-09T06:22:37.000Z</time>
      </trkpt>
      <trkpt lat="46.33798" lon="4.8033">
        <ele>263.60000610352</ele>
        <time>2018-09-09T06:22:40.000Z</time>
      </trkpt>
      <trkpt lat="46.33777" lon="4.80333">
        <ele>262.79998779297</ele>
        <time>2018-09-09T06:22:43.000Z</time>
      </trkpt>
      <trkpt lat="46.33756" lon="4.80337">
        <ele>262.39999389648</ele>
        <time>2018-09-09T06:22:46.000Z</time>
      </trkpt>
      <trkpt lat="46.33734" lon="4.80344">
        <ele>261.79998779297</ele>
        <time>2018-09-09T06:22:49.000Z</time>
      </trkpt>
      <trkpt lat="46.33711" lon="4.80349">
        <ele>260.79998779297</ele>
        <time>2018-09-09T06:22:52.000Z</time>
      </trkpt>
      <trkpt lat="46.33688" lon="4.80354">
        <ele>260.39999389648</ele>
        <time>2018-09-09T06:22:55.000Z</time>
      </trkpt>
      <trkpt lat="46.33668" lon="4.80358">
        <ele>260</ele>
        <time>2018-09-09T06:22:58.000Z</time>
      </trkpt>
      <trkpt lat="46.33656" lon="4.80359">
        <ele>259.79998779297</ele>
        <time>2018-09-09T06:23:00.000Z</time>
      </trkpt>
      <trkpt lat="46.33644" lon="4.8034">
        <ele>260.39999389648</ele>
        <time>2018-09-09T06:23:04.000Z</time>
      </trkpt>
      <trkpt lat="46.33643" lon="4.80335">
        <ele>260.60000610352</ele>
        <time>2018-09-09T06:23:05.000Z</time>
      </trkpt>
      <trkpt lat="46.33643" lon="4.80307">
        <ele>262</ele>
        <time>2018-09-09T06:23:10.000Z</time>
      </trkpt>
      <trkpt lat="46.3364" lon="4.80278">
        <ele>263.60000610352</ele>
        <time>2018-09-09T06:23:15.000Z</time>
      </trkpt>
      <trkpt lat="46.33639" lon="4.8025">
        <ele>265.60000610352</ele>
        <time>2018-09-09T06:23:20.000Z</time>
      </trkpt>
      <trkpt lat="46.33639" lon="4.80224">
        <ele>267.39999389648</ele>
        <time>2018-09-09T06:23:25.000Z</time>
      </trkpt>
      <trkpt lat="46.33638" lon="4.80198">
        <ele>269.39999389648</ele>
        <time>2018-09-09T06:23:30.000Z</time>
      </trkpt>
      <trkpt lat="46.33637" lon="4.80171">
        <ele>272</ele>
        <time>2018-09-09T06:23:36.000Z</time>
      </trkpt>
      <trkpt lat="46.33635" lon="4.80145">
        <ele>274.79998779297</ele>
        <time>2018-09-09T06:23:43.000Z</time>
      </trkpt>
      <trkpt lat="46.33631" lon="4.80118">
        <ele>277.20001220703</ele>
        <time>2018-09-09T06:23:50.000Z</time>
      </trkpt>
      <trkpt lat="46.33628" lon="4.80089">
        <ele>278.79998779297</ele>
        <time>2018-09-09T06:23:57.000Z</time>
      </trkpt>
      <trkpt lat="46.33623" lon="4.80061">
        <ele>280.20001220703</ele>
        <time>2018-09-09T06:24:05.000Z</time>
      </trkpt>
      <trkpt lat="46.33617" lon="4.80033">
        <ele>281.39999389648</ele>
        <time>2018-09-09T06:24:13.000Z</time>
      </trkpt>
      <trkpt lat="46.33609" lon="4.80008">
        <ele>282.20001220703</ele>
        <time>2018-09-09T06:24:20.000Z</time>
      </trkpt>
      <trkpt lat="46.33601" lon="4.79983">
        <ele>283</ele>
        <time>2018-09-09T06:24:26.000Z</time>
      </trkpt>
      <trkpt lat="46.33594" lon="4.79958">
        <ele>284</ele>
        <time>2018-09-09T06:24:32.000Z</time>
      </trkpt>
      <trkpt lat="46.33587" lon="4.79933">
        <ele>285</ele>
        <time>2018-09-09T06:24:38.000Z</time>
      </trkpt>
      <trkpt lat="46.3358" lon="4.79909">
        <ele>286</ele>
        <time>2018-09-09T06:24:44.000Z</time>
      </trkpt>
      <trkpt lat="46.33572" lon="4.79881">
        <ele>287</ele>
        <time>2018-09-09T06:24:51.000Z</time>
      </trkpt>
      <trkpt lat="46.33566" lon="4.79855">
        <ele>287</ele>
        <time>2018-09-09T06:24:58.000Z</time>
      </trkpt>
      <trkpt lat="46.3356" lon="4.79828">
        <ele>286.60000610352</ele>
        <time>2018-09-09T06:25:05.000Z</time>
      </trkpt>
      <trkpt lat="46.33554" lon="4.79804">
        <ele>285.79998779297</ele>
        <time>2018-09-09T06:25:12.000Z</time>
      </trkpt>
      <trkpt lat="46.33551" lon="4.79803">
        <ele>285.60000610352</ele>
        <time>2018-09-09T06:25:13.000Z</time>
      </trkpt>
      <trkpt lat="46.3353" lon="4.79808">
        <ele>283.39999389648</ele>
        <time>2018-09-09T06:25:19.000Z</time>
      </trkpt>
      <trkpt lat="46.33512" lon="4.79813">
        <ele>281.39999389648</ele>
        <time>2018-09-09T06:25:24.000Z</time>
      </trkpt>
      <trkpt lat="46.33491" lon="4.79818">
        <ele>279.79998779297</ele>
        <time>2018-09-09T06:25:29.000Z</time>
      </trkpt>
      <trkpt lat="46.3347" lon="4.79823">
        <ele>278.20001220703</ele>
        <time>2018-09-09T06:25:34.000Z</time>
      </trkpt>
      <trkpt lat="46.33451" lon="4.79824">
        <ele>276.39999389648</ele>
        <time>2018-09-09T06:25:38.000Z</time>
      </trkpt>
      <trkpt lat="46.33433" lon="4.79824">
        <ele>274.60000610352</ele>
        <time>2018-09-09T06:25:42.000Z</time>
      </trkpt>
      <trkpt lat="46.33427" lon="4.79824">
        <ele>274.39999389648</ele>
        <time>2018-09-09T06:25:43.000Z</time>
      </trkpt>
      <trkpt lat="46.33406" lon="4.79824">
        <ele>273.39999389648</ele>
        <time>2018-09-09T06:25:47.000Z</time>
      </trkpt>
      <trkpt lat="46.33384" lon="4.79828">
        <ele>272.39999389648</ele>
        <time>2018-09-09T06:25:51.000Z</time>
      </trkpt>
      <trkpt lat="46.33363" lon="4.79833">
        <ele>271.20001220703</ele>
        <time>2018-09-09T06:25:55.000Z</time>
      </trkpt>
      <trkpt lat="46.33342" lon="4.79838">
        <ele>270.39999389648</ele>
        <time>2018-09-09T06:25:59.000Z</time>
      </trkpt>
      <trkpt lat="46.33324" lon="4.7984">
        <ele>269.60000610352</ele>
        <time>2018-09-09T06:26:02.000Z</time>
      </trkpt>
      <trkpt lat="46.33305" lon="4.79841">
        <ele>268.79998779297</ele>
        <time>2018-09-09T06:26:05.000Z</time>
      </trkpt>
      <trkpt lat="46.33286" lon="4.7984">
        <ele>268</ele>
        <time>2018-09-09T06:26:08.000Z</time>
      </trkpt>
      <trkpt lat="46.33272" lon="4.79821">
        <ele>265.60000610352</ele>
        <time>2018-09-09T06:26:12.000Z</time>
      </trkpt>
      <trkpt lat="46.33249" lon="4.79819">
        <ele>264.20001220703</ele>
        <time>2018-09-09T06:26:16.000Z</time>
      </trkpt>
      <trkpt lat="46.33227" lon="4.79822">
        <ele>263.20001220703</ele>
        <time>2018-09-09T06:26:19.000Z</time>
      </trkpt>
      <trkpt lat="46.33209" lon="4.79824">
        <ele>262</ele>
        <time>2018-09-09T06:26:22.000Z</time>
      </trkpt>
      <trkpt lat="46.33203" lon="4.79795">
        <ele>259.39999389648</ele>
        <time>2018-09-09T06:26:27.000Z</time>
      </trkpt>
      <trkpt lat="46.33204" lon="4.79766">
        <ele>259.20001220703</ele>
        <time>2018-09-09T06:26:30.000Z</time>
      </trkpt>
      <trkpt lat="46.33201" lon="4.79737">
        <ele>257.60000610352</ele>
        <time>2018-09-09T06:26:34.000Z</time>
      </trkpt>
      <trkpt lat="46.33196" lon="4.79711">
        <ele>256</ele>
        <time>2018-09-09T06:26:39.000Z</time>
      </trkpt>
      <trkpt lat="46.33192" lon="4.7968">
        <ele>256.20001220703</ele>
        <time>2018-09-09T06:26:44.000Z</time>
      </trkpt>
      <trkpt lat="46.33192" lon="4.79673">
        <ele>256.20001220703</ele>
        <time>2018-09-09T06:26:45.000Z</time>
      </trkpt>
      <trkpt lat="46.33176" lon="4.79653">
        <ele>256.60000610352</ele>
        <time>2018-09-09T06:26:50.000Z</time>
      </trkpt>
      <trkpt lat="46.33163" lon="4.79653">
        <ele>256.39999389648</ele>
        <time>2018-09-09T06:26:53.000Z</time>
      </trkpt>
      <trkpt lat="46.33154" lon="4.79652">
        <ele>256.39999389648</ele>
        <time>2018-09-09T06:26:55.000Z</time>
      </trkpt>
      <trkpt lat="46.33139" lon="4.79647">
        <ele>256.60000610352</ele>
        <time>2018-09-09T06:26:59.000Z</time>
      </trkpt>
      <trkpt lat="46.3312" lon="4.79644">
        <ele>257.20001220703</ele>
        <time>2018-09-09T06:27:04.000Z</time>
      </trkpt>
      <trkpt lat="46.33106" lon="4.79627">
        <ele>257.79998779297</ele>
        <time>2018-09-09T06:27:10.000Z</time>
      </trkpt>
      <trkpt lat="46.33104" lon="4.79623">
        <ele>258</ele>
        <time>2018-09-09T06:27:11.000Z</time>
      </trkpt>
      <trkpt lat="46.33086" lon="4.7962">
        <ele>258.60000610352</ele>
        <time>2018-09-09T06:27:17.000Z</time>
      </trkpt>
      <trkpt lat="46.33072" lon="4.79622">
        <ele>258.79998779297</ele>
        <time>2018-09-09T06:27:24.000Z</time>
      </trkpt>
      <trkpt lat="46.33071" lon="4.79637">
        <ele>258.79998779297</ele>
        <time>2018-09-09T06:27:28.000Z</time>
      </trkpt>
      <trkpt lat="46.33073" lon="4.79666">
        <ele>259</ele>
        <time>2018-09-09T06:27:35.000Z</time>
      </trkpt>
      <trkpt lat="46.33074" lon="4.79693">
        <ele>259.20001220703</ele>
        <time>2018-09-09T06:27:42.000Z</time>
      </trkpt>
      <trkpt lat="46.3307" lon="4.79721">
        <ele>259.60000610352</ele>
        <time>2018-09-09T06:27:51.000Z</time>
      </trkpt>
      <trkpt lat="46.33067" lon="4.79748">
        <ele>259.79998779297</ele>
        <time>2018-09-09T06:27:58.000Z</time>
      </trkpt>
      <trkpt lat="46.33057" lon="4.79756">
        <ele>260.79998779297</ele>
        <time>2018-09-09T06:28:03.000Z</time>
      </trkpt>
      <trkpt lat="46.33047" lon="4.79749">
        <ele>262</ele>
        <time>2018-09-09T06:28:07.000Z</time>
      </trkpt>
      <trkpt lat="46.33032" lon="4.79735">
        <ele>263.79998779297</ele>
        <time>2018-09-09T06:28:14.000Z</time>
      </trkpt>
      <trkpt lat="46.33015" lon="4.79723">
        <ele>265.79998779297</ele>
        <time>2018-09-09T06:28:21.000Z</time>
      </trkpt>
      <trkpt lat="46.32996" lon="4.79713">
        <ele>268.20001220703</ele>
        <time>2018-09-09T06:28:28.000Z</time>
      </trkpt>
      <trkpt lat="46.32977" lon="4.79705">
        <ele>270.20001220703</ele>
        <time>2018-09-09T06:28:34.000Z</time>
      </trkpt>
      <trkpt lat="46.32956" lon="4.79699">
        <ele>271</ele>
        <time>2018-09-09T06:28:40.000Z</time>
      </trkpt>
      <trkpt lat="46.32938" lon="4.79695">
        <ele>271.79998779297</ele>
        <time>2018-09-09T06:28:45.000Z</time>
      </trkpt>
      <trkpt lat="46.3292" lon="4.79694">
        <ele>272.79998779297</ele>
        <time>2018-09-09T06:28:50.000Z</time>
      </trkpt>
      <trkpt lat="46.329" lon="4.79688">
        <ele>273.60000610352</ele>
        <time>2018-09-09T06:28:55.000Z</time>
      </trkpt>
      <trkpt lat="46.3288" lon="4.7968">
        <ele>274.79998779297</ele>
        <time>2018-09-09T06:29:00.000Z</time>
      </trkpt>
      <trkpt lat="46.3286" lon="4.79672">
        <ele>275.79998779297</ele>
        <time>2018-09-09T06:29:05.000Z</time>
      </trkpt>
      <trkpt lat="46.32842" lon="4.79666">
        <ele>276.20001220703</ele>
        <time>2018-09-09T06:29:09.000Z</time>
      </trkpt>
      <trkpt lat="46.32822" lon="4.79662">
        <ele>276.39999389648</ele>
        <time>2018-09-09T06:29:13.000Z</time>
      </trkpt>
      <trkpt lat="46.32801" lon="4.79657">
        <ele>276.39999389648</ele>
        <time>2018-09-09T06:29:17.000Z</time>
      </trkpt>
      <trkpt lat="46.32781" lon="4.7965">
        <ele>276.20001220703</ele>
        <time>2018-09-09T06:29:21.000Z</time>
      </trkpt>
      <trkpt lat="46.32761" lon="4.79643">
        <ele>276.20001220703</ele>
        <time>2018-09-09T06:29:25.000Z</time>
      </trkpt>
      <trkpt lat="46.32743" lon="4.79636">
        <ele>276</ele>
        <time>2018-09-09T06:29:29.000Z</time>
      </trkpt>
      <trkpt lat="46.32739" lon="4.79634">
        <ele>276</ele>
        <time>2018-09-09T06:29:30.000Z</time>
      </trkpt>
      <trkpt lat="46.32721" lon="4.79626">
        <ele>276</ele>
        <time>2018-09-09T06:29:34.000Z</time>
      </trkpt>
      <trkpt lat="46.32703" lon="4.79622">
        <ele>276.39999389648</ele>
        <time>2018-09-09T06:29:38.000Z</time>
      </trkpt>
      <trkpt lat="46.32684" lon="4.79619">
        <ele>276.60000610352</ele>
        <time>2018-09-09T06:29:42.000Z</time>
      </trkpt>
      <trkpt lat="46.32664" lon="4.79615">
        <ele>276.79998779297</ele>
        <time>2018-09-09T06:29:46.000Z</time>
      </trkpt>
      <trkpt lat="46.32644" lon="4.79613">
        <ele>276.79998779297</ele>
        <time>2018-09-09T06:29:50.000Z</time>
      </trkpt>
      <trkpt lat="46.32623" lon="4.79611">
        <ele>277</ele>
        <time>2018-09-09T06:29:54.000Z</time>
      </trkpt>
      <trkpt lat="46.32603" lon="4.79608">
        <ele>277.20001220703</ele>
        <time>2018-09-09T06:29:58.000Z</time>
      </trkpt>
      <trkpt lat="46.32582" lon="4.79605">
        <ele>277.39999389648</ele>
        <time>2018-09-09T06:30:02.000Z</time>
      </trkpt>
      <trkpt lat="46.32561" lon="4.796">
        <ele>277.39999389648</ele>
        <time>2018-09-09T06:30:06.000Z</time>
      </trkpt>
      <trkpt lat="46.32539" lon="4.79594">
        <ele>277</ele>
        <time>2018-09-09T06:30:10.000Z</time>
      </trkpt>
      <trkpt lat="46.32517" lon="4.79588">
        <ele>276.39999389648</ele>
        <time>2018-09-09T06:30:14.000Z</time>
      </trkpt>
      <trkpt lat="46.32494" lon="4.79581">
        <ele>275.79998779297</ele>
        <time>2018-09-09T06:30:18.000Z</time>
      </trkpt>
      <trkpt lat="46.32472" lon="4.79575">
        <ele>275.20001220703</ele>
        <time>2018-09-09T06:30:22.000Z</time>
      </trkpt>
      <trkpt lat="46.32449" lon="4.79569">
        <ele>274.60000610352</ele>
        <time>2018-09-09T06:30:26.000Z</time>
      </trkpt>
      <trkpt lat="46.32427" lon="4.79565">
        <ele>274</ele>
        <time>2018-09-09T06:30:30.000Z</time>
      </trkpt>
      <trkpt lat="46.32404" lon="4.79565">
        <ele>273.39999389648</ele>
        <time>2018-09-09T06:30:34.000Z</time>
      </trkpt>
      <trkpt lat="46.32383" lon="4.79564">
        <ele>272.60000610352</ele>
        <time>2018-09-09T06:30:38.000Z</time>
      </trkpt>
      <trkpt lat="46.3238" lon="4.79538">
        <ele>272.20001220703</ele>
        <time>2018-09-09T06:30:44.000Z</time>
      </trkpt>
      <trkpt lat="46.3239" lon="4.79514">
        <ele>271.60000610352</ele>
        <time>2018-09-09T06:30:48.000Z</time>
      </trkpt>
      <trkpt lat="46.32402" lon="4.79485">
        <ele>270.60000610352</ele>
        <time>2018-09-09T06:30:52.000Z</time>
      </trkpt>
      <trkpt lat="46.32411" lon="4.79462">
        <ele>269.60000610352</ele>
        <time>2018-09-09T06:30:55.000Z</time>
      </trkpt>
      <trkpt lat="46.32415" lon="4.79455">
        <ele>269.20001220703</ele>
        <time>2018-09-09T06:30:56.000Z</time>
      </trkpt>
      <trkpt lat="46.32426" lon="4.79434">
        <ele>269.60000610352</ele>
        <time>2018-09-09T06:30:59.000Z</time>
      </trkpt>
      <trkpt lat="46.32429" lon="4.79428">
        <ele>269.79998779297</ele>
        <time>2018-09-09T06:31:00.000Z</time>
      </trkpt>
      <trkpt lat="46.32441" lon="4.79406">
        <ele>270.20001220703</ele>
        <time>2018-09-09T06:31:04.000Z</time>
      </trkpt>
      <trkpt lat="46.32453" lon="4.79383">
        <ele>271</ele>
        <time>2018-09-09T06:31:08.000Z</time>
      </trkpt>
      <trkpt lat="46.32461" lon="4.79358">
        <ele>271.79998779297</ele>
        <time>2018-09-09T06:31:12.000Z</time>
      </trkpt>
      <trkpt lat="46.32474" lon="4.79334">
        <ele>273.79998779297</ele>
        <time>2018-09-09T06:31:17.000Z</time>
      </trkpt>
      <trkpt lat="46.32489" lon="4.79314">
        <ele>275.79998779297</ele>
        <time>2018-09-09T06:31:22.000Z</time>
      </trkpt>
      <trkpt lat="46.32496" lon="4.79292">
        <ele>277.39999389648</ele>
        <time>2018-09-09T06:31:26.000Z</time>
      </trkpt>
      <trkpt lat="46.32499" lon="4.79267">
        <ele>278.60000610352</ele>
        <time>2018-09-09T06:31:31.000Z</time>
      </trkpt>
      <trkpt lat="46.325" lon="4.79237">
        <ele>279.79998779297</ele>
        <time>2018-09-09T06:31:37.000Z</time>
      </trkpt>
      <trkpt lat="46.32503" lon="4.7921">
        <ele>281.20001220703</ele>
        <time>2018-09-09T06:31:43.000Z</time>
      </trkpt>
      <trkpt lat="46.32506" lon="4.7918">
        <ele>282.79998779297</ele>
        <time>2018-09-09T06:31:50.000Z</time>
      </trkpt>
      <trkpt lat="46.32511" lon="4.79154">
        <ele>284.20001220703</ele>
        <time>2018-09-09T06:31:59.000Z</time>
      </trkpt>
      <trkpt lat="46.32513" lon="4.79149">
        <ele>284.60000610352</ele>
        <time>2018-09-09T06:32:01.000Z</time>
      </trkpt>
      <trkpt lat="46.32532" lon="4.7914">
        <ele>286.20001220703</ele>
        <time>2018-09-09T06:32:08.000Z</time>
      </trkpt>
      <trkpt lat="46.32547" lon="4.79123">
        <ele>288</ele>
        <time>2018-09-09T06:32:16.000Z</time>
      </trkpt>
      <trkpt lat="46.32563" lon="4.79106">
        <ele>289.79998779297</ele>
        <time>2018-09-09T06:32:24.000Z</time>
      </trkpt>
      <trkpt lat="46.32578" lon="4.79089">
        <ele>291.39999389648</ele>
        <time>2018-09-09T06:32:32.000Z</time>
      </trkpt>
      <trkpt lat="46.32594" lon="4.79073">
        <ele>293</ele>
        <time>2018-09-09T06:32:40.000Z</time>
      </trkpt>
      <trkpt lat="46.3261" lon="4.79059">
        <ele>294.60000610352</ele>
        <time>2018-09-09T06:32:48.000Z</time>
      </trkpt>
      <trkpt lat="46.32625" lon="4.79042">
        <ele>296.60000610352</ele>
        <time>2018-09-09T06:32:56.000Z</time>
      </trkpt>
      <trkpt lat="46.32641" lon="4.79026">
        <ele>298.60000610352</ele>
        <time>2018-09-09T06:33:04.000Z</time>
      </trkpt>
      <trkpt lat="46.32654" lon="4.79008">
        <ele>300.39999389648</ele>
        <time>2018-09-09T06:33:11.000Z</time>
      </trkpt>
      <trkpt lat="46.32669" lon="4.78989">
        <ele>302.39999389648</ele>
        <time>2018-09-09T06:33:19.000Z</time>
      </trkpt>
      <trkpt lat="46.3268" lon="4.78971">
        <ele>303.20001220703</ele>
        <time>2018-09-09T06:33:26.000Z</time>
      </trkpt>
      <trkpt lat="46.32685" lon="4.78942">
        <ele>304.20001220703</ele>
        <time>2018-09-09T06:33:34.000Z</time>
      </trkpt>
      <trkpt lat="46.32688" lon="4.78913">
        <ele>305.60000610352</ele>
        <time>2018-09-09T06:33:42.000Z</time>
      </trkpt>
      <trkpt lat="46.3269" lon="4.78887">
        <ele>307</ele>
        <time>2018-09-09T06:33:49.000Z</time>
      </trkpt>
      <trkpt lat="46.32693" lon="4.78858">
        <ele>308.39999389648</ele>
        <time>2018-09-09T06:33:57.000Z</time>
      </trkpt>
      <trkpt lat="46.32697" lon="4.7883">
        <ele>309</ele>
        <time>2018-09-09T06:34:05.000Z</time>
      </trkpt>
      <trkpt lat="46.32701" lon="4.78803">
        <ele>309.60000610352</ele>
        <time>2018-09-09T06:34:12.000Z</time>
      </trkpt>
      <trkpt lat="46.32704" lon="4.78774">
        <ele>310.60000610352</ele>
        <time>2018-09-09T06:34:19.000Z</time>
      </trkpt>
      <trkpt lat="46.32707" lon="4.78747">
        <ele>311.39999389648</ele>
        <time>2018-09-09T06:34:26.000Z</time>
      </trkpt>
      <trkpt lat="46.32707" lon="4.78721">
        <ele>312.39999389648</ele>
        <time>2018-09-09T06:34:33.000Z</time>
      </trkpt>
      <trkpt lat="46.32708" lon="4.78691">
        <ele>313.39999389648</ele>
        <time>2018-09-09T06:34:40.000Z</time>
      </trkpt>
      <trkpt lat="46.32713" lon="4.78666">
        <ele>314</ele>
        <time>2018-09-09T06:34:46.000Z</time>
      </trkpt>
      <trkpt lat="46.32719" lon="4.78638">
        <ele>314.60000610352</ele>
        <time>2018-09-09T06:34:53.000Z</time>
      </trkpt>
      <trkpt lat="46.32723" lon="4.78609">
        <ele>315.20001220703</ele>
        <time>2018-09-09T06:35:00.000Z</time>
      </trkpt>
      <trkpt lat="46.32727" lon="4.78579">
        <ele>315.60000610352</ele>
        <time>2018-09-09T06:35:07.000Z</time>
      </trkpt>
      <trkpt lat="46.32731" lon="4.78551">
        <ele>315.79998779297</ele>
        <time>2018-09-09T06:35:13.000Z</time>
      </trkpt>
      <trkpt lat="46.32734" lon="4.78522">
        <ele>315.79998779297</ele>
        <time>2018-09-09T06:35:19.000Z</time>
      </trkpt>
      <trkpt lat="46.32738" lon="4.78492">
        <ele>315.39999389648</ele>
        <time>2018-09-09T06:35:24.000Z</time>
      </trkpt>
      <trkpt lat="46.32741" lon="4.78462">
        <ele>315</ele>
        <time>2018-09-09T06:35:28.000Z</time>
      </trkpt>
      <trkpt lat="46.32743" lon="4.78435">
        <ele>314.79998779297</ele>
        <time>2018-09-09T06:35:31.000Z</time>
      </trkpt>
      <trkpt lat="46.32745" lon="4.78409">
        <ele>314.39999389648</ele>
        <time>2018-09-09T06:35:34.000Z</time>
      </trkpt>
      <trkpt lat="46.32751" lon="4.78389">
        <ele>314.60000610352</ele>
        <time>2018-09-09T06:41:48.000Z</time>
      </trkpt>
      <trkpt lat="46.32753" lon="4.7836">
        <ele>314.39999389648</ele>
        <time>2018-09-09T06:41:54.000Z</time>
      </trkpt>
      <trkpt lat="46.32752" lon="4.7833">
        <ele>314.39999389648</ele>
        <time>2018-09-09T06:41:59.000Z</time>
      </trkpt>
      <trkpt lat="46.32749" lon="4.7831">
        <ele>314</ele>
        <time>2018-09-09T06:42:02.000Z</time>
      </trkpt>
      <trkpt lat="46.32745" lon="4.78281">
        <ele>313.20001220703</ele>
        <time>2018-09-09T06:42:07.000Z</time>
      </trkpt>
      <trkpt lat="46.32742" lon="4.78254">
        <ele>311.79998779297</ele>
        <time>2018-09-09T06:42:12.000Z</time>
      </trkpt>
      <trkpt lat="46.32737" lon="4.78228">
        <ele>310.39999389648</ele>
        <time>2018-09-09T06:42:16.000Z</time>
      </trkpt>
      <trkpt lat="46.32733" lon="4.78197">
        <ele>308.60000610352</ele>
        <time>2018-09-09T06:42:20.000Z</time>
      </trkpt>
      <trkpt lat="46.32727" lon="4.78171">
        <ele>306.39999389648</ele>
        <time>2018-09-09T06:42:23.000Z</time>
      </trkpt>
      <trkpt lat="46.32716" lon="4.78145">
        <ele>303.39999389648</ele>
        <time>2018-09-09T06:42:26.000Z</time>
      </trkpt>
      <trkpt lat="46.32711" lon="4.78115">
        <ele>300.60000610352</ele>
        <time>2018-09-09T06:42:29.000Z</time>
      </trkpt>
      <trkpt lat="46.32714" lon="4.78083">
        <ele>297.39999389648</ele>
        <time>2018-09-09T06:42:32.000Z</time>
      </trkpt>
      <trkpt lat="46.32719" lon="4.78055">
        <ele>295.20001220703</ele>
        <time>2018-09-09T06:42:35.000Z</time>
      </trkpt>
      <trkpt lat="46.3273" lon="4.78033">
        <ele>294</ele>
        <time>2018-09-09T06:42:39.000Z</time>
      </trkpt>
      <trkpt lat="46.32733" lon="4.78029">
        <ele>293.60000610352</ele>
        <time>2018-09-09T06:42:40.000Z</time>
      </trkpt>
      <trkpt lat="46.32739" lon="4.78022">
        <ele>292.39999389648</ele>
        <time>2018-09-09T06:42:42.000Z</time>
      </trkpt>
      <trkpt lat="46.32756" lon="4.7801">
        <ele>290.20001220703</ele>
        <time>2018-09-09T06:42:47.000Z</time>
      </trkpt>
      <trkpt lat="46.32762" lon="4.78001">
        <ele>288.79998779297</ele>
        <time>2018-09-09T06:42:51.000Z</time>
      </trkpt>
      <trkpt lat="46.32763" lon="4.77993">
        <ele>287.60000610352</ele>
        <time>2018-09-09T06:42:55.000Z</time>
      </trkpt>
      <trkpt lat="46.32772" lon="4.77986">
        <ele>286.20001220703</ele>
        <time>2018-09-09T06:45:11.000Z</time>
      </trkpt>
      <trkpt lat="46.32785" lon="4.77979">
        <ele>284.79998779297</ele>
        <time>2018-09-09T06:45:15.000Z</time>
      </trkpt>
      <trkpt lat="46.32805" lon="4.77971">
        <ele>283</ele>
        <time>2018-09-09T06:45:20.000Z</time>
      </trkpt>
      <trkpt lat="46.32815" lon="4.77962">
        <ele>281.20001220703</ele>
        <time>2018-09-09T06:45:24.000Z</time>
      </trkpt>
      <trkpt lat="46.3282" lon="4.77946">
        <ele>278.60000610352</ele>
        <time>2018-09-09T06:45:27.000Z</time>
      </trkpt>
      <trkpt lat="46.32828" lon="4.77921">
        <ele>275</ele>
        <time>2018-09-09T06:45:31.000Z</time>
      </trkpt>
      <trkpt lat="46.3283" lon="4.77915">
        <ele>274</ele>
        <time>2018-09-09T06:45:32.000Z</time>
      </trkpt>
      <trkpt lat="46.32841" lon="4.77885">
        <ele>269.79998779297</ele>
        <time>2018-09-09T06:45:36.000Z</time>
      </trkpt>
      <trkpt lat="46.3285" lon="4.77861">
        <ele>266.60000610352</ele>
        <time>2018-09-09T06:45:39.000Z</time>
      </trkpt>
      <trkpt lat="46.32861" lon="4.77832">
        <ele>262</ele>
        <time>2018-09-09T06:45:43.000Z</time>
      </trkpt>
      <trkpt lat="46.32867" lon="4.77818">
        <ele>260.39999389648</ele>
        <time>2018-09-09T06:45:45.000Z</time>
      </trkpt>
      <trkpt lat="46.32878" lon="4.77788">
        <ele>256.79998779297</ele>
        <time>2018-09-09T06:45:49.000Z</time>
      </trkpt>
      <trkpt lat="46.3289" lon="4.77761">
        <ele>254.60000610352</ele>
        <time>2018-09-09T06:45:52.000Z</time>
      </trkpt>
      <trkpt lat="46.32906" lon="4.77733">
        <ele>252.80000305176</ele>
        <time>2018-09-09T06:45:55.000Z</time>
      </trkpt>
      <trkpt lat="46.32922" lon="4.77703">
        <ele>251.60000610352</ele>
        <time>2018-09-09T06:45:58.000Z</time>
      </trkpt>
      <trkpt lat="46.32937" lon="4.77672">
        <ele>252</ele>
        <time>2018-09-09T06:46:01.000Z</time>
      </trkpt>
      <trkpt lat="46.32947" lon="4.77641">
        <ele>252.80000305176</ele>
        <time>2018-09-09T06:46:04.000Z</time>
      </trkpt>
      <trkpt lat="46.3295" lon="4.77632">
        <ele>253.19999694824</ele>
        <time>2018-09-09T06:46:05.000Z</time>
      </trkpt>
      <trkpt lat="46.3296" lon="4.7761">
        <ele>254.60000610352</ele>
        <time>2018-09-09T06:46:08.000Z</time>
      </trkpt>
      <trkpt lat="46.32972" lon="4.77588">
        <ele>256.60000610352</ele>
        <time>2018-09-09T06:46:12.000Z</time>
      </trkpt>
      <trkpt lat="46.32981" lon="4.77562">
        <ele>258.60000610352</ele>
        <time>2018-09-09T06:46:17.000Z</time>
      </trkpt>
      <trkpt lat="46.32989" lon="4.77536">
        <ele>260.60000610352</ele>
        <time>2018-09-09T06:46:22.000Z</time>
      </trkpt>
      <trkpt lat="46.32995" lon="4.77511">
        <ele>262.60000610352</ele>
        <time>2018-09-09T06:46:27.000Z</time>
      </trkpt>
      <trkpt lat="46.33002" lon="4.77484">
        <ele>265</ele>
        <time>2018-09-09T06:46:33.000Z</time>
      </trkpt>
      <trkpt lat="46.33009" lon="4.77459">
        <ele>267.60000610352</ele>
        <time>2018-09-09T06:46:41.000Z</time>
      </trkpt>
      <trkpt lat="46.33018" lon="4.77436">
        <ele>270.20001220703</ele>
        <time>2018-09-09T06:46:52.000Z</time>
      </trkpt>
      <trkpt lat="46.33028" lon="4.77413">
        <ele>272.60000610352</ele>
        <time>2018-09-09T06:47:06.000Z</time>
      </trkpt>
      <trkpt lat="46.33032" lon="4.77407">
        <ele>273</ele>
        <time>2018-09-09T06:47:10.000Z</time>
      </trkpt>
      <trkpt lat="46.33032" lon="4.77398">
        <ele>273.20001220703</ele>
        <time>2018-09-09T06:47:16.000Z</time>
      </trkpt>
      <trkpt lat="46.33013" lon="4.77397">
        <ele>272.79998779297</ele>
        <time>2018-09-09T06:47:22.000Z</time>
      </trkpt>
      <trkpt lat="46.33009" lon="4.77397">
        <ele>272.79998779297</ele>
        <time>2018-09-09T06:47:23.000Z</time>
      </trkpt>
      <trkpt lat="46.32989" lon="4.77391">
        <ele>272</ele>
        <time>2018-09-09T06:47:28.000Z</time>
      </trkpt>
      <trkpt lat="46.32972" lon="4.77382">
        <ele>271.79998779297</ele>
        <time>2018-09-09T06:47:32.000Z</time>
      </trkpt>
      <trkpt lat="46.32955" lon="4.7737">
        <ele>271.79998779297</ele>
        <time>2018-09-09T06:47:36.000Z</time>
      </trkpt>
      <trkpt lat="46.32938" lon="4.77355">
        <ele>271.60000610352</ele>
        <time>2018-09-09T06:47:41.000Z</time>
      </trkpt>
      <trkpt lat="46.32924" lon="4.77346">
        <ele>271.20001220703</ele>
        <time>2018-09-09T06:47:45.000Z</time>
      </trkpt>
      <trkpt lat="46.32906" lon="4.77336">
        <ele>270.60000610352</ele>
        <time>2018-09-09T06:47:49.000Z</time>
      </trkpt>
      <trkpt lat="46.32886" lon="4.77323">
        <ele>270.20001220703</ele>
        <time>2018-09-09T06:47:53.000Z</time>
      </trkpt>
      <trkpt lat="46.32866" lon="4.77312">
        <ele>269.60000610352</ele>
        <time>2018-09-09T06:47:57.000Z</time>
      </trkpt>
      <trkpt lat="46.32863" lon="4.77309">
        <ele>269.60000610352</ele>
        <time>2018-09-09T06:47:58.000Z</time>
      </trkpt>
      <trkpt lat="46.32862" lon="4.77284">
        <ele>270.20001220703</ele>
        <time>2018-09-09T06:48:03.000Z</time>
      </trkpt>
      <trkpt lat="46.32863" lon="4.77279">
        <ele>270.20001220703</ele>
        <time>2018-09-09T06:48:04.000Z</time>
      </trkpt>
      <trkpt lat="46.32865" lon="4.77267">
        <ele>270.20001220703</ele>
        <time>2018-09-09T06:48:07.000Z</time>
      </trkpt>
      <trkpt lat="46.32855" lon="4.77263">
        <ele>269.60000610352</ele>
        <time>2018-09-09T06:48:11.000Z</time>
      </trkpt>
      <trkpt lat="46.3284" lon="4.77257">
        <ele>269</ele>
        <time>2018-09-09T06:48:14.000Z</time>
      </trkpt>
      <trkpt lat="46.32822" lon="4.77245">
        <ele>267.79998779297</ele>
        <time>2018-09-09T06:48:18.000Z</time>
      </trkpt>
      <trkpt lat="46.32803" lon="4.77234">
        <ele>266.60000610352</ele>
        <time>2018-09-09T06:48:22.000Z</time>
      </trkpt>
      <trkpt lat="46.32793" lon="4.77227">
        <ele>265.79998779297</ele>
        <time>2018-09-09T06:48:24.000Z</time>
      </trkpt>
      <trkpt lat="46.32783" lon="4.77218">
        <ele>265</ele>
        <time>2018-09-09T06:48:26.000Z</time>
      </trkpt>
      <trkpt lat="46.32761" lon="4.77217">
        <ele>263.39999389648</ele>
        <time>2018-09-09T06:48:30.000Z</time>
      </trkpt>
      <trkpt lat="46.32742" lon="4.77213">
        <ele>262</ele>
        <time>2018-09-09T06:48:33.000Z</time>
      </trkpt>
      <trkpt lat="46.32719" lon="4.77207">
        <ele>260.20001220703</ele>
        <time>2018-09-09T06:48:36.000Z</time>
      </trkpt>
      <trkpt lat="46.32694" lon="4.77201">
        <ele>258.20001220703</ele>
        <time>2018-09-09T06:48:39.000Z</time>
      </trkpt>
      <trkpt lat="46.3267" lon="4.77199">
        <ele>256.39999389648</ele>
        <time>2018-09-09T06:48:42.000Z</time>
      </trkpt>
      <trkpt lat="46.3265" lon="4.77208">
        <ele>255.19999694824</ele>
        <time>2018-09-09T06:48:45.000Z</time>
      </trkpt>
      <trkpt lat="46.32631" lon="4.77222">
        <ele>253.80000305176</ele>
        <time>2018-09-09T06:48:48.000Z</time>
      </trkpt>
      <trkpt lat="46.32618" lon="4.77229">
        <ele>252.80000305176</ele>
        <time>2018-09-09T06:48:50.000Z</time>
      </trkpt>
      <trkpt lat="46.32597" lon="4.77233">
        <ele>251</ele>
        <time>2018-09-09T06:48:53.000Z</time>
      </trkpt>
      <trkpt lat="46.32573" lon="4.77236">
        <ele>249.39999389648</ele>
        <time>2018-09-09T06:48:56.000Z</time>
      </trkpt>
      <trkpt lat="46.32549" lon="4.77238">
        <ele>247.39999389648</ele>
        <time>2018-09-09T06:48:59.000Z</time>
      </trkpt>
      <trkpt lat="46.32528" lon="4.7724">
        <ele>245.39999389648</ele>
        <time>2018-09-09T06:49:03.000Z</time>
      </trkpt>
      <trkpt lat="46.32509" lon="4.77243">
        <ele>243.60000610352</ele>
        <time>2018-09-09T06:49:08.000Z</time>
      </trkpt>
      <trkpt lat="46.32492" lon="4.77249">
        <ele>241.80000305176</ele>
        <time>2018-09-09T06:49:11.000Z</time>
      </trkpt>
      <trkpt lat="46.32472" lon="4.77256">
        <ele>239.80000305176</ele>
        <time>2018-09-09T06:49:14.000Z</time>
      </trkpt>
      <trkpt lat="46.32459" lon="4.7726">
        <ele>238.39999389648</ele>
        <time>2018-09-09T06:49:17.000Z</time>
      </trkpt>
      <trkpt lat="46.32451" lon="4.77236">
        <ele>237.19999694824</ele>
        <time>2018-09-09T06:49:22.000Z</time>
      </trkpt>
      <trkpt lat="46.32446" lon="4.77208">
        <ele>236.39999389648</ele>
        <time>2018-09-09T06:49:26.000Z</time>
      </trkpt>
      <trkpt lat="46.32441" lon="4.77177">
        <ele>235.19999694824</ele>
        <time>2018-09-09T06:49:30.000Z</time>
      </trkpt>
      <trkpt lat="46.32437" lon="4.77146">
        <ele>233.80000305176</ele>
        <time>2018-09-09T06:49:34.000Z</time>
      </trkpt>
      <trkpt lat="46.32434" lon="4.77113">
        <ele>233.19999694824</ele>
        <time>2018-09-09T06:49:38.000Z</time>
      </trkpt>
      <trkpt lat="46.32432" lon="4.7708">
        <ele>233.19999694824</ele>
        <time>2018-09-09T06:49:42.000Z</time>
      </trkpt>
      <trkpt lat="46.3243" lon="4.77046">
        <ele>232.80000305176</ele>
        <time>2018-09-09T06:49:46.000Z</time>
      </trkpt>
      <trkpt lat="46.32428" lon="4.77014">
        <ele>233</ele>
        <time>2018-09-09T06:49:50.000Z</time>
      </trkpt>
      <trkpt lat="46.32428" lon="4.7699">
        <ele>233.19999694824</ele>
        <time>2018-09-09T06:49:53.000Z</time>
      </trkpt>
      <trkpt lat="46.32433" lon="4.76961">
        <ele>232.60000610352</ele>
        <time>2018-09-09T06:49:57.000Z</time>
      </trkpt>
      <trkpt lat="46.32439" lon="4.76935">
        <ele>231.60000610352</ele>
        <time>2018-09-09T06:50:01.000Z</time>
      </trkpt>
      <trkpt lat="46.32449" lon="4.76912">
        <ele>230.80000305176</ele>
        <time>2018-09-09T06:50:05.000Z</time>
      </trkpt>
      <trkpt lat="46.32459" lon="4.76887">
        <ele>230</ele>
        <time>2018-09-09T06:50:11.000Z</time>
      </trkpt>
      <trkpt lat="46.32463" lon="4.76858">
        <ele>228.39999389648</ele>
        <time>2018-09-09T06:50:16.000Z</time>
      </trkpt>
      <trkpt lat="46.32469" lon="4.76824">
        <ele>224.80000305176</ele>
        <time>2018-09-09T06:50:20.000Z</time>
      </trkpt>
      <trkpt lat="46.32473" lon="4.76799">
        <ele>222.19999694824</ele>
        <time>2018-09-09T06:50:23.000Z</time>
      </trkpt>
      <trkpt lat="46.32481" lon="4.76768">
        <ele>220.19999694824</ele>
        <time>2018-09-09T06:50:27.000Z</time>
      </trkpt>
      <trkpt lat="46.32485" lon="4.76738">
        <ele>219.19999694824</ele>
        <time>2018-09-09T06:50:30.000Z</time>
      </trkpt>
      <trkpt lat="46.32488" lon="4.76705">
        <ele>218.19999694824</ele>
        <time>2018-09-09T06:50:33.000Z</time>
      </trkpt>
      <trkpt lat="46.32494" lon="4.76672">
        <ele>218.39999389648</ele>
        <time>2018-09-09T06:50:36.000Z</time>
      </trkpt>
      <trkpt lat="46.32502" lon="4.76646">
        <ele>218.60000610352</ele>
        <time>2018-09-09T06:50:39.000Z</time>
      </trkpt>
      <trkpt lat="46.32513" lon="4.76617">
        <ele>219.19999694824</ele>
        <time>2018-09-09T06:50:43.000Z</time>
      </trkpt>
      <trkpt lat="46.32523" lon="4.7659">
        <ele>220</ele>
        <time>2018-09-09T06:50:47.000Z</time>
      </trkpt>
      <trkpt lat="46.3253" lon="4.76564">
        <ele>220.19999694824</ele>
        <time>2018-09-09T06:50:51.000Z</time>
      </trkpt>
      <trkpt lat="46.32544" lon="4.76546">
        <ele>220.60000610352</ele>
        <time>2018-09-09T06:50:56.000Z</time>
      </trkpt>
      <trkpt lat="46.32564" lon="4.76538">
        <ele>221</ele>
        <time>2018-09-09T06:51:02.000Z</time>
      </trkpt>
      <trkpt lat="46.32584" lon="4.76538">
        <ele>222</ele>
        <time>2018-09-09T06:51:08.000Z</time>
      </trkpt>
      <trkpt lat="46.32601" lon="4.7655">
        <ele>222.60000610352</ele>
        <time>2018-09-09T06:51:14.000Z</time>
      </trkpt>
      <trkpt lat="46.32617" lon="4.76566">
        <ele>223.19999694824</ele>
        <time>2018-09-09T06:51:20.000Z</time>
      </trkpt>
      <trkpt lat="46.32636" lon="4.7658">
        <ele>224</ele>
        <time>2018-09-09T06:51:25.000Z</time>
      </trkpt>
      <trkpt lat="46.32654" lon="4.76596">
        <ele>224.39999389648</ele>
        <time>2018-09-09T06:51:30.000Z</time>
      </trkpt>
      <trkpt lat="46.32665" lon="4.76605">
        <ele>224.60000610352</ele>
        <time>2018-09-09T06:51:33.000Z</time>
      </trkpt>
      <trkpt lat="46.32685" lon="4.76614">
        <ele>225</ele>
        <time>2018-09-09T06:51:38.000Z</time>
      </trkpt>
      <trkpt lat="46.32706" lon="4.7662">
        <ele>225.39999389648</ele>
        <time>2018-09-09T06:51:43.000Z</time>
      </trkpt>
      <trkpt lat="46.32712" lon="4.76615">
        <ele>225.60000610352</ele>
        <time>2018-09-09T06:51:45.000Z</time>
      </trkpt>
      <trkpt lat="46.32718" lon="4.76588">
        <ele>226</ele>
        <time>2018-09-09T06:51:50.000Z</time>
      </trkpt>
      <trkpt lat="46.32722" lon="4.76562">
        <ele>226.60000610352</ele>
        <time>2018-09-09T06:51:55.000Z</time>
      </trkpt>
      <trkpt lat="46.32724" lon="4.76535">
        <ele>226.80000305176</ele>
        <time>2018-09-09T06:52:00.000Z</time>
      </trkpt>
      <trkpt lat="46.32726" lon="4.76505">
        <ele>226.80000305176</ele>
        <time>2018-09-09T06:52:06.000Z</time>
      </trkpt>
      <trkpt lat="46.32729" lon="4.76478">
        <ele>227</ele>
        <time>2018-09-09T06:52:11.000Z</time>
      </trkpt>
      <trkpt lat="46.32731" lon="4.76448">
        <ele>227.19999694824</ele>
        <time>2018-09-09T06:52:16.000Z</time>
      </trkpt>
      <trkpt lat="46.32733" lon="4.76418">
        <ele>227.80000305176</ele>
        <time>2018-09-09T06:52:21.000Z</time>
      </trkpt>
      <trkpt lat="46.32734" lon="4.76388">
        <ele>228.60000610352</ele>
        <time>2018-09-09T06:52:26.000Z</time>
      </trkpt>
      <trkpt lat="46.32728" lon="4.7636">
        <ele>229.39999389648</ele>
        <time>2018-09-09T06:52:31.000Z</time>
      </trkpt>
      <trkpt lat="46.32728" lon="4.76354">
        <ele>229.60000610352</ele>
        <time>2018-09-09T06:52:32.000Z</time>
      </trkpt>
      <trkpt lat="46.32728" lon="4.76326">
        <ele>230.60000610352</ele>
        <time>2018-09-09T06:52:37.000Z</time>
      </trkpt>
      <trkpt lat="46.32729" lon="4.76299">
        <ele>231.60000610352</ele>
        <time>2018-09-09T06:52:42.000Z</time>
      </trkpt>
      <trkpt lat="46.3273" lon="4.76273">
        <ele>232</ele>
        <time>2018-09-09T06:52:47.000Z</time>
      </trkpt>
      <trkpt lat="46.32732" lon="4.76242">
        <ele>232</ele>
        <time>2018-09-09T06:52:53.000Z</time>
      </trkpt>
      <trkpt lat="46.32734" lon="4.7622">
        <ele>232</ele>
        <time>2018-09-09T06:52:57.000Z</time>
      </trkpt>
      <trkpt lat="46.32737" lon="4.76191">
        <ele>232.39999389648</ele>
        <time>2018-09-09T06:53:02.000Z</time>
      </trkpt>
      <trkpt lat="46.3274" lon="4.76163">
        <ele>233.19999694824</ele>
        <time>2018-09-09T06:53:07.000Z</time>
      </trkpt>
      <trkpt lat="46.32742" lon="4.76135">
        <ele>233.80000305176</ele>
        <time>2018-09-09T06:53:12.000Z</time>
      </trkpt>
      <trkpt lat="46.32745" lon="4.76108">
        <ele>234.39999389648</ele>
        <time>2018-09-09T06:53:17.000Z</time>
      </trkpt>
      <trkpt lat="46.32748" lon="4.7608">
        <ele>235</ele>
        <time>2018-09-09T06:53:22.000Z</time>
      </trkpt>
      <trkpt lat="46.32752" lon="4.76053">
        <ele>235.60000610352</ele>
        <time>2018-09-09T06:53:27.000Z</time>
      </trkpt>
      <trkpt lat="46.32754" lon="4.76027">
        <ele>235.60000610352</ele>
        <time>2018-09-09T06:53:32.000Z</time>
      </trkpt>
      <trkpt lat="46.32756" lon="4.76001">
        <ele>235.19999694824</ele>
        <time>2018-09-09T06:53:37.000Z</time>
      </trkpt>
      <trkpt lat="46.32759" lon="4.75974">
        <ele>235.19999694824</ele>
        <time>2018-09-09T06:53:42.000Z</time>
      </trkpt>
      <trkpt lat="46.32761" lon="4.75945">
        <ele>236</ele>
        <time>2018-09-09T06:53:47.000Z</time>
      </trkpt>
      <trkpt lat="46.32763" lon="4.75914">
        <ele>236.80000305176</ele>
        <time>2018-09-09T06:53:52.000Z</time>
      </trkpt>
      <trkpt lat="46.32764" lon="4.75895">
        <ele>237</ele>
        <time>2018-09-09T06:53:55.000Z</time>
      </trkpt>
      <trkpt lat="46.32766" lon="4.75869">
        <ele>237</ele>
        <time>2018-09-09T06:53:59.000Z</time>
      </trkpt>
      <trkpt lat="46.3277" lon="4.75837">
        <ele>236.60000610352</ele>
        <time>2018-09-09T06:54:04.000Z</time>
      </trkpt>
      <trkpt lat="46.32771" lon="4.75826">
        <ele>236.39999389648</ele>
        <time>2018-09-09T06:54:06.000Z</time>
      </trkpt>
      <trkpt lat="46.32786" lon="4.75805">
        <ele>236.19999694824</ele>
        <time>2018-09-09T06:54:11.000Z</time>
      </trkpt>
      <trkpt lat="46.32802" lon="4.75785">
        <ele>235.80000305176</ele>
        <time>2018-09-09T06:54:16.000Z</time>
      </trkpt>
      <trkpt lat="46.32813" lon="4.75776">
        <ele>235.80000305176</ele>
        <time>2018-09-09T06:54:19.000Z</time>
      </trkpt>
      <trkpt lat="46.32831" lon="4.75758">
        <ele>235.60000610352</ele>
        <time>2018-09-09T06:54:24.000Z</time>
      </trkpt>
      <trkpt lat="46.32846" lon="4.75737">
        <ele>235.60000610352</ele>
        <time>2018-09-09T06:54:29.000Z</time>
      </trkpt>
      <trkpt lat="46.32864" lon="4.75717">
        <ele>235.60000610352</ele>
        <time>2018-09-09T06:54:34.000Z</time>
      </trkpt>
      <trkpt lat="46.32879" lon="4.75702">
        <ele>235.39999389648</ele>
        <time>2018-09-09T06:54:38.000Z</time>
      </trkpt>
      <trkpt lat="46.32894" lon="4.75687">
        <ele>235</ele>
        <time>2018-09-09T06:54:42.000Z</time>
      </trkpt>
      <trkpt lat="46.32909" lon="4.7567">
        <ele>234.39999389648</ele>
        <time>2018-09-09T06:54:46.000Z</time>
      </trkpt>
      <trkpt lat="46.32924" lon="4.75651">
        <ele>233.39999389648</ele>
        <time>2018-09-09T06:54:50.000Z</time>
      </trkpt>
      <trkpt lat="46.32939" lon="4.75629">
        <ele>232.80000305176</ele>
        <time>2018-09-09T06:54:54.000Z</time>
      </trkpt>
      <trkpt lat="46.32954" lon="4.75608">
        <ele>232</ele>
        <time>2018-09-09T06:54:58.000Z</time>
      </trkpt>
      <trkpt lat="46.32971" lon="4.75586">
        <ele>230.80000305176</ele>
        <time>2018-09-09T06:55:02.000Z</time>
      </trkpt>
      <trkpt lat="46.3299" lon="4.75566">
        <ele>229.80000305176</ele>
        <time>2018-09-09T06:55:06.000Z</time>
      </trkpt>
      <trkpt lat="46.33011" lon="4.75549">
        <ele>228.60000610352</ele>
        <time>2018-09-09T06:55:10.000Z</time>
      </trkpt>
      <trkpt lat="46.33026" lon="4.75534">
        <ele>227.80000305176</ele>
        <time>2018-09-09T06:55:13.000Z</time>
      </trkpt>
      <trkpt lat="46.33045" lon="4.75519">
        <ele>227</ele>
        <time>2018-09-09T06:55:16.000Z</time>
      </trkpt>
      <trkpt lat="46.33066" lon="4.75503">
        <ele>226.80000305176</ele>
        <time>2018-09-09T06:55:19.000Z</time>
      </trkpt>
      <trkpt lat="46.33089" lon="4.75484">
        <ele>226.39999389648</ele>
        <time>2018-09-09T06:55:22.000Z</time>
      </trkpt>
      <trkpt lat="46.33104" lon="4.7547">
        <ele>226.60000610352</ele>
        <time>2018-09-09T06:55:24.000Z</time>
      </trkpt>
      <trkpt lat="46.33128" lon="4.75455">
        <ele>227.39999389648</ele>
        <time>2018-09-09T06:55:27.000Z</time>
      </trkpt>
      <trkpt lat="46.3315" lon="4.75441">
        <ele>228</ele>
        <time>2018-09-09T06:55:30.000Z</time>
      </trkpt>
      <trkpt lat="46.33172" lon="4.75429">
        <ele>228.80000305176</ele>
        <time>2018-09-09T06:55:33.000Z</time>
      </trkpt>
      <trkpt lat="46.33193" lon="4.75419">
        <ele>229.80000305176</ele>
        <time>2018-09-09T06:55:36.000Z</time>
      </trkpt>
      <trkpt lat="46.33212" lon="4.7541">
        <ele>230.60000610352</ele>
        <time>2018-09-09T06:55:39.000Z</time>
      </trkpt>
      <trkpt lat="46.33234" lon="4.75404">
        <ele>231.39999389648</ele>
        <time>2018-09-09T06:55:43.000Z</time>
      </trkpt>
      <trkpt lat="46.33253" lon="4.75403">
        <ele>231.60000610352</ele>
        <time>2018-09-09T06:55:48.000Z</time>
      </trkpt>
      <trkpt lat="46.33272" lon="4.75405">
        <ele>232</ele>
        <time>2018-09-09T06:55:54.000Z</time>
      </trkpt>
      <trkpt lat="46.3329" lon="4.75406">
        <ele>232.39999389648</ele>
        <time>2018-09-09T06:56:00.000Z</time>
      </trkpt>
      <trkpt lat="46.3331" lon="4.75406">
        <ele>232.80000305176</ele>
        <time>2018-09-09T06:56:06.000Z</time>
      </trkpt>
      <trkpt lat="46.33331" lon="4.75407">
        <ele>233.80000305176</ele>
        <time>2018-09-09T06:56:12.000Z</time>
      </trkpt>
      <trkpt lat="46.33352" lon="4.75407">
        <ele>234.80000305176</ele>
        <time>2018-09-09T06:56:18.000Z</time>
      </trkpt>
      <trkpt lat="46.33373" lon="4.75404">
        <ele>235.60000610352</ele>
        <time>2018-09-09T06:56:24.000Z</time>
      </trkpt>
      <trkpt lat="46.33389" lon="4.75387">
        <ele>235.80000305176</ele>
        <time>2018-09-09T06:56:30.000Z</time>
      </trkpt>
      <trkpt lat="46.33404" lon="4.7537">
        <ele>236.60000610352</ele>
        <time>2018-09-09T06:56:35.000Z</time>
      </trkpt>
      <trkpt lat="46.33421" lon="4.75353">
        <ele>237.80000305176</ele>
        <time>2018-09-09T06:56:40.000Z</time>
      </trkpt>
      <trkpt lat="46.33437" lon="4.75334">
        <ele>238.80000305176</ele>
        <time>2018-09-09T06:56:45.000Z</time>
      </trkpt>
      <trkpt lat="46.3345" lon="4.75313">
        <ele>239.39999389648</ele>
        <time>2018-09-09T06:56:50.000Z</time>
      </trkpt>
      <trkpt lat="46.3346" lon="4.75287">
        <ele>239.80000305176</ele>
        <time>2018-09-09T06:56:55.000Z</time>
      </trkpt>
      <trkpt lat="46.33466" lon="4.75259">
        <ele>240.80000305176</ele>
        <time>2018-09-09T06:57:00.000Z</time>
      </trkpt>
      <trkpt lat="46.33471" lon="4.7523">
        <ele>241.80000305176</ele>
        <time>2018-09-09T06:57:05.000Z</time>
      </trkpt>
      <trkpt lat="46.33478" lon="4.75203">
        <ele>242.80000305176</ele>
        <time>2018-09-09T06:57:10.000Z</time>
      </trkpt>
      <trkpt lat="46.33486" lon="4.75176">
        <ele>243.60000610352</ele>
        <time>2018-09-09T06:57:15.000Z</time>
      </trkpt>
      <trkpt lat="46.33494" lon="4.75149">
        <ele>244.39999389648</ele>
        <time>2018-09-09T06:57:20.000Z</time>
      </trkpt>
      <trkpt lat="46.33502" lon="4.75121">
        <ele>245.60000610352</ele>
        <time>2018-09-09T06:57:25.000Z</time>
      </trkpt>
      <trkpt lat="46.33507" lon="4.75098">
        <ele>246.39999389648</ele>
        <time>2018-09-09T06:57:29.000Z</time>
      </trkpt>
      <trkpt lat="46.3351" lon="4.75086">
        <ele>247</ele>
        <time>2018-09-09T06:57:31.000Z</time>
      </trkpt>
      <trkpt lat="46.33518" lon="4.75057">
        <ele>247.80000305176</ele>
        <time>2018-09-09T06:57:36.000Z</time>
      </trkpt>
      <trkpt lat="46.33526" lon="4.75028">
        <ele>248</ele>
        <time>2018-09-09T06:57:41.000Z</time>
      </trkpt>
      <trkpt lat="46.33536" lon="4.75004">
        <ele>247.80000305176</ele>
        <time>2018-09-09T06:57:46.000Z</time>
      </trkpt>
      <trkpt lat="46.33539" lon="4.75001">
        <ele>248</ele>
        <time>2018-09-09T06:57:47.000Z</time>
      </trkpt>
      <trkpt lat="46.33535" lon="4.74982">
        <ele>247.60000610352</ele>
        <time>2018-09-09T07:01:44.000Z</time>
      </trkpt>
      <trkpt lat="46.33529" lon="4.74953">
        <ele>246.80000305176</ele>
        <time>2018-09-09T07:01:49.000Z</time>
      </trkpt>
      <trkpt lat="46.33529" lon="4.74936">
        <ele>246</ele>
        <time>2018-09-09T07:01:56.000Z</time>
      </trkpt>
      <trkpt lat="46.33532" lon="4.7493">
        <ele>245.80000305176</ele>
        <time>2018-09-09T07:02:00.000Z</time>
      </trkpt>
      <trkpt lat="46.33541" lon="4.74907">
        <ele>245.39999389648</ele>
        <time>2018-09-09T07:02:06.000Z</time>
      </trkpt>
      <trkpt lat="46.33554" lon="4.74885">
        <ele>245</ele>
        <time>2018-09-09T07:02:12.000Z</time>
      </trkpt>
      <trkpt lat="46.3357" lon="4.74869">
        <ele>245.19999694824</ele>
        <time>2018-09-09T07:02:17.000Z</time>
      </trkpt>
      <trkpt lat="46.33587" lon="4.74852">
        <ele>245</ele>
        <time>2018-09-09T07:02:22.000Z</time>
      </trkpt>
      <trkpt lat="46.33602" lon="4.74836">
        <ele>244.80000305176</ele>
        <time>2018-09-09T07:02:26.000Z</time>
      </trkpt>
      <trkpt lat="46.33609" lon="4.74826">
        <ele>244.19999694824</ele>
        <time>2018-09-09T07:02:28.000Z</time>
      </trkpt>
      <trkpt lat="46.33617" lon="4.74801">
        <ele>242.19999694824</ele>
        <time>2018-09-09T07:02:32.000Z</time>
      </trkpt>
      <trkpt lat="46.33618" lon="4.74795">
        <ele>241.80000305176</ele>
        <time>2018-09-09T07:02:33.000Z</time>
      </trkpt>
      <trkpt lat="46.33619" lon="4.74789">
        <ele>241.19999694824</ele>
        <time>2018-09-09T07:02:34.000Z</time>
      </trkpt>
      <trkpt lat="46.33617" lon="4.74755">
        <ele>238.19999694824</ele>
        <time>2018-09-09T07:02:38.000Z</time>
      </trkpt>
      <trkpt lat="46.33614" lon="4.74722">
        <ele>236.39999389648</ele>
        <time>2018-09-09T07:02:41.000Z</time>
      </trkpt>
      <trkpt lat="46.3361" lon="4.74685">
        <ele>234.80000305176</ele>
        <time>2018-09-09T07:02:44.000Z</time>
      </trkpt>
      <trkpt lat="46.33607" lon="4.74647">
        <ele>233.60000610352</ele>
        <time>2018-09-09T07:02:47.000Z</time>
      </trkpt>
      <trkpt lat="46.33604" lon="4.74611">
        <ele>232.60000610352</ele>
        <time>2018-09-09T07:02:50.000Z</time>
      </trkpt>
      <trkpt lat="46.33602" lon="4.74575">
        <ele>231.60000610352</ele>
        <time>2018-09-09T07:02:53.000Z</time>
      </trkpt>
      <trkpt lat="46.33601" lon="4.74548">
        <ele>230.19999694824</ele>
        <time>2018-09-09T07:02:56.000Z</time>
      </trkpt>
      <trkpt lat="46.33601" lon="4.7454">
        <ele>229.80000305176</ele>
        <time>2018-09-09T07:02:58.000Z</time>
      </trkpt>
      <trkpt lat="46.33615" lon="4.74534">
        <ele>230.19999694824</ele>
        <time>2018-09-09T07:03:03.000Z</time>
      </trkpt>
      <trkpt lat="46.33635" lon="4.74536">
        <ele>231.39999389648</ele>
        <time>2018-09-09T07:03:08.000Z</time>
      </trkpt>
      <trkpt lat="46.33656" lon="4.74537">
        <ele>232.19999694824</ele>
        <time>2018-09-09T07:03:13.000Z</time>
      </trkpt>
      <trkpt lat="46.33676" lon="4.74537">
        <ele>232.60000610352</ele>
        <time>2018-09-09T07:03:18.000Z</time>
      </trkpt>
      <trkpt lat="46.33694" lon="4.74538">
        <ele>233.19999694824</ele>
        <time>2018-09-09T07:03:23.000Z</time>
      </trkpt>
      <trkpt lat="46.33715" lon="4.74538">
        <ele>233.60000610352</ele>
        <time>2018-09-09T07:03:29.000Z</time>
      </trkpt>
      <trkpt lat="46.3372" lon="4.74535">
        <ele>233.60000610352</ele>
        <time>2018-09-09T07:03:31.000Z</time>
      </trkpt>
      <trkpt lat="46.33726" lon="4.74516">
        <ele>232.60000610352</ele>
        <time>2018-09-09T07:03:35.000Z</time>
      </trkpt>
      <trkpt lat="46.33729" lon="4.74484">
        <ele>230.80000305176</ele>
        <time>2018-09-09T07:03:39.000Z</time>
      </trkpt>
      <trkpt lat="46.33732" lon="4.74455">
        <ele>229.19999694824</ele>
        <time>2018-09-09T07:03:42.000Z</time>
      </trkpt>
      <trkpt lat="46.33733" lon="4.74434">
        <ele>229.19999694824</ele>
        <time>2018-09-09T07:03:44.000Z</time>
      </trkpt>
      <trkpt lat="46.33727" lon="4.74401">
        <ele>228.80000305176</ele>
        <time>2018-09-09T07:03:47.000Z</time>
      </trkpt>
      <trkpt lat="46.33719" lon="4.74369">
        <ele>228.80000305176</ele>
        <time>2018-09-09T07:03:50.000Z</time>
      </trkpt>
      <trkpt lat="46.33714" lon="4.74341">
        <ele>230</ele>
        <time>2018-09-09T07:03:53.000Z</time>
      </trkpt>
      <trkpt lat="46.33708" lon="4.74315">
        <ele>231</ele>
        <time>2018-09-09T07:03:56.000Z</time>
      </trkpt>
      <trkpt lat="46.33702" lon="4.7429">
        <ele>231.80000305176</ele>
        <time>2018-09-09T07:03:59.000Z</time>
      </trkpt>
      <trkpt lat="46.33696" lon="4.74259">
        <ele>234.60000610352</ele>
        <time>2018-09-09T07:04:03.000Z</time>
      </trkpt>
      <trkpt lat="46.3369" lon="4.74235">
        <ele>237.39999389648</ele>
        <time>2018-09-09T07:04:07.000Z</time>
      </trkpt>
      <trkpt lat="46.33684" lon="4.74208">
        <ele>240.39999389648</ele>
        <time>2018-09-09T07:04:12.000Z</time>
      </trkpt>
      <trkpt lat="46.3368" lon="4.74179">
        <ele>243.19999694824</ele>
        <time>2018-09-09T07:04:19.000Z</time>
      </trkpt>
      <trkpt lat="46.33682" lon="4.74152">
        <ele>246</ele>
        <time>2018-09-09T07:04:25.000Z</time>
      </trkpt>
      <trkpt lat="46.33684" lon="4.74125">
        <ele>249.19999694824</ele>
        <time>2018-09-09T07:04:31.000Z</time>
      </trkpt>
      <trkpt lat="46.33686" lon="4.74099">
        <ele>250.80000305176</ele>
        <time>2018-09-09T07:04:37.000Z</time>
      </trkpt>
      <trkpt lat="46.33688" lon="4.74071">
        <ele>252.60000610352</ele>
        <time>2018-09-09T07:04:44.000Z</time>
      </trkpt>
      <trkpt lat="46.3369" lon="4.74044">
        <ele>255.39999389648</ele>
        <time>2018-09-09T07:04:51.000Z</time>
      </trkpt>
      <trkpt lat="46.33691" lon="4.74016">
        <ele>256.60000610352</ele>
        <time>2018-09-09T07:04:59.000Z</time>
      </trkpt>
      <trkpt lat="46.33699" lon="4.73995">
        <ele>258</ele>
        <time>2018-09-09T07:05:09.000Z</time>
      </trkpt>
      <trkpt lat="46.33699" lon="4.73986">
        <ele>258.20001220703</ele>
        <time>2018-09-09T07:05:13.000Z</time>
      </trkpt>
      <trkpt lat="46.33692" lon="4.7396">
        <ele>258.20001220703</ele>
        <time>2018-09-09T07:05:22.000Z</time>
      </trkpt>
      <trkpt lat="46.33687" lon="4.73934">
        <ele>258.79998779297</ele>
        <time>2018-09-09T07:05:30.000Z</time>
      </trkpt>
      <trkpt lat="46.33686" lon="4.73905">
        <ele>260</ele>
        <time>2018-09-09T07:05:38.000Z</time>
      </trkpt>
      <trkpt lat="46.33685" lon="4.73879">
        <ele>260.79998779297</ele>
        <time>2018-09-09T07:05:45.000Z</time>
      </trkpt>
      <trkpt lat="46.33683" lon="4.7385">
        <ele>261.60000610352</ele>
        <time>2018-09-09T07:05:52.000Z</time>
      </trkpt>
      <trkpt lat="46.3368" lon="4.73824">
        <ele>261.79998779297</ele>
        <time>2018-09-09T07:05:58.000Z</time>
      </trkpt>
      <trkpt lat="46.33677" lon="4.73794">
        <ele>262.79998779297</ele>
        <time>2018-09-09T07:06:05.000Z</time>
      </trkpt>
      <trkpt lat="46.33674" lon="4.73768">
        <ele>263.60000610352</ele>
        <time>2018-09-09T07:06:12.000Z</time>
      </trkpt>
      <trkpt lat="46.33671" lon="4.7374">
        <ele>264.20001220703</ele>
        <time>2018-09-09T07:06:19.000Z</time>
      </trkpt>
      <trkpt lat="46.33667" lon="4.73711">
        <ele>265.20001220703</ele>
        <time>2018-09-09T07:06:26.000Z</time>
      </trkpt>
      <trkpt lat="46.33665" lon="4.73684">
        <ele>265.20001220703</ele>
        <time>2018-09-09T07:06:32.000Z</time>
      </trkpt>
      <trkpt lat="46.33676" lon="4.73662">
        <ele>266.20001220703</ele>
        <time>2018-09-09T07:06:39.000Z</time>
      </trkpt>
      <trkpt lat="46.33686" lon="4.7364">
        <ele>267.79998779297</ele>
        <time>2018-09-09T07:06:47.000Z</time>
      </trkpt>
      <trkpt lat="46.33696" lon="4.73615">
        <ele>269.60000610352</ele>
        <time>2018-09-09T07:06:55.000Z</time>
      </trkpt>
      <trkpt lat="46.33712" lon="4.73597">
        <ele>271.60000610352</ele>
        <time>2018-09-09T07:07:03.000Z</time>
      </trkpt>
      <trkpt lat="46.33723" lon="4.73576">
        <ele>272.39999389648</ele>
        <time>2018-09-09T07:07:11.000Z</time>
      </trkpt>
      <trkpt lat="46.33742" lon="4.73571">
        <ele>274.60000610352</ele>
        <time>2018-09-09T07:07:20.000Z</time>
      </trkpt>
      <trkpt lat="46.33755" lon="4.73576">
        <ele>276.20001220703</ele>
        <time>2018-09-09T07:07:27.000Z</time>
      </trkpt>
      <trkpt lat="46.33763" lon="4.73577">
        <ele>277.20001220703</ele>
        <time>2018-09-09T07:07:31.000Z</time>
      </trkpt>
      <trkpt lat="46.33782" lon="4.73572">
        <ele>279.60000610352</ele>
        <time>2018-09-09T07:07:41.000Z</time>
      </trkpt>
      <trkpt lat="46.338" lon="4.73566">
        <ele>281.79998779297</ele>
        <time>2018-09-09T07:07:51.000Z</time>
      </trkpt>
      <trkpt lat="46.33819" lon="4.73567">
        <ele>284.20001220703</ele>
        <time>2018-09-09T07:08:02.000Z</time>
      </trkpt>
      <trkpt lat="46.33838" lon="4.73563">
        <ele>285.79998779297</ele>
        <time>2018-09-09T07:08:12.000Z</time>
      </trkpt>
      <trkpt lat="46.33854" lon="4.73552">
        <ele>288.20001220703</ele>
        <time>2018-09-09T07:08:22.000Z</time>
      </trkpt>
      <trkpt lat="46.33868" lon="4.73535">
        <ele>290</ele>
        <time>2018-09-09T07:08:32.000Z</time>
      </trkpt>
      <trkpt lat="46.33885" lon="4.73524">
        <ele>291</ele>
        <time>2018-09-09T07:08:42.000Z</time>
      </trkpt>
      <trkpt lat="46.33903" lon="4.73526">
        <ele>293.79998779297</ele>
        <time>2018-09-09T07:08:51.000Z</time>
      </trkpt>
      <trkpt lat="46.33922" lon="4.73526">
        <ele>296</ele>
        <time>2018-09-09T07:09:00.000Z</time>
      </trkpt>
      <trkpt lat="46.3394" lon="4.73523">
        <ele>298</ele>
        <time>2018-09-09T07:09:09.000Z</time>
      </trkpt>
      <trkpt lat="46.33959" lon="4.73521">
        <ele>300</ele>
        <time>2018-09-09T07:09:18.000Z</time>
      </trkpt>
      <trkpt lat="46.33979" lon="4.73517">
        <ele>302.39999389648</ele>
        <time>2018-09-09T07:09:27.000Z</time>
      </trkpt>
      <trkpt lat="46.33997" lon="4.73515">
        <ele>304</ele>
        <time>2018-09-09T07:09:35.000Z</time>
      </trkpt>
      <trkpt lat="46.34015" lon="4.73514">
        <ele>305.39999389648</ele>
        <time>2018-09-09T07:09:43.000Z</time>
      </trkpt>
      <trkpt lat="46.34034" lon="4.73512">
        <ele>307</ele>
        <time>2018-09-09T07:09:51.000Z</time>
      </trkpt>
      <trkpt lat="46.34052" lon="4.73507">
        <ele>308.39999389648</ele>
        <time>2018-09-09T07:09:59.000Z</time>
      </trkpt>
      <trkpt lat="46.3407" lon="4.73505">
        <ele>309.60000610352</ele>
        <time>2018-09-09T07:10:07.000Z</time>
      </trkpt>
      <trkpt lat="46.34089" lon="4.73508">
        <ele>310.39999389648</ele>
        <time>2018-09-09T07:10:15.000Z</time>
      </trkpt>
      <trkpt lat="46.34109" lon="4.7351">
        <ele>311.39999389648</ele>
        <time>2018-09-09T07:10:23.000Z</time>
      </trkpt>
      <trkpt lat="46.34127" lon="4.73499">
        <ele>311.60000610352</ele>
        <time>2018-09-09T07:10:31.000Z</time>
      </trkpt>
      <trkpt lat="46.34146" lon="4.73488">
        <ele>312.20001220703</ele>
        <time>2018-09-09T07:10:39.000Z</time>
      </trkpt>
      <trkpt lat="46.34162" lon="4.73477">
        <ele>312.79998779297</ele>
        <time>2018-09-09T07:10:46.000Z</time>
      </trkpt>
      <trkpt lat="46.34182" lon="4.73473">
        <ele>314</ele>
        <time>2018-09-09T07:10:53.000Z</time>
      </trkpt>
      <trkpt lat="46.34201" lon="4.7347">
        <ele>315</ele>
        <time>2018-09-09T07:11:00.000Z</time>
      </trkpt>
      <trkpt lat="46.34221" lon="4.7347">
        <ele>316.20001220703</ele>
        <time>2018-09-09T07:11:07.000Z</time>
      </trkpt>
      <trkpt lat="46.3424" lon="4.73478">
        <ele>317.60000610352</ele>
        <time>2018-09-09T07:11:14.000Z</time>
      </trkpt>
      <trkpt lat="46.34259" lon="4.73474">
        <ele>317.79998779297</ele>
        <time>2018-09-09T07:11:20.000Z</time>
      </trkpt>
      <trkpt lat="46.34277" lon="4.73485">
        <ele>318.60000610352</ele>
        <time>2018-09-09T07:11:26.000Z</time>
      </trkpt>
      <trkpt lat="46.34292" lon="4.73492">
        <ele>319.20001220703</ele>
        <time>2018-09-09T07:11:32.000Z</time>
      </trkpt>
      <trkpt lat="46.34311" lon="4.73485">
        <ele>318.60000610352</ele>
        <time>2018-09-09T07:11:39.000Z</time>
      </trkpt>
      <trkpt lat="46.34333" lon="4.73478">
        <ele>318</ele>
        <time>2018-09-09T07:11:46.000Z</time>
      </trkpt>
      <trkpt lat="46.34354" lon="4.73469">
        <ele>317.20001220703</ele>
        <time>2018-09-09T07:11:50.000Z</time>
      </trkpt>
      <trkpt lat="46.34364" lon="4.73461">
        <ele>316.60000610352</ele>
        <time>2018-09-09T07:11:52.000Z</time>
      </trkpt>
      <trkpt lat="46.34378" lon="4.73441">
        <ele>315</ele>
        <time>2018-09-09T07:11:56.000Z</time>
      </trkpt>
      <trkpt lat="46.34383" lon="4.7342">
        <ele>314.20001220703</ele>
        <time>2018-09-09T07:11:59.000Z</time>
      </trkpt>
      <trkpt lat="46.34388" lon="4.73394">
        <ele>313.39999389648</ele>
        <time>2018-09-09T07:12:02.000Z</time>
      </trkpt>
      <trkpt lat="46.34392" lon="4.73361">
        <ele>312.39999389648</ele>
        <time>2018-09-09T07:12:05.000Z</time>
      </trkpt>
      <trkpt lat="46.34393" lon="4.73324">
        <ele>311</ele>
        <time>2018-09-09T07:12:08.000Z</time>
      </trkpt>
      <trkpt lat="46.3439" lon="4.73286">
        <ele>309.60000610352</ele>
        <time>2018-09-09T07:12:11.000Z</time>
      </trkpt>
      <trkpt lat="46.3439" lon="4.73274">
        <ele>309.20001220703</ele>
        <time>2018-09-09T07:12:12.000Z</time>
      </trkpt>
      <trkpt lat="46.34396" lon="4.73247">
        <ele>308</ele>
        <time>2018-09-09T07:12:15.000Z</time>
      </trkpt>
      <trkpt lat="46.34402" lon="4.73222">
        <ele>307.60000610352</ele>
        <time>2018-09-09T07:12:19.000Z</time>
      </trkpt>
      <trkpt lat="46.34407" lon="4.73197">
        <ele>307.20001220703</ele>
        <time>2018-09-09T07:12:24.000Z</time>
      </trkpt>
      <trkpt lat="46.34412" lon="4.73169">
        <ele>307.39999389648</ele>
        <time>2018-09-09T07:12:30.000Z</time>
      </trkpt>
      <trkpt lat="46.34415" lon="4.73143">
        <ele>307.39999389648</ele>
        <time>2018-09-09T07:12:36.000Z</time>
      </trkpt>
      <trkpt lat="46.34417" lon="4.73117">
        <ele>305.39999389648</ele>
        <time>2018-09-09T07:12:42.000Z</time>
      </trkpt>
      <trkpt lat="46.34418" lon="4.73099">
        <ele>303.79998779297</ele>
        <time>2018-09-09T07:12:45.000Z</time>
      </trkpt>
      <trkpt lat="46.34415" lon="4.73077">
        <ele>301.79998779297</ele>
        <time>2018-09-09T07:12:48.000Z</time>
      </trkpt>
      <trkpt lat="46.34407" lon="4.73046">
        <ele>298.39999389648</ele>
        <time>2018-09-09T07:12:52.000Z</time>
      </trkpt>
      <trkpt lat="46.34401" lon="4.73015">
        <ele>294.20001220703</ele>
        <time>2018-09-09T07:12:56.000Z</time>
      </trkpt>
      <trkpt lat="46.34397" lon="4.73001">
        <ele>292.20001220703</ele>
        <time>2018-09-09T07:12:58.000Z</time>
      </trkpt>
      <trkpt lat="46.34393" lon="4.7297">
        <ele>287.60000610352</ele>
        <time>2018-09-09T07:13:02.000Z</time>
      </trkpt>
      <trkpt lat="46.34392" lon="4.72962">
        <ele>286.60000610352</ele>
        <time>2018-09-09T07:13:03.000Z</time>
      </trkpt>
      <trkpt lat="46.34397" lon="4.72936">
        <ele>282.39999389648</ele>
        <time>2018-09-09T07:13:06.000Z</time>
      </trkpt>
      <trkpt lat="46.344" lon="4.72929">
        <ele>281</ele>
        <time>2018-09-09T07:13:07.000Z</time>
      </trkpt>
      <trkpt lat="46.34402" lon="4.72923">
        <ele>279.60000610352</ele>
        <time>2018-09-09T07:13:08.000Z</time>
      </trkpt>
      <trkpt lat="46.34419" lon="4.72915">
        <ele>277.39999389648</ele>
        <time>2018-09-09T07:13:12.000Z</time>
      </trkpt>
      <trkpt lat="46.34431" lon="4.72917">
        <ele>277.60000610352</ele>
        <time>2018-09-09T07:13:14.000Z</time>
      </trkpt>
      <trkpt lat="46.34452" lon="4.72925">
        <ele>278.79998779297</ele>
        <time>2018-09-09T07:13:17.000Z</time>
      </trkpt>
      <trkpt lat="46.34473" lon="4.72939">
        <ele>281.60000610352</ele>
        <time>2018-09-09T07:13:20.000Z</time>
      </trkpt>
      <trkpt lat="46.34485" lon="4.72947">
        <ele>283.60000610352</ele>
        <time>2018-09-09T07:13:22.000Z</time>
      </trkpt>
      <trkpt lat="46.34502" lon="4.72957">
        <ele>287.39999389648</ele>
        <time>2018-09-09T07:13:33.000Z</time>
      </trkpt>
      <trkpt lat="46.34509" lon="4.72962">
        <ele>289</ele>
        <time>2018-09-09T07:13:38.000Z</time>
      </trkpt>
      <trkpt lat="46.34515" lon="4.72966">
        <ele>290.60000610352</ele>
        <time>2018-09-09T07:13:44.000Z</time>
      </trkpt>
      <trkpt lat="46.34542" lon="4.72968">
        <ele>294.20001220703</ele>
        <time>2018-09-09T07:14:00.000Z</time>
      </trkpt>
      <trkpt lat="46.34558" lon="4.72961">
        <ele>294.79998779297</ele>
        <time>2018-09-09T07:14:08.000Z</time>
      </trkpt>
      <trkpt lat="46.34577" lon="4.72951">
        <ele>296</ele>
        <time>2018-09-09T07:14:14.000Z</time>
      </trkpt>
      <trkpt lat="46.34596" lon="4.72942">
        <ele>298.20001220703</ele>
        <time>2018-09-09T07:14:21.000Z</time>
      </trkpt>
      <trkpt lat="46.34613" lon="4.72931">
        <ele>299.79998779297</ele>
        <time>2018-09-09T07:14:28.000Z</time>
      </trkpt>
      <trkpt lat="46.34628" lon="4.72918">
        <ele>299.60000610352</ele>
        <time>2018-09-09T07:14:34.000Z</time>
      </trkpt>
      <trkpt lat="46.34645" lon="4.72903">
        <ele>298.39999389648</ele>
        <time>2018-09-09T07:14:40.000Z</time>
      </trkpt>
      <trkpt lat="46.34662" lon="4.72886">
        <ele>297.60000610352</ele>
        <time>2018-09-09T07:14:46.000Z</time>
      </trkpt>
      <trkpt lat="46.34678" lon="4.72872">
        <ele>296</ele>
        <time>2018-09-09T07:14:51.000Z</time>
      </trkpt>
      <trkpt lat="46.34696" lon="4.72857">
        <ele>296.20001220703</ele>
        <time>2018-09-09T07:14:56.000Z</time>
      </trkpt>
      <trkpt lat="46.34713" lon="4.72843">
        <ele>296</ele>
        <time>2018-09-09T07:15:01.000Z</time>
      </trkpt>
      <trkpt lat="46.34732" lon="4.72827">
        <ele>294.79998779297</ele>
        <time>2018-09-09T07:15:06.000Z</time>
      </trkpt>
      <trkpt lat="46.3475" lon="4.72813">
        <ele>293.79998779297</ele>
        <time>2018-09-09T07:15:11.000Z</time>
      </trkpt>
      <trkpt lat="46.34764" lon="4.72794">
        <ele>291</ele>
        <time>2018-09-09T07:15:20.000Z</time>
      </trkpt>
      <trkpt lat="46.34766" lon="4.72787">
        <ele>289.60000610352</ele>
        <time>2018-09-09T07:15:26.000Z</time>
      </trkpt>
      <trkpt lat="46.34762" lon="4.72807">
        <ele>293.20001220703</ele>
        <time>2018-09-09T07:15:37.000Z</time>
      </trkpt>
      <trkpt lat="46.34763" lon="4.7282">
        <ele>295.79998779297</ele>
        <time>2018-09-09T07:15:43.000Z</time>
      </trkpt>
      <trkpt lat="46.34766" lon="4.72846">
        <ele>300.39999389648</ele>
        <time>2018-09-09T07:15:56.000Z</time>
      </trkpt>
      <trkpt lat="46.34775" lon="4.72868">
        <ele>304.79998779297</ele>
        <time>2018-09-09T07:16:09.000Z</time>
      </trkpt>
      <trkpt lat="46.34777" lon="4.72869">
        <ele>305.20001220703</ele>
        <time>2018-09-09T07:16:11.000Z</time>
      </trkpt>
      <trkpt lat="46.34793" lon="4.72867">
        <ele>305.79998779297</ele>
        <time>2018-09-09T07:16:22.000Z</time>
      </trkpt>
      <trkpt lat="46.34796" lon="4.72866">
        <ele>306</ele>
        <time>2018-09-09T07:16:24.000Z</time>
      </trkpt>
      <trkpt lat="46.34815" lon="4.72862">
        <ele>306.39999389648</ele>
        <time>2018-09-09T07:16:37.000Z</time>
      </trkpt>
      <trkpt lat="46.34834" lon="4.72868">
        <ele>308.20001220703</ele>
        <time>2018-09-09T07:16:49.000Z</time>
      </trkpt>
      <trkpt lat="46.34849" lon="4.72881">
        <ele>312.60000610352</ele>
        <time>2018-09-09T07:17:01.000Z</time>
      </trkpt>
      <trkpt lat="46.34866" lon="4.72892">
        <ele>316.79998779297</ele>
        <time>2018-09-09T07:17:16.000Z</time>
      </trkpt>
      <trkpt lat="46.34884" lon="4.72899">
        <ele>319.79998779297</ele>
        <time>2018-09-09T07:17:30.000Z</time>
      </trkpt>
      <trkpt lat="46.34901" lon="4.72911">
        <ele>324.20001220703</ele>
        <time>2018-09-09T07:17:43.000Z</time>
      </trkpt>
      <trkpt lat="46.34918" lon="4.7292">
        <ele>327.39999389648</ele>
        <time>2018-09-09T07:17:56.000Z</time>
      </trkpt>
      <trkpt lat="46.34936" lon="4.72929">
        <ele>331</ele>
        <time>2018-09-09T07:18:10.000Z</time>
      </trkpt>
      <trkpt lat="46.34954" lon="4.72933">
        <ele>332.60000610352</ele>
        <time>2018-09-09T07:18:22.000Z</time>
      </trkpt>
      <trkpt lat="46.34971" lon="4.72942">
        <ele>335.79998779297</ele>
        <time>2018-09-09T07:18:34.000Z</time>
      </trkpt>
      <trkpt lat="46.34989" lon="4.72954">
        <ele>340</ele>
        <time>2018-09-09T07:18:46.000Z</time>
      </trkpt>
      <trkpt lat="46.35006" lon="4.72966">
        <ele>343.20001220703</ele>
        <time>2018-09-09T07:18:58.000Z</time>
      </trkpt>
      <trkpt lat="46.35008" lon="4.7297">
        <ele>343.79998779297</ele>
        <time>2018-09-09T07:19:00.000Z</time>
      </trkpt>
      <trkpt lat="46.35016" lon="4.72979">
        <ele>345.79998779297</ele>
        <time>2018-09-09T07:19:08.000Z</time>
      </trkpt>
      <trkpt lat="46.35023" lon="4.72986">
        <ele>347.39999389648</ele>
        <time>2018-09-09T07:19:14.000Z</time>
      </trkpt>
      <trkpt lat="46.35035" lon="4.73005">
        <ele>351.79998779297</ele>
        <time>2018-09-09T07:19:25.000Z</time>
      </trkpt>
      <trkpt lat="46.35049" lon="4.73022">
        <ele>355.60000610352</ele>
        <time>2018-09-09T07:19:36.000Z</time>
      </trkpt>
      <trkpt lat="46.35064" lon="4.73037">
        <ele>359</ele>
        <time>2018-09-09T07:19:49.000Z</time>
      </trkpt>
      <trkpt lat="46.3508" lon="4.73049">
        <ele>360</ele>
        <time>2018-09-09T07:20:02.000Z</time>
      </trkpt>
      <trkpt lat="46.35095" lon="4.73066">
        <ele>362</ele>
        <time>2018-09-09T07:20:16.000Z</time>
      </trkpt>
      <trkpt lat="46.35106" lon="4.73088">
        <ele>365.39999389648</ele>
        <time>2018-09-09T07:20:30.000Z</time>
      </trkpt>
      <trkpt lat="46.3512" lon="4.73105">
        <ele>367.60000610352</ele>
        <time>2018-09-09T07:20:41.000Z</time>
      </trkpt>
      <trkpt lat="46.35132" lon="4.73128">
        <ele>370.39999389648</ele>
        <time>2018-09-09T07:20:54.000Z</time>
      </trkpt>
      <trkpt lat="46.35141" lon="4.73151">
        <ele>372</ele>
        <time>2018-09-09T07:21:06.000Z</time>
      </trkpt>
      <trkpt lat="46.35152" lon="4.73175">
        <ele>373</ele>
        <time>2018-09-09T07:21:18.000Z</time>
      </trkpt>
      <trkpt lat="46.35162" lon="4.73197">
        <ele>373.20001220703</ele>
        <time>2018-09-09T07:21:29.000Z</time>
      </trkpt>
      <trkpt lat="46.35173" lon="4.73221">
        <ele>373</ele>
        <time>2018-09-09T07:21:39.000Z</time>
      </trkpt>
      <trkpt lat="46.35182" lon="4.73246">
        <ele>373.20001220703</ele>
        <time>2018-09-09T07:21:49.000Z</time>
      </trkpt>
      <trkpt lat="46.35189" lon="4.73272">
        <ele>374.20001220703</ele>
        <time>2018-09-09T07:21:59.000Z</time>
      </trkpt>
      <trkpt lat="46.35194" lon="4.73298">
        <ele>375.60000610352</ele>
        <time>2018-09-09T07:22:09.000Z</time>
      </trkpt>
      <trkpt lat="46.352" lon="4.73324">
        <ele>377.39999389648</ele>
        <time>2018-09-09T07:22:18.000Z</time>
      </trkpt>
      <trkpt lat="46.35205" lon="4.7335">
        <ele>379</ele>
        <time>2018-09-09T07:22:28.000Z</time>
      </trkpt>
      <trkpt lat="46.35201" lon="4.73359">
        <ele>380</ele>
        <time>2018-09-09T07:22:33.000Z</time>
      </trkpt>
      <trkpt lat="46.35193" lon="4.7336">
        <ele>381</ele>
        <time>2018-09-09T07:22:39.000Z</time>
      </trkpt>
      <trkpt lat="46.35181" lon="4.73362">
        <ele>383</ele>
        <time>2018-09-09T07:22:48.000Z</time>
      </trkpt>
      <trkpt lat="46.35164" lon="4.73365">
        <ele>385.39999389648</ele>
        <time>2018-09-09T07:23:00.000Z</time>
      </trkpt>
      <trkpt lat="46.35146" lon="4.7336">
        <ele>387.79998779297</ele>
        <time>2018-09-09T07:23:12.000Z</time>
      </trkpt>
      <trkpt lat="46.35128" lon="4.73365">
        <ele>390.39999389648</ele>
        <time>2018-09-09T07:23:24.000Z</time>
      </trkpt>
      <trkpt lat="46.3511" lon="4.73369">
        <ele>392.79998779297</ele>
        <time>2018-09-09T07:23:36.000Z</time>
      </trkpt>
      <trkpt lat="46.35093" lon="4.73375">
        <ele>395.39999389648</ele>
        <time>2018-09-09T07:23:47.000Z</time>
      </trkpt>
      <trkpt lat="46.35074" lon="4.73376">
        <ele>398</ele>
        <time>2018-09-09T07:24:00.000Z</time>
      </trkpt>
      <trkpt lat="46.35054" lon="4.73372">
        <ele>400.20001220703</ele>
        <time>2018-09-09T07:24:12.000Z</time>
      </trkpt>
      <trkpt lat="46.35036" lon="4.73366">
        <ele>402.20001220703</ele>
        <time>2018-09-09T07:24:24.000Z</time>
      </trkpt>
      <trkpt lat="46.35022" lon="4.73348">
        <ele>403.20001220703</ele>
        <time>2018-09-09T07:24:36.000Z</time>
      </trkpt>
      <trkpt lat="46.35012" lon="4.73326">
        <ele>403.79998779297</ele>
        <time>2018-09-09T07:24:47.000Z</time>
      </trkpt>
      <trkpt lat="46.35011" lon="4.73298">
        <ele>402.79998779297</ele>
        <time>2018-09-09T07:24:55.000Z</time>
      </trkpt>
      <trkpt lat="46.35003" lon="4.73272">
        <ele>402.39999389648</ele>
        <time>2018-09-09T07:25:02.000Z</time>
      </trkpt>
      <trkpt lat="46.34992" lon="4.73249">
        <ele>402.39999389648</ele>
        <time>2018-09-09T07:25:09.000Z</time>
      </trkpt>
      <trkpt lat="46.34972" lon="4.73245">
        <ele>404.20001220703</ele>
        <time>2018-09-09T07:25:17.000Z</time>
      </trkpt>
      <trkpt lat="46.34953" lon="4.73247">
        <ele>406.20001220703</ele>
        <time>2018-09-09T07:25:27.000Z</time>
      </trkpt>
      <trkpt lat="46.34935" lon="4.73257">
        <ele>409.60000610352</ele>
        <time>2018-09-09T07:25:38.000Z</time>
      </trkpt>
      <trkpt lat="46.34931" lon="4.73259">
        <ele>410.39999389648</ele>
        <time>2018-09-09T07:25:40.000Z</time>
      </trkpt>
      <trkpt lat="46.34912" lon="4.73259">
        <ele>413.39999389648</ele>
        <time>2018-09-09T07:25:50.000Z</time>
      </trkpt>
      <trkpt lat="46.34894" lon="4.73249">
        <ele>414.20001220703</ele>
        <time>2018-09-09T07:25:59.000Z</time>
      </trkpt>
      <trkpt lat="46.34877" lon="4.73237">
        <ele>412.20001220703</ele>
        <time>2018-09-09T07:26:08.000Z</time>
      </trkpt>
      <trkpt lat="46.34859" lon="4.73238">
        <ele>411.79998779297</ele>
        <time>2018-09-09T07:26:19.000Z</time>
      </trkpt>
      <trkpt lat="46.34855" lon="4.73264">
        <ele>415.60000610352</ele>
        <time>2018-09-09T07:26:28.000Z</time>
      </trkpt>
      <trkpt lat="46.34859" lon="4.73291">
        <ele>419.60000610352</ele>
        <time>2018-09-09T07:26:39.000Z</time>
      </trkpt>
      <trkpt lat="46.34862" lon="4.73317">
        <ele>419.79998779297</ele>
        <time>2018-09-09T07:26:49.000Z</time>
      </trkpt>
      <trkpt lat="46.34858" lon="4.73345">
        <ele>420.60000610352</ele>
        <time>2018-09-09T07:26:56.000Z</time>
      </trkpt>
      <trkpt lat="46.34848" lon="4.73368">
        <ele>422.20001220703</ele>
        <time>2018-09-09T07:27:02.000Z</time>
      </trkpt>
      <trkpt lat="46.3485" lon="4.73397">
        <ele>422.60000610352</ele>
        <time>2018-09-09T07:27:09.000Z</time>
      </trkpt>
      <trkpt lat="46.34849" lon="4.73426">
        <ele>421.79998779297</ele>
        <time>2018-09-09T07:27:16.000Z</time>
      </trkpt>
      <trkpt lat="46.34835" lon="4.7344">
        <ele>421</ele>
        <time>2018-09-09T07:27:23.000Z</time>
      </trkpt>
      <trkpt lat="46.34824" lon="4.73462">
        <ele>419.79998779297</ele>
        <time>2018-09-09T07:27:30.000Z</time>
      </trkpt>
      <trkpt lat="46.34821" lon="4.73492">
        <ele>417.60000610352</ele>
        <time>2018-09-09T07:27:35.000Z</time>
      </trkpt>
      <trkpt lat="46.3482" lon="4.73526">
        <ele>415</ele>
        <time>2018-09-09T07:27:39.000Z</time>
      </trkpt>
      <trkpt lat="46.34818" lon="4.73561">
        <ele>412.39999389648</ele>
        <time>2018-09-09T07:27:43.000Z</time>
      </trkpt>
      <trkpt lat="46.34818" lon="4.73588">
        <ele>410.79998779297</ele>
        <time>2018-09-09T07:27:46.000Z</time>
      </trkpt>
      <trkpt lat="46.34819" lon="4.73596">
        <ele>410.39999389648</ele>
        <time>2018-09-09T07:27:47.000Z</time>
      </trkpt>
      <trkpt lat="46.34824" lon="4.73622">
        <ele>408.60000610352</ele>
        <time>2018-09-09T07:27:50.000Z</time>
      </trkpt>
      <trkpt lat="46.34825" lon="4.73647">
        <ele>405.79998779297</ele>
        <time>2018-09-09T07:27:54.000Z</time>
      </trkpt>
      <trkpt lat="46.34826" lon="4.73667">
        <ele>403.20001220703</ele>
        <time>2018-09-09T07:27:57.000Z</time>
      </trkpt>
      <trkpt lat="46.3483" lon="4.73686">
        <ele>400.79998779297</ele>
        <time>2018-09-09T07:27:59.000Z</time>
      </trkpt>
      <trkpt lat="46.34838" lon="4.7371">
        <ele>397.79998779297</ele>
        <time>2018-09-09T07:28:03.000Z</time>
      </trkpt>
      <trkpt lat="46.34838" lon="4.73721">
        <ele>396.20001220703</ele>
        <time>2018-09-09T07:28:05.000Z</time>
      </trkpt>
      <trkpt lat="46.34838" lon="4.73729">
        <ele>395.39999389648</ele>
        <time>2018-09-09T07:28:06.000Z</time>
      </trkpt>
      <trkpt lat="46.34834" lon="4.73756">
        <ele>392</ele>
        <time>2018-09-09T07:28:09.000Z</time>
      </trkpt>
      <trkpt lat="46.34828" lon="4.73772">
        <ele>390</ele>
        <time>2018-09-09T07:28:11.000Z</time>
      </trkpt>
      <trkpt lat="46.34825" lon="4.73778">
        <ele>389.20001220703</ele>
        <time>2018-09-09T07:28:12.000Z</time>
      </trkpt>
      <trkpt lat="46.3482" lon="4.73791">
        <ele>387.60000610352</ele>
        <time>2018-09-09T07:28:15.000Z</time>
      </trkpt>
      <trkpt lat="46.34834" lon="4.73811">
        <ele>385.39999389648</ele>
        <time>2018-09-09T07:28:21.000Z</time>
      </trkpt>
      <trkpt lat="46.34836" lon="4.73814">
        <ele>385</ele>
        <time>2018-09-09T07:28:22.000Z</time>
      </trkpt>
      <trkpt lat="46.34854" lon="4.73824">
        <ele>384</ele>
        <time>2018-09-09T07:28:32.000Z</time>
      </trkpt>
      <trkpt lat="46.34873" lon="4.73828">
        <ele>383.79998779297</ele>
        <time>2018-09-09T07:28:39.000Z</time>
      </trkpt>
      <trkpt lat="46.34894" lon="4.73825">
        <ele>384.39999389648</ele>
        <time>2018-09-09T07:28:46.000Z</time>
      </trkpt>
      <trkpt lat="46.34914" lon="4.73821">
        <ele>383.60000610352</ele>
        <time>2018-09-09T07:28:52.000Z</time>
      </trkpt>
      <trkpt lat="46.34931" lon="4.73815">
        <ele>382.79998779297</ele>
        <time>2018-09-09T07:28:57.000Z</time>
      </trkpt>
      <trkpt lat="46.34947" lon="4.73807">
        <ele>382.79998779297</ele>
        <time>2018-09-09T07:29:01.000Z</time>
      </trkpt>
      <trkpt lat="46.34963" lon="4.73792">
        <ele>383.79998779297</ele>
        <time>2018-09-09T07:29:05.000Z</time>
      </trkpt>
      <trkpt lat="46.34967" lon="4.73787">
        <ele>384</ele>
        <time>2018-09-09T07:29:06.000Z</time>
      </trkpt>
      <trkpt lat="46.34982" lon="4.73767">
        <ele>385.20001220703</ele>
        <time>2018-09-09T07:29:10.000Z</time>
      </trkpt>
      <trkpt lat="46.34997" lon="4.73749">
        <ele>385.20001220703</ele>
        <time>2018-09-09T07:29:14.000Z</time>
      </trkpt>
      <trkpt lat="46.35013" lon="4.73738">
        <ele>383.79998779297</ele>
        <time>2018-09-09T07:29:18.000Z</time>
      </trkpt>
      <trkpt lat="46.35034" lon="4.73729">
        <ele>382.79998779297</ele>
        <time>2018-09-09T07:29:23.000Z</time>
      </trkpt>
      <trkpt lat="46.35054" lon="4.73726">
        <ele>380.79998779297</ele>
        <time>2018-09-09T07:29:28.000Z</time>
      </trkpt>
      <trkpt lat="46.35073" lon="4.73725">
        <ele>379.60000610352</ele>
        <time>2018-09-09T07:29:34.000Z</time>
      </trkpt>
      <trkpt lat="46.35092" lon="4.73726">
        <ele>378.79998779297</ele>
        <time>2018-09-09T07:29:38.000Z</time>
      </trkpt>
      <trkpt lat="46.35108" lon="4.73728">
        <ele>378</ele>
        <time>2018-09-09T07:29:41.000Z</time>
      </trkpt>
      <trkpt lat="46.35125" lon="4.73731">
        <ele>376.79998779297</ele>
        <time>2018-09-09T07:29:44.000Z</time>
      </trkpt>
      <trkpt lat="46.35147" lon="4.73732">
        <ele>376</ele>
        <time>2018-09-09T07:29:47.000Z</time>
      </trkpt>
      <trkpt lat="46.3517" lon="4.73738">
        <ele>375.60000610352</ele>
        <time>2018-09-09T07:29:50.000Z</time>
      </trkpt>
      <trkpt lat="46.35191" lon="4.73748">
        <ele>374.60000610352</ele>
        <time>2018-09-09T07:29:53.000Z</time>
      </trkpt>
      <trkpt lat="46.35205" lon="4.73756">
        <ele>374</ele>
        <time>2018-09-09T07:29:55.000Z</time>
      </trkpt>
      <trkpt lat="46.35217" lon="4.73764">
        <ele>373</ele>
        <time>2018-09-09T07:29:57.000Z</time>
      </trkpt>
      <trkpt lat="46.35235" lon="4.73779">
        <ele>371.39999389648</ele>
        <time>2018-09-09T07:30:00.000Z</time>
      </trkpt>
      <trkpt lat="46.35252" lon="4.73794">
        <ele>370.20001220703</ele>
        <time>2018-09-09T07:30:03.000Z</time>
      </trkpt>
      <trkpt lat="46.35269" lon="4.73809">
        <ele>369.60000610352</ele>
        <time>2018-09-09T07:30:06.000Z</time>
      </trkpt>
      <trkpt lat="46.35284" lon="4.73824">
        <ele>369</ele>
        <time>2018-09-09T07:30:09.000Z</time>
      </trkpt>
      <trkpt lat="46.35293" lon="4.73835">
        <ele>368.60000610352</ele>
        <time>2018-09-09T07:30:11.000Z</time>
      </trkpt>
      <trkpt lat="46.35305" lon="4.73855">
        <ele>367.60000610352</ele>
        <time>2018-09-09T07:30:14.000Z</time>
      </trkpt>
      <trkpt lat="46.35316" lon="4.73877">
        <ele>366.79998779297</ele>
        <time>2018-09-09T07:30:17.000Z</time>
      </trkpt>
      <trkpt lat="46.35329" lon="4.73903">
        <ele>366.20001220703</ele>
        <time>2018-09-09T07:30:21.000Z</time>
      </trkpt>
      <trkpt lat="46.35341" lon="4.73927">
        <ele>365.79998779297</ele>
        <time>2018-09-09T07:30:25.000Z</time>
      </trkpt>
      <trkpt lat="46.35356" lon="4.73946">
        <ele>366</ele>
        <time>2018-09-09T07:30:29.000Z</time>
      </trkpt>
      <trkpt lat="46.35369" lon="4.73965">
        <ele>366.60000610352</ele>
        <time>2018-09-09T07:30:33.000Z</time>
      </trkpt>
      <trkpt lat="46.35384" lon="4.73987">
        <ele>367.39999389648</ele>
        <time>2018-09-09T07:30:38.000Z</time>
      </trkpt>
      <trkpt lat="46.35397" lon="4.74009">
        <ele>368</ele>
        <time>2018-09-09T07:30:43.000Z</time>
      </trkpt>
      <trkpt lat="46.3541" lon="4.74034">
        <ele>367.20001220703</ele>
        <time>2018-09-09T07:30:48.000Z</time>
      </trkpt>
      <trkpt lat="46.35422" lon="4.74055">
        <ele>366.20001220703</ele>
        <time>2018-09-09T07:30:52.000Z</time>
      </trkpt>
      <trkpt lat="46.35435" lon="4.74078">
        <ele>365</ele>
        <time>2018-09-09T07:30:56.000Z</time>
      </trkpt>
      <trkpt lat="46.3544" lon="4.7409">
        <ele>364.39999389648</ele>
        <time>2018-09-09T07:30:58.000Z</time>
      </trkpt>
      <trkpt lat="46.35449" lon="4.74116">
        <ele>362.79998779297</ele>
        <time>2018-09-09T07:31:02.000Z</time>
      </trkpt>
      <trkpt lat="46.35462" lon="4.7414">
        <ele>361.39999389648</ele>
        <time>2018-09-09T07:31:07.000Z</time>
      </trkpt>
      <trkpt lat="46.35481" lon="4.74145">
        <ele>361.20001220703</ele>
        <time>2018-09-09T07:31:13.000Z</time>
      </trkpt>
      <trkpt lat="46.35495" lon="4.74127">
        <ele>361</ele>
        <time>2018-09-09T07:31:18.000Z</time>
      </trkpt>
      <trkpt lat="46.35509" lon="4.7411">
        <ele>359.79998779297</ele>
        <time>2018-09-09T07:31:23.000Z</time>
      </trkpt>
      <trkpt lat="46.35524" lon="4.74092">
        <ele>358.79998779297</ele>
        <time>2018-09-09T07:31:28.000Z</time>
      </trkpt>
      <trkpt lat="46.3554" lon="4.74071">
        <ele>358.20001220703</ele>
        <time>2018-09-09T07:31:33.000Z</time>
      </trkpt>
      <trkpt lat="46.35556" lon="4.74047">
        <ele>358.20001220703</ele>
        <time>2018-09-09T07:31:38.000Z</time>
      </trkpt>
      <trkpt lat="46.35559" lon="4.74042">
        <ele>358.20001220703</ele>
        <time>2018-09-09T07:31:39.000Z</time>
      </trkpt>
      <trkpt lat="46.35573" lon="4.74018">
        <ele>356</ele>
        <time>2018-09-09T07:31:43.000Z</time>
      </trkpt>
      <trkpt lat="46.35583" lon="4.73996">
        <ele>353.60000610352</ele>
        <time>2018-09-09T07:31:46.000Z</time>
      </trkpt>
      <trkpt lat="46.35594" lon="4.73974">
        <ele>351.79998779297</ele>
        <time>2018-09-09T07:31:49.000Z</time>
      </trkpt>
      <trkpt lat="46.35608" lon="4.73948">
        <ele>351.20001220703</ele>
        <time>2018-09-09T07:31:53.000Z</time>
      </trkpt>
      <trkpt lat="46.35615" lon="4.73923">
        <ele>350.20001220703</ele>
        <time>2018-09-09T07:31:57.000Z</time>
      </trkpt>
      <trkpt lat="46.3562" lon="4.73898">
        <ele>350.60000610352</ele>
        <time>2018-09-09T07:32:02.000Z</time>
      </trkpt>
      <trkpt lat="46.35627" lon="4.73872">
        <ele>351</ele>
        <time>2018-09-09T07:32:06.000Z</time>
      </trkpt>
      <trkpt lat="46.35634" lon="4.73853">
        <ele>349.79998779297</ele>
        <time>2018-09-09T07:32:09.000Z</time>
      </trkpt>
      <trkpt lat="46.35646" lon="4.73833">
        <ele>347.79998779297</ele>
        <time>2018-09-09T07:32:12.000Z</time>
      </trkpt>
      <trkpt lat="46.35655" lon="4.7382">
        <ele>347.39999389648</ele>
        <time>2018-09-09T07:32:14.000Z</time>
      </trkpt>
      <trkpt lat="46.35672" lon="4.73806">
        <ele>347.39999389648</ele>
        <time>2018-09-09T07:32:17.000Z</time>
      </trkpt>
      <trkpt lat="46.35693" lon="4.73804">
        <ele>347.79998779297</ele>
        <time>2018-09-09T07:32:21.000Z</time>
      </trkpt>
      <trkpt lat="46.35699" lon="4.73805">
        <ele>348</ele>
        <time>2018-09-09T07:32:22.000Z</time>
      </trkpt>
      <trkpt lat="46.35714" lon="4.73808">
        <ele>348.39999389648</ele>
        <time>2018-09-09T07:32:25.000Z</time>
      </trkpt>
      <trkpt lat="46.35727" lon="4.73829">
        <ele>348.39999389648</ele>
        <time>2018-09-09T07:32:29.000Z</time>
      </trkpt>
      <trkpt lat="46.3573" lon="4.73836">
        <ele>348.39999389648</ele>
        <time>2018-09-09T07:32:30.000Z</time>
      </trkpt>
      <trkpt lat="46.35741" lon="4.73863">
        <ele>349</ele>
        <time>2018-09-09T07:32:34.000Z</time>
      </trkpt>
      <trkpt lat="46.35749" lon="4.73888">
        <ele>349.79998779297</ele>
        <time>2018-09-09T07:32:38.000Z</time>
      </trkpt>
      <trkpt lat="46.35756" lon="4.73918">
        <ele>349.79998779297</ele>
        <time>2018-09-09T07:32:43.000Z</time>
      </trkpt>
      <trkpt lat="46.35764" lon="4.73945">
        <ele>350.20001220703</ele>
        <time>2018-09-09T07:32:47.000Z</time>
      </trkpt>
      <trkpt lat="46.35772" lon="4.73973">
        <ele>349.79998779297</ele>
        <time>2018-09-09T07:32:51.000Z</time>
      </trkpt>
      <trkpt lat="46.35773" lon="4.73981">
        <ele>349.39999389648</ele>
        <time>2018-09-09T07:32:52.000Z</time>
      </trkpt>
      <trkpt lat="46.35775" lon="4.74003">
        <ele>348.39999389648</ele>
        <time>2018-09-09T07:32:55.000Z</time>
      </trkpt>
      <trkpt lat="46.35779" lon="4.74031">
        <ele>347.39999389648</ele>
        <time>2018-09-09T07:32:59.000Z</time>
      </trkpt>
      <trkpt lat="46.3578" lon="4.74037">
        <ele>347.39999389648</ele>
        <time>2018-09-09T07:33:00.000Z</time>
      </trkpt>
      <trkpt lat="46.35795" lon="4.74054">
        <ele>347.39999389648</ele>
        <time>2018-09-09T07:33:04.000Z</time>
      </trkpt>
      <trkpt lat="46.35808" lon="4.74057">
        <ele>348.60000610352</ele>
        <time>2018-09-09T07:33:07.000Z</time>
      </trkpt>
      <trkpt lat="46.35823" lon="4.74073">
        <ele>349</ele>
        <time>2018-09-09T07:33:12.000Z</time>
      </trkpt>
      <trkpt lat="46.35836" lon="4.74097">
        <ele>348.39999389648</ele>
        <time>2018-09-09T07:33:17.000Z</time>
      </trkpt>
      <trkpt lat="46.3585" lon="4.74116">
        <ele>348.20001220703</ele>
        <time>2018-09-09T07:33:21.000Z</time>
      </trkpt>
      <trkpt lat="46.35864" lon="4.74133">
        <ele>348.39999389648</ele>
        <time>2018-09-09T07:33:25.000Z</time>
      </trkpt>
      <trkpt lat="46.3588" lon="4.74153">
        <ele>348.79998779297</ele>
        <time>2018-09-09T07:33:30.000Z</time>
      </trkpt>
      <trkpt lat="46.35894" lon="4.74177">
        <ele>348.60000610352</ele>
        <time>2018-09-09T07:33:35.000Z</time>
      </trkpt>
      <trkpt lat="46.35908" lon="4.74202">
        <ele>348</ele>
        <time>2018-09-09T07:33:40.000Z</time>
      </trkpt>
      <trkpt lat="46.3592" lon="4.74223">
        <ele>347.60000610352</ele>
        <time>2018-09-09T07:33:44.000Z</time>
      </trkpt>
      <trkpt lat="46.35932" lon="4.74244">
        <ele>346.79998779297</ele>
        <time>2018-09-09T07:33:48.000Z</time>
      </trkpt>
      <trkpt lat="46.35945" lon="4.74264">
        <ele>346.39999389648</ele>
        <time>2018-09-09T07:33:52.000Z</time>
      </trkpt>
      <trkpt lat="46.35949" lon="4.74268">
        <ele>346.39999389648</ele>
        <time>2018-09-09T07:33:53.000Z</time>
      </trkpt>
      <trkpt lat="46.3596" lon="4.74278">
        <ele>346.60000610352</ele>
        <time>2018-09-09T07:33:56.000Z</time>
      </trkpt>
      <trkpt lat="46.35978" lon="4.74289">
        <ele>347.60000610352</ele>
        <time>2018-09-09T07:34:01.000Z</time>
      </trkpt>
      <trkpt lat="46.35997" lon="4.74298">
        <ele>348.20001220703</ele>
        <time>2018-09-09T07:34:07.000Z</time>
      </trkpt>
      <trkpt lat="46.36012" lon="4.74314">
        <ele>347.79998779297</ele>
        <time>2018-09-09T07:34:13.000Z</time>
      </trkpt>
      <trkpt lat="46.36022" lon="4.74335">
        <ele>347</ele>
        <time>2018-09-09T07:34:18.000Z</time>
      </trkpt>
      <trkpt lat="46.36032" lon="4.7436">
        <ele>345.79998779297</ele>
        <time>2018-09-09T07:34:23.000Z</time>
      </trkpt>
      <trkpt lat="46.3604" lon="4.74385">
        <ele>344.60000610352</ele>
        <time>2018-09-09T07:34:27.000Z</time>
      </trkpt>
      <trkpt lat="46.36047" lon="4.74417">
        <ele>343.20001220703</ele>
        <time>2018-09-09T07:34:31.000Z</time>
      </trkpt>
      <trkpt lat="46.36053" lon="4.74444">
        <ele>342</ele>
        <time>2018-09-09T07:34:35.000Z</time>
      </trkpt>
      <trkpt lat="46.36051" lon="4.74475">
        <ele>339.39999389648</ele>
        <time>2018-09-09T07:34:39.000Z</time>
      </trkpt>
      <trkpt lat="46.36049" lon="4.74503">
        <ele>337.20001220703</ele>
        <time>2018-09-09T07:34:42.000Z</time>
      </trkpt>
      <trkpt lat="46.36049" lon="4.74533">
        <ele>335.20001220703</ele>
        <time>2018-09-09T07:34:45.000Z</time>
      </trkpt>
      <trkpt lat="46.36049" lon="4.74566">
        <ele>333.60000610352</ele>
        <time>2018-09-09T07:34:48.000Z</time>
      </trkpt>
      <trkpt lat="46.3605" lon="4.746">
        <ele>332</ele>
        <time>2018-09-09T07:34:51.000Z</time>
      </trkpt>
      <trkpt lat="46.3605" lon="4.74636">
        <ele>330.20001220703</ele>
        <time>2018-09-09T07:34:54.000Z</time>
      </trkpt>
      <trkpt lat="46.36051" lon="4.74672">
        <ele>328.60000610352</ele>
        <time>2018-09-09T07:34:57.000Z</time>
      </trkpt>
      <trkpt lat="46.36052" lon="4.74708">
        <ele>327</ele>
        <time>2018-09-09T07:35:00.000Z</time>
      </trkpt>
      <trkpt lat="46.36053" lon="4.74743">
        <ele>325.39999389648</ele>
        <time>2018-09-09T07:35:03.000Z</time>
      </trkpt>
      <trkpt lat="46.36056" lon="4.74758">
        <ele>324.79998779297</ele>
        <time>2018-09-09T07:35:05.000Z</time>
      </trkpt>
      <trkpt lat="46.36072" lon="4.7477">
        <ele>324.39999389648</ele>
        <time>2018-09-09T07:35:09.000Z</time>
      </trkpt>
      <trkpt lat="46.36081" lon="4.74769">
        <ele>323.60000610352</ele>
        <time>2018-09-09T07:35:11.000Z</time>
      </trkpt>
      <trkpt lat="46.36101" lon="4.74767">
        <ele>322.39999389648</ele>
        <time>2018-09-09T07:35:15.000Z</time>
      </trkpt>
      <trkpt lat="46.36123" lon="4.74768">
        <ele>320.79998779297</ele>
        <time>2018-09-09T07:35:19.000Z</time>
      </trkpt>
      <trkpt lat="46.3613" lon="4.74768">
        <ele>320.20001220703</ele>
        <time>2018-09-09T07:35:20.000Z</time>
      </trkpt>
      <trkpt lat="46.36151" lon="4.7476">
        <ele>318.79998779297</ele>
        <time>2018-09-09T07:35:23.000Z</time>
      </trkpt>
      <trkpt lat="46.36174" lon="4.74749">
        <ele>317.20001220703</ele>
        <time>2018-09-09T07:35:26.000Z</time>
      </trkpt>
      <trkpt lat="46.3619" lon="4.74741">
        <ele>316</ele>
        <time>2018-09-09T07:35:28.000Z</time>
      </trkpt>
      <trkpt lat="46.36213" lon="4.74728">
        <ele>313.20001220703</ele>
        <time>2018-09-09T07:35:31.000Z</time>
      </trkpt>
      <trkpt lat="46.36231" lon="4.74722">
        <ele>311</ele>
        <time>2018-09-09T07:35:33.000Z</time>
      </trkpt>
      <trkpt lat="46.36247" lon="4.74714">
        <ele>313.20001220703</ele>
        <time>2018-09-09T07:35:35.000Z</time>
      </trkpt>
      <trkpt lat="46.36266" lon="4.74694">
        <ele>314.79998779297</ele>
        <time>2018-09-09T07:35:38.000Z</time>
      </trkpt>
      <trkpt lat="46.3627" lon="4.74689">
        <ele>315.39999389648</ele>
        <time>2018-09-09T07:35:39.000Z</time>
      </trkpt>
      <trkpt lat="46.36281" lon="4.74674">
        <ele>317.20001220703</ele>
        <time>2018-09-09T07:35:42.000Z</time>
      </trkpt>
      <trkpt lat="46.36287" lon="4.74666">
        <ele>317</ele>
        <time>2018-09-09T07:35:44.000Z</time>
      </trkpt>
      <trkpt lat="46.36302" lon="4.74646">
        <ele>315</ele>
        <time>2018-09-09T07:35:50.000Z</time>
      </trkpt>
      <trkpt lat="46.36315" lon="4.74626">
        <ele>313.60000610352</ele>
        <time>2018-09-09T07:35:55.000Z</time>
      </trkpt>
      <trkpt lat="46.36328" lon="4.74607">
        <ele>313.39999389648</ele>
        <time>2018-09-09T07:36:00.000Z</time>
      </trkpt>
      <trkpt lat="46.36342" lon="4.74584">
        <ele>313.39999389648</ele>
        <time>2018-09-09T07:36:06.000Z</time>
      </trkpt>
      <trkpt lat="46.36355" lon="4.74566">
        <ele>313.39999389648</ele>
        <time>2018-09-09T07:36:11.000Z</time>
      </trkpt>
      <trkpt lat="46.36369" lon="4.74549">
        <ele>313.60000610352</ele>
        <time>2018-09-09T07:36:16.000Z</time>
      </trkpt>
      <trkpt lat="46.36383" lon="4.7453">
        <ele>314.60000610352</ele>
        <time>2018-09-09T07:36:21.000Z</time>
      </trkpt>
      <trkpt lat="46.3639" lon="4.74524">
        <ele>315</ele>
        <time>2018-09-09T07:36:24.000Z</time>
      </trkpt>
      <trkpt lat="46.36397" lon="4.74548">
        <ele>316.60000610352</ele>
        <time>2018-09-09T07:36:35.000Z</time>
      </trkpt>
      <trkpt lat="46.36406" lon="4.74556">
        <ele>318.39999389648</ele>
        <time>2018-09-09T07:36:43.000Z</time>
      </trkpt>
      <trkpt lat="46.36425" lon="4.74554">
        <ele>320.20001220703</ele>
        <time>2018-09-09T07:36:53.000Z</time>
      </trkpt>
      <trkpt lat="46.36444" lon="4.74549">
        <ele>321.60000610352</ele>
        <time>2018-09-09T07:37:00.000Z</time>
      </trkpt>
      <trkpt lat="46.36463" lon="4.74544">
        <ele>322.79998779297</ele>
        <time>2018-09-09T07:37:07.000Z</time>
      </trkpt>
      <trkpt lat="46.36483" lon="4.74539">
        <ele>324.39999389648</ele>
        <time>2018-09-09T07:37:14.000Z</time>
      </trkpt>
      <trkpt lat="46.36503" lon="4.74533">
        <ele>326</ele>
        <time>2018-09-09T07:37:21.000Z</time>
      </trkpt>
      <trkpt lat="46.36521" lon="4.7453">
        <ele>327.79998779297</ele>
        <time>2018-09-09T07:37:28.000Z</time>
      </trkpt>
      <trkpt lat="46.3654" lon="4.74529">
        <ele>329.60000610352</ele>
        <time>2018-09-09T07:37:36.000Z</time>
      </trkpt>
      <trkpt lat="46.36558" lon="4.74528">
        <ele>331.60000610352</ele>
        <time>2018-09-09T07:37:43.000Z</time>
      </trkpt>
      <trkpt lat="46.36577" lon="4.74526">
        <ele>333</ele>
        <time>2018-09-09T07:37:50.000Z</time>
      </trkpt>
      <trkpt lat="46.36596" lon="4.74521">
        <ele>333.60000610352</ele>
        <time>2018-09-09T07:37:58.000Z</time>
      </trkpt>
      <trkpt lat="46.36616" lon="4.74515">
        <ele>334.39999389648</ele>
        <time>2018-09-09T07:38:07.000Z</time>
      </trkpt>
      <trkpt lat="46.36635" lon="4.74516">
        <ele>335.39999389648</ele>
        <time>2018-09-09T07:38:17.000Z</time>
      </trkpt>
      <trkpt lat="46.36636" lon="4.74521">
        <ele>336</ele>
        <time>2018-09-09T07:38:20.000Z</time>
      </trkpt>
      <trkpt lat="46.36637" lon="4.74532">
        <ele>337</ele>
        <time>2018-09-09T07:38:26.000Z</time>
      </trkpt>
      <trkpt lat="46.36654" lon="4.7455">
        <ele>339.39999389648</ele>
        <time>2018-09-09T07:38:39.000Z</time>
      </trkpt>
      <trkpt lat="46.36662" lon="4.74565">
        <ele>341.20001220703</ele>
        <time>2018-09-09T07:38:47.000Z</time>
      </trkpt>
      <trkpt lat="46.36662" lon="4.74591">
        <ele>344.60000610352</ele>
        <time>2018-09-09T07:38:59.000Z</time>
      </trkpt>
      <trkpt lat="46.36656" lon="4.74617">
        <ele>348.20001220703</ele>
        <time>2018-09-09T07:39:09.000Z</time>
      </trkpt>
      <trkpt lat="46.36646" lon="4.74642">
        <ele>350.20001220703</ele>
        <time>2018-09-09T07:39:17.000Z</time>
      </trkpt>
      <trkpt lat="46.3664" lon="4.74668">
        <ele>351.20001220703</ele>
        <time>2018-09-09T07:39:25.000Z</time>
      </trkpt>
      <trkpt lat="46.3663" lon="4.74693">
        <ele>352</ele>
        <time>2018-09-09T07:39:33.000Z</time>
      </trkpt>
      <trkpt lat="46.3662" lon="4.74716">
        <ele>353.20001220703</ele>
        <time>2018-09-09T07:39:42.000Z</time>
      </trkpt>
      <trkpt lat="46.36612" lon="4.74741">
        <ele>354.60000610352</ele>
        <time>2018-09-09T07:39:52.000Z</time>
      </trkpt>
      <trkpt lat="46.36604" lon="4.74766">
        <ele>356.60000610352</ele>
        <time>2018-09-09T07:40:02.000Z</time>
      </trkpt>
      <trkpt lat="46.36597" lon="4.74791">
        <ele>358.79998779297</ele>
        <time>2018-09-09T07:40:13.000Z</time>
      </trkpt>
      <trkpt lat="46.36589" lon="4.74815">
        <ele>359.39999389648</ele>
        <time>2018-09-09T07:40:23.000Z</time>
      </trkpt>
      <trkpt lat="46.36582" lon="4.74842">
        <ele>362.39999389648</ele>
        <time>2018-09-09T07:40:33.000Z</time>
      </trkpt>
      <trkpt lat="46.3658" lon="4.74871">
        <ele>365.20001220703</ele>
        <time>2018-09-09T07:40:41.000Z</time>
      </trkpt>
      <trkpt lat="46.36578" lon="4.74899">
        <ele>367.20001220703</ele>
        <time>2018-09-09T07:40:49.000Z</time>
      </trkpt>
      <trkpt lat="46.36575" lon="4.74925">
        <ele>369.20001220703</ele>
        <time>2018-09-09T07:40:57.000Z</time>
      </trkpt>
      <trkpt lat="46.36572" lon="4.74942">
        <ele>370.60000610352</ele>
        <time>2018-09-09T07:41:02.000Z</time>
      </trkpt>
      <trkpt lat="46.36563" lon="4.74967">
        <ele>372.60000610352</ele>
        <time>2018-09-09T07:41:10.000Z</time>
      </trkpt>
      <trkpt lat="46.36551" lon="4.74993">
        <ele>372.79998779297</ele>
        <time>2018-09-09T07:41:17.000Z</time>
      </trkpt>
      <trkpt lat="46.36539" lon="4.75013">
        <ele>373</ele>
        <time>2018-09-09T07:41:24.000Z</time>
      </trkpt>
      <trkpt lat="46.36529" lon="4.75039">
        <ele>373.79998779297</ele>
        <time>2018-09-09T07:41:32.000Z</time>
      </trkpt>
      <trkpt lat="46.36523" lon="4.75067">
        <ele>372.39999389648</ele>
        <time>2018-09-09T07:41:40.000Z</time>
      </trkpt>
      <trkpt lat="46.36519" lon="4.75097">
        <ele>372.60000610352</ele>
        <time>2018-09-09T07:41:46.000Z</time>
      </trkpt>
      <trkpt lat="46.36517" lon="4.75126">
        <ele>373.60000610352</ele>
        <time>2018-09-09T07:41:52.000Z</time>
      </trkpt>
      <trkpt lat="46.36514" lon="4.75152">
        <ele>373.60000610352</ele>
        <time>2018-09-09T07:41:58.000Z</time>
      </trkpt>
      <trkpt lat="46.36511" lon="4.75166">
        <ele>374</ele>
        <time>2018-09-09T07:42:01.000Z</time>
      </trkpt>
      <trkpt lat="46.36504" lon="4.75195">
        <ele>375</ele>
        <time>2018-09-09T07:42:08.000Z</time>
      </trkpt>
      <trkpt lat="46.36498" lon="4.7522">
        <ele>375.39999389648</ele>
        <time>2018-09-09T07:42:13.000Z</time>
      </trkpt>
      <trkpt lat="46.36485" lon="4.75246">
        <ele>375.79998779297</ele>
        <time>2018-09-09T07:42:18.000Z</time>
      </trkpt>
      <trkpt lat="46.36481" lon="4.7525">
        <ele>376</ele>
        <time>2018-09-09T07:42:19.000Z</time>
      </trkpt>
      <trkpt lat="46.36467" lon="4.7527">
        <ele>374.20001220703</ele>
        <time>2018-09-09T07:42:23.000Z</time>
      </trkpt>
      <trkpt lat="46.36466" lon="4.75274">
        <ele>374.20001220703</ele>
        <time>2018-09-09T07:42:24.000Z</time>
      </trkpt>
      <trkpt lat="46.36464" lon="4.75302">
        <ele>373.60000610352</ele>
        <time>2018-09-09T07:42:28.000Z</time>
      </trkpt>
      <trkpt lat="46.36464" lon="4.7533">
        <ele>372.60000610352</ele>
        <time>2018-09-09T07:42:32.000Z</time>
      </trkpt>
      <trkpt lat="46.36459" lon="4.7536">
        <ele>371.39999389648</ele>
        <time>2018-09-09T07:42:37.000Z</time>
      </trkpt>
      <trkpt lat="46.36453" lon="4.75387">
        <ele>370</ele>
        <time>2018-09-09T07:42:41.000Z</time>
      </trkpt>
      <trkpt lat="46.3645" lon="4.75416">
        <ele>368</ele>
        <time>2018-09-09T07:42:45.000Z</time>
      </trkpt>
      <trkpt lat="46.36447" lon="4.75445">
        <ele>367.20001220703</ele>
        <time>2018-09-09T07:42:49.000Z</time>
      </trkpt>
      <trkpt lat="46.36444" lon="4.75473">
        <ele>366.39999389648</ele>
        <time>2018-09-09T07:42:53.000Z</time>
      </trkpt>
      <trkpt lat="46.36442" lon="4.75483">
        <ele>366</ele>
        <time>2018-09-09T07:42:54.000Z</time>
      </trkpt>
      <trkpt lat="46.36439" lon="4.75513">
        <ele>365.60000610352</ele>
        <time>2018-09-09T07:42:58.000Z</time>
      </trkpt>
      <trkpt lat="46.36436" lon="4.75544">
        <ele>365.60000610352</ele>
        <time>2018-09-09T07:43:03.000Z</time>
      </trkpt>
      <trkpt lat="46.36432" lon="4.75576">
        <ele>365.60000610352</ele>
        <time>2018-09-09T07:43:08.000Z</time>
      </trkpt>
      <trkpt lat="46.36432" lon="4.75606">
        <ele>365.60000610352</ele>
        <time>2018-09-09T07:43:12.000Z</time>
      </trkpt>
      <trkpt lat="46.36422" lon="4.75631">
        <ele>365.79998779297</ele>
        <time>2018-09-09T07:43:16.000Z</time>
      </trkpt>
      <trkpt lat="46.36419" lon="4.75639">
        <ele>366</ele>
        <time>2018-09-09T07:43:17.000Z</time>
      </trkpt>
      <trkpt lat="46.36409" lon="4.75671">
        <ele>366.39999389648</ele>
        <time>2018-09-09T07:43:21.000Z</time>
      </trkpt>
      <trkpt lat="46.364" lon="4.75696">
        <ele>366.79998779297</ele>
        <time>2018-09-09T07:43:24.000Z</time>
      </trkpt>
      <trkpt lat="46.36389" lon="4.75721">
        <ele>366.79998779297</ele>
        <time>2018-09-09T07:43:27.000Z</time>
      </trkpt>
      <trkpt lat="46.36383" lon="4.75737">
        <ele>366.60000610352</ele>
        <time>2018-09-09T07:43:29.000Z</time>
      </trkpt>
      <trkpt lat="46.36373" lon="4.75763">
        <ele>366.39999389648</ele>
        <time>2018-09-09T07:43:32.000Z</time>
      </trkpt>
      <trkpt lat="46.36361" lon="4.75791">
        <ele>366.20001220703</ele>
        <time>2018-09-09T07:43:35.000Z</time>
      </trkpt>
      <trkpt lat="46.36348" lon="4.7582">
        <ele>366.20001220703</ele>
        <time>2018-09-09T07:43:38.000Z</time>
      </trkpt>
      <trkpt lat="46.36336" lon="4.75851">
        <ele>365.20001220703</ele>
        <time>2018-09-09T07:43:41.000Z</time>
      </trkpt>
      <trkpt lat="46.36325" lon="4.7588">
        <ele>364.39999389648</ele>
        <time>2018-09-09T07:43:44.000Z</time>
      </trkpt>
      <trkpt lat="46.36315" lon="4.75902">
        <ele>364.79998779297</ele>
        <time>2018-09-09T07:43:47.000Z</time>
      </trkpt>
      <trkpt lat="46.36307" lon="4.75925">
        <ele>364.79998779297</ele>
        <time>2018-09-09T07:43:51.000Z</time>
      </trkpt>
      <trkpt lat="46.36302" lon="4.75956">
        <ele>364.79998779297</ele>
        <time>2018-09-09T07:43:55.000Z</time>
      </trkpt>
      <trkpt lat="46.36296" lon="4.75981">
        <ele>364</ele>
        <time>2018-09-09T07:44:01.000Z</time>
      </trkpt>
      <trkpt lat="46.36288" lon="4.75989">
        <ele>363</ele>
        <time>2018-09-09T07:44:05.000Z</time>
      </trkpt>
      <trkpt lat="46.3628" lon="4.75988">
        <ele>362.20001220703</ele>
        <time>2018-09-09T07:44:09.000Z</time>
      </trkpt>
      <trkpt lat="46.36263" lon="4.76002">
        <ele>360.79998779297</ele>
        <time>2018-09-09T07:44:14.000Z</time>
      </trkpt>
      <trkpt lat="46.36248" lon="4.76022">
        <ele>360</ele>
        <time>2018-09-09T07:44:18.000Z</time>
      </trkpt>
      <trkpt lat="46.36233" lon="4.76037">
        <ele>359.20001220703</ele>
        <time>2018-09-09T07:44:22.000Z</time>
      </trkpt>
      <trkpt lat="46.36218" lon="4.76054">
        <ele>357.60000610352</ele>
        <time>2018-09-09T07:44:26.000Z</time>
      </trkpt>
      <trkpt lat="46.36202" lon="4.76066">
        <ele>355.79998779297</ele>
        <time>2018-09-09T07:44:31.000Z</time>
      </trkpt>
      <trkpt lat="46.36198" lon="4.76065">
        <ele>355.20001220703</ele>
        <time>2018-09-09T07:44:33.000Z</time>
      </trkpt>
      <trkpt lat="46.36179" lon="4.76057">
        <ele>352.60000610352</ele>
        <time>2018-09-09T07:44:38.000Z</time>
      </trkpt>
      <trkpt lat="46.36157" lon="4.76045">
        <ele>349.39999389648</ele>
        <time>2018-09-09T07:44:42.000Z</time>
      </trkpt>
      <trkpt lat="46.36139" lon="4.76032">
        <ele>346.39999389648</ele>
        <time>2018-09-09T07:44:45.000Z</time>
      </trkpt>
      <trkpt lat="46.36132" lon="4.76031">
        <ele>345.20001220703</ele>
        <time>2018-09-09T07:44:48.000Z</time>
      </trkpt>
      <trkpt lat="46.36128" lon="4.76039">
        <ele>344.60000610352</ele>
        <time>2018-09-09T07:44:52.000Z</time>
      </trkpt>
      <trkpt lat="46.36122" lon="4.76071">
        <ele>343.20001220703</ele>
        <time>2018-09-09T07:44:59.000Z</time>
      </trkpt>
      <trkpt lat="46.36124" lon="4.76098">
        <ele>343.20001220703</ele>
        <time>2018-09-09T07:45:04.000Z</time>
      </trkpt>
      <trkpt lat="46.36132" lon="4.76124">
        <ele>344.60000610352</ele>
        <time>2018-09-09T07:45:10.000Z</time>
      </trkpt>
      <trkpt lat="46.36139" lon="4.76149">
        <ele>345.39999389648</ele>
        <time>2018-09-09T07:45:17.000Z</time>
      </trkpt>
      <trkpt lat="46.36145" lon="4.76168">
        <ele>346</ele>
        <time>2018-09-09T07:45:23.000Z</time>
      </trkpt>
      <trkpt lat="46.36147" lon="4.76169">
        <ele>346.20001220703</ele>
        <time>2018-09-09T07:45:24.000Z</time>
      </trkpt>
      <trkpt lat="46.36151" lon="4.76182">
        <ele>346.79998779297</ele>
        <time>2018-09-09T07:45:28.000Z</time>
      </trkpt>
      <trkpt lat="46.36161" lon="4.76204">
        <ele>348</ele>
        <time>2018-09-09T07:45:35.000Z</time>
      </trkpt>
      <trkpt lat="46.36165" lon="4.7621">
        <ele>348.20001220703</ele>
        <time>2018-09-09T07:45:37.000Z</time>
      </trkpt>
      <trkpt lat="46.36166" lon="4.76225">
        <ele>347.60000610352</ele>
        <time>2018-09-09T07:45:41.000Z</time>
      </trkpt>
      <trkpt lat="46.36179" lon="4.76249">
        <ele>348.60000610352</ele>
        <time>2018-09-09T07:45:47.000Z</time>
      </trkpt>
      <trkpt lat="46.36185" lon="4.76277">
        <ele>349</ele>
        <time>2018-09-09T07:45:53.000Z</time>
      </trkpt>
      <trkpt lat="46.36185" lon="4.76303">
        <ele>348.79998779297</ele>
        <time>2018-09-09T07:45:58.000Z</time>
      </trkpt>
      <trkpt lat="46.36184" lon="4.7633">
        <ele>348</ele>
        <time>2018-09-09T07:46:04.000Z</time>
      </trkpt>
      <trkpt lat="46.36186" lon="4.76357">
        <ele>347.60000610352</ele>
        <time>2018-09-09T07:46:09.000Z</time>
      </trkpt>
      <trkpt lat="46.36188" lon="4.76379">
        <ele>347.39999389648</ele>
        <time>2018-09-09T07:46:13.000Z</time>
      </trkpt>
      <trkpt lat="46.36179" lon="4.76386">
        <ele>346.79998779297</ele>
        <time>2018-09-09T07:46:17.000Z</time>
      </trkpt>
      <trkpt lat="46.3616" lon="4.76374">
        <ele>345</ele>
        <time>2018-09-09T07:46:23.000Z</time>
      </trkpt>
      <trkpt lat="46.36144" lon="4.76362">
        <ele>344</ele>
        <time>2018-09-09T07:46:29.000Z</time>
      </trkpt>
      <trkpt lat="46.36141" lon="4.76359">
        <ele>343.79998779297</ele>
        <time>2018-09-09T07:46:31.000Z</time>
      </trkpt>
      <trkpt lat="46.3613" lon="4.76348">
        <ele>343</ele>
        <time>2018-09-09T07:46:35.000Z</time>
      </trkpt>
      <trkpt lat="46.36112" lon="4.76339">
        <ele>341.79998779297</ele>
        <time>2018-09-09T07:46:40.000Z</time>
      </trkpt>
      <trkpt lat="46.36094" lon="4.76328">
        <ele>340.60000610352</ele>
        <time>2018-09-09T07:46:46.000Z</time>
      </trkpt>
      <trkpt lat="46.36073" lon="4.76315">
        <ele>339.39999389648</ele>
        <time>2018-09-09T07:46:50.000Z</time>
      </trkpt>
      <trkpt lat="46.36056" lon="4.76301">
        <ele>338.39999389648</ele>
        <time>2018-09-09T07:46:53.000Z</time>
      </trkpt>
      <trkpt lat="46.36035" lon="4.76294">
        <ele>337.60000610352</ele>
        <time>2018-09-09T07:46:58.000Z</time>
      </trkpt>
      <trkpt lat="46.36014" lon="4.76287">
        <ele>336.60000610352</ele>
        <time>2018-09-09T07:47:02.000Z</time>
      </trkpt>
      <trkpt lat="46.35994" lon="4.76284">
        <ele>335.39999389648</ele>
        <time>2018-09-09T07:47:05.000Z</time>
      </trkpt>
      <trkpt lat="46.35988" lon="4.76281">
        <ele>335</ele>
        <time>2018-09-09T07:47:06.000Z</time>
      </trkpt>
      <trkpt lat="46.35968" lon="4.76267">
        <ele>333</ele>
        <time>2018-09-09T07:47:10.000Z</time>
      </trkpt>
      <trkpt lat="46.3595" lon="4.76259">
        <ele>331</ele>
        <time>2018-09-09T07:47:13.000Z</time>
      </trkpt>
      <trkpt lat="46.35939" lon="4.76252">
        <ele>329.60000610352</ele>
        <time>2018-09-09T07:47:15.000Z</time>
      </trkpt>
      <trkpt lat="46.35919" lon="4.7624">
        <ele>327.20001220703</ele>
        <time>2018-09-09T07:47:18.000Z</time>
      </trkpt>
      <trkpt lat="46.35898" lon="4.76227">
        <ele>324.60000610352</ele>
        <time>2018-09-09T07:47:22.000Z</time>
      </trkpt>
      <trkpt lat="46.35877" lon="4.76221">
        <ele>321.60000610352</ele>
        <time>2018-09-09T07:47:26.000Z</time>
      </trkpt>
      <trkpt lat="46.35861" lon="4.76215">
        <ele>319.39999389648</ele>
        <time>2018-09-09T07:47:29.000Z</time>
      </trkpt>
      <trkpt lat="46.35848" lon="4.76206">
        <ele>317.39999389648</ele>
        <time>2018-09-09T07:47:31.000Z</time>
      </trkpt>
      <trkpt lat="46.3583" lon="4.76195">
        <ele>314.79998779297</ele>
        <time>2018-09-09T07:47:34.000Z</time>
      </trkpt>
      <trkpt lat="46.35812" lon="4.76186">
        <ele>312.60000610352</ele>
        <time>2018-09-09T07:47:37.000Z</time>
      </trkpt>
      <trkpt lat="46.35806" lon="4.76184">
        <ele>311.79998779297</ele>
        <time>2018-09-09T07:47:38.000Z</time>
      </trkpt>
      <trkpt lat="46.35785" lon="4.76174">
        <ele>309</ele>
        <time>2018-09-09T07:47:42.000Z</time>
      </trkpt>
      <trkpt lat="46.35767" lon="4.76166">
        <ele>307</ele>
        <time>2018-09-09T07:47:47.000Z</time>
      </trkpt>
      <trkpt lat="46.35749" lon="4.76158">
        <ele>304.60000610352</ele>
        <time>2018-09-09T07:47:52.000Z</time>
      </trkpt>
      <trkpt lat="46.35728" lon="4.76157">
        <ele>302</ele>
        <time>2018-09-09T07:47:57.000Z</time>
      </trkpt>
      <trkpt lat="46.35707" lon="4.76159">
        <ele>298.79998779297</ele>
        <time>2018-09-09T07:48:04.000Z</time>
      </trkpt>
      <trkpt lat="46.35702" lon="4.76158">
        <ele>298</ele>
        <time>2018-09-09T07:48:06.000Z</time>
      </trkpt>
      <trkpt lat="46.35683" lon="4.76147">
        <ele>294.79998779297</ele>
        <time>2018-09-09T07:48:13.000Z</time>
      </trkpt>
      <trkpt lat="46.35663" lon="4.76136">
        <ele>291.60000610352</ele>
        <time>2018-09-09T07:48:17.000Z</time>
      </trkpt>
      <trkpt lat="46.35639" lon="4.76128">
        <ele>287.60000610352</ele>
        <time>2018-09-09T07:48:21.000Z</time>
      </trkpt>
      <trkpt lat="46.35619" lon="4.76128">
        <ele>284.20001220703</ele>
        <time>2018-09-09T07:48:24.000Z</time>
      </trkpt>
      <trkpt lat="46.356" lon="4.7614">
        <ele>281</ele>
        <time>2018-09-09T07:48:31.000Z</time>
      </trkpt>
      <trkpt lat="46.35584" lon="4.76157">
        <ele>278.20001220703</ele>
        <time>2018-09-09T07:48:39.000Z</time>
      </trkpt>
      <trkpt lat="46.35573" lon="4.76179">
        <ele>276.39999389648</ele>
        <time>2018-09-09T07:48:47.000Z</time>
      </trkpt>
      <trkpt lat="46.35568" lon="4.76206">
        <ele>275.60000610352</ele>
        <time>2018-09-09T07:48:58.000Z</time>
      </trkpt>
      <trkpt lat="46.35563" lon="4.76234">
        <ele>276.60000610352</ele>
        <time>2018-09-09T07:49:08.000Z</time>
      </trkpt>
      <trkpt lat="46.35557" lon="4.76262">
        <ele>278</ele>
        <time>2018-09-09T07:49:17.000Z</time>
      </trkpt>
      <trkpt lat="46.35552" lon="4.76287">
        <ele>279.60000610352</ele>
        <time>2018-09-09T07:49:25.000Z</time>
      </trkpt>
      <trkpt lat="46.35548" lon="4.76305">
        <ele>280.79998779297</ele>
        <time>2018-09-09T07:49:31.000Z</time>
      </trkpt>
      <trkpt lat="46.35542" lon="4.76332">
        <ele>282.60000610352</ele>
        <time>2018-09-09T07:49:40.000Z</time>
      </trkpt>
      <trkpt lat="46.35532" lon="4.76356">
        <ele>284.60000610352</ele>
        <time>2018-09-09T07:49:49.000Z</time>
      </trkpt>
      <trkpt lat="46.35521" lon="4.7638">
        <ele>286.79998779297</ele>
        <time>2018-09-09T07:49:58.000Z</time>
      </trkpt>
      <trkpt lat="46.35515" lon="4.76405">
        <ele>289.20001220703</ele>
        <time>2018-09-09T07:50:08.000Z</time>
      </trkpt>
      <trkpt lat="46.35497" lon="4.7641">
        <ele>290</ele>
        <time>2018-09-09T07:50:16.000Z</time>
      </trkpt>
      <trkpt lat="46.35478" lon="4.76413">
        <ele>290.60000610352</ele>
        <time>2018-09-09T07:50:23.000Z</time>
      </trkpt>
      <trkpt lat="46.35463" lon="4.7642">
        <ele>291</ele>
        <time>2018-09-09T07:50:30.000Z</time>
      </trkpt>
      <trkpt lat="46.35464" lon="4.76435">
        <ele>292.60000610352</ele>
        <time>2018-09-09T07:50:34.000Z</time>
      </trkpt>
      <trkpt lat="46.35469" lon="4.76461">
        <ele>295.39999389648</ele>
        <time>2018-09-09T07:50:42.000Z</time>
      </trkpt>
      <trkpt lat="46.35474" lon="4.76487">
        <ele>297.60000610352</ele>
        <time>2018-09-09T07:50:50.000Z</time>
      </trkpt>
      <trkpt lat="46.35477" lon="4.76513">
        <ele>299.79998779297</ele>
        <time>2018-09-09T07:50:58.000Z</time>
      </trkpt>
      <trkpt lat="46.3548" lon="4.7653">
        <ele>301.39999389648</ele>
        <time>2018-09-09T07:51:04.000Z</time>
      </trkpt>
      <trkpt lat="46.35488" lon="4.76536">
        <ele>301.79998779297</ele>
        <time>2018-09-09T07:51:08.000Z</time>
      </trkpt>
      <trkpt lat="46.35499" lon="4.76557">
        <ele>303.39999389648</ele>
        <time>2018-09-09T07:51:16.000Z</time>
      </trkpt>
      <trkpt lat="46.35506" lon="4.76583">
        <ele>305</ele>
        <time>2018-09-09T07:51:25.000Z</time>
      </trkpt>
      <trkpt lat="46.35512" lon="4.76609">
        <ele>306.60000610352</ele>
        <time>2018-09-09T07:51:36.000Z</time>
      </trkpt>
      <trkpt lat="46.35519" lon="4.76635">
        <ele>308.60000610352</ele>
        <time>2018-09-09T07:51:47.000Z</time>
      </trkpt>
      <trkpt lat="46.35524" lon="4.7666">
        <ele>310.79998779297</ele>
        <time>2018-09-09T07:51:59.000Z</time>
      </trkpt>
      <trkpt lat="46.3553" lon="4.76687">
        <ele>312.60000610352</ele>
        <time>2018-09-09T07:52:10.000Z</time>
      </trkpt>
      <trkpt lat="46.35538" lon="4.76713">
        <ele>314.60000610352</ele>
        <time>2018-09-09T07:52:21.000Z</time>
      </trkpt>
      <trkpt lat="46.35543" lon="4.7674">
        <ele>317.39999389648</ele>
        <time>2018-09-09T07:52:32.000Z</time>
      </trkpt>
      <trkpt lat="46.35548" lon="4.76766">
        <ele>320.20001220703</ele>
        <time>2018-09-09T07:52:42.000Z</time>
      </trkpt>
      <trkpt lat="46.35553" lon="4.76792">
        <ele>323.39999389648</ele>
        <time>2018-09-09T07:52:53.000Z</time>
      </trkpt>
      <trkpt lat="46.35555" lon="4.7682">
        <ele>327.39999389648</ele>
        <time>2018-09-09T07:53:06.000Z</time>
      </trkpt>
      <trkpt lat="46.35557" lon="4.76843">
        <ele>330.79998779297</ele>
        <time>2018-09-09T07:53:19.000Z</time>
      </trkpt>
      <trkpt lat="46.35553" lon="4.76857">
        <ele>332.60000610352</ele>
        <time>2018-09-09T07:53:29.000Z</time>
      </trkpt>
      <trkpt lat="46.35548" lon="4.76863">
        <ele>333.79998779297</ele>
        <time>2018-09-09T07:53:33.000Z</time>
      </trkpt>
      <trkpt lat="46.35535" lon="4.76866">
        <ele>335</ele>
        <time>2018-09-09T07:53:40.000Z</time>
      </trkpt>
      <trkpt lat="46.35529" lon="4.76875">
        <ele>336.79998779297</ele>
        <time>2018-09-09T07:53:46.000Z</time>
      </trkpt>
      <trkpt lat="46.3551" lon="4.76883">
        <ele>338.79998779297</ele>
        <time>2018-09-09T07:53:54.000Z</time>
      </trkpt>
      <trkpt lat="46.35494" lon="4.769">
        <ele>341.60000610352</ele>
        <time>2018-09-09T07:54:04.000Z</time>
      </trkpt>
      <trkpt lat="46.35475" lon="4.76907">
        <ele>342.60000610352</ele>
        <time>2018-09-09T07:54:12.000Z</time>
      </trkpt>
      <trkpt lat="46.35454" lon="4.76916">
        <ele>343.20001220703</ele>
        <time>2018-09-09T07:54:17.000Z</time>
      </trkpt>
      <trkpt lat="46.35444" lon="4.76918">
        <ele>343.20001220703</ele>
        <time>2018-09-09T07:54:19.000Z</time>
      </trkpt>
      <trkpt lat="46.35428" lon="4.76916">
        <ele>342.20001220703</ele>
        <time>2018-09-09T07:54:22.000Z</time>
      </trkpt>
      <trkpt lat="46.35408" lon="4.76913">
        <ele>340.60000610352</ele>
        <time>2018-09-09T07:54:27.000Z</time>
      </trkpt>
      <trkpt lat="46.35389" lon="4.7691">
        <ele>338.79998779297</ele>
        <time>2018-09-09T07:54:33.000Z</time>
      </trkpt>
      <trkpt lat="46.3537" lon="4.76911">
        <ele>336.79998779297</ele>
        <time>2018-09-09T07:54:39.000Z</time>
      </trkpt>
      <trkpt lat="46.35351" lon="4.76908">
        <ele>334.60000610352</ele>
        <time>2018-09-09T07:54:45.000Z</time>
      </trkpt>
      <trkpt lat="46.35331" lon="4.76909">
        <ele>333.60000610352</ele>
        <time>2018-09-09T07:54:51.000Z</time>
      </trkpt>
      <trkpt lat="46.3531" lon="4.7691">
        <ele>333</ele>
        <time>2018-09-09T07:54:57.000Z</time>
      </trkpt>
      <trkpt lat="46.35292" lon="4.76913">
        <ele>332.79998779297</ele>
        <time>2018-09-09T07:55:03.000Z</time>
      </trkpt>
      <trkpt lat="46.35274" lon="4.76908">
        <ele>331.20001220703</ele>
        <time>2018-09-09T07:55:08.000Z</time>
      </trkpt>
      <trkpt lat="46.35252" lon="4.76901">
        <ele>329.39999389648</ele>
        <time>2018-09-09T07:55:13.000Z</time>
      </trkpt>
      <trkpt lat="46.35233" lon="4.76902">
        <ele>329.20001220703</ele>
        <time>2018-09-09T07:55:17.000Z</time>
      </trkpt>
      <trkpt lat="46.35214" lon="4.76902">
        <ele>330</ele>
        <time>2018-09-09T07:55:22.000Z</time>
      </trkpt>
      <trkpt lat="46.35195" lon="4.76904">
        <ele>331.39999389648</ele>
        <time>2018-09-09T07:55:26.000Z</time>
      </trkpt>
      <trkpt lat="46.35177" lon="4.76906">
        <ele>332</ele>
        <time>2018-09-09T07:55:31.000Z</time>
      </trkpt>
      <trkpt lat="46.35164" lon="4.76913">
        <ele>332.39999389648</ele>
        <time>2018-09-09T07:55:38.000Z</time>
      </trkpt>
      <trkpt lat="46.35157" lon="4.76915">
        <ele>332.39999389648</ele>
        <time>2018-09-09T08:04:51.000Z</time>
      </trkpt>
      <trkpt lat="46.35152" lon="4.76908">
        <ele>331.60000610352</ele>
        <time>2018-09-09T08:04:55.000Z</time>
      </trkpt>
      <trkpt lat="46.35133" lon="4.769">
        <ele>331</ele>
        <time>2018-09-09T08:05:04.000Z</time>
      </trkpt>
      <trkpt lat="46.35115" lon="4.76895">
        <ele>330.60000610352</ele>
        <time>2018-09-09T08:05:11.000Z</time>
      </trkpt>
      <trkpt lat="46.351" lon="4.76892">
        <ele>330.60000610352</ele>
        <time>2018-09-09T08:05:17.000Z</time>
      </trkpt>
      <trkpt lat="46.35096" lon="4.76907">
        <ele>332</ele>
        <time>2018-09-09T08:05:23.000Z</time>
      </trkpt>
      <trkpt lat="46.35103" lon="4.76932">
        <ele>334.20001220703</ele>
        <time>2018-09-09T08:05:34.000Z</time>
      </trkpt>
      <trkpt lat="46.35114" lon="4.76954">
        <ele>336</ele>
        <time>2018-09-09T08:05:44.000Z</time>
      </trkpt>
      <trkpt lat="46.35124" lon="4.76977">
        <ele>338.20001220703</ele>
        <time>2018-09-09T08:05:55.000Z</time>
      </trkpt>
      <trkpt lat="46.35134" lon="4.76999">
        <ele>340.20001220703</ele>
        <time>2018-09-09T08:06:06.000Z</time>
      </trkpt>
      <trkpt lat="46.3514" lon="4.77024">
        <ele>342.60000610352</ele>
        <time>2018-09-09T08:06:18.000Z</time>
      </trkpt>
      <trkpt lat="46.35145" lon="4.7705">
        <ele>345.79998779297</ele>
        <time>2018-09-09T08:06:32.000Z</time>
      </trkpt>
      <trkpt lat="46.35157" lon="4.77068">
        <ele>349</ele>
        <time>2018-09-09T08:06:48.000Z</time>
      </trkpt>
      <trkpt lat="46.35167" lon="4.77084">
        <ele>352</ele>
        <time>2018-09-09T08:07:00.000Z</time>
      </trkpt>
      <trkpt lat="46.35171" lon="4.77093">
        <ele>353.39999389648</ele>
        <time>2018-09-09T08:07:05.000Z</time>
      </trkpt>
      <trkpt lat="46.35174" lon="4.77101">
        <ele>354.79998779297</ele>
        <time>2018-09-09T08:07:09.000Z</time>
      </trkpt>
      <trkpt lat="46.3518" lon="4.77124">
        <ele>358.39999389648</ele>
        <time>2018-09-09T08:07:19.000Z</time>
      </trkpt>
      <trkpt lat="46.35188" lon="4.77149">
        <ele>361.79998779297</ele>
        <time>2018-09-09T08:07:30.000Z</time>
      </trkpt>
      <trkpt lat="46.35197" lon="4.77172">
        <ele>364.79998779297</ele>
        <time>2018-09-09T08:07:40.000Z</time>
      </trkpt>
      <trkpt lat="46.35201" lon="4.772">
        <ele>367.39999389648</ele>
        <time>2018-09-09T08:07:52.000Z</time>
      </trkpt>
      <trkpt lat="46.35206" lon="4.77218">
        <ele>369.20001220703</ele>
        <time>2018-09-09T08:08:01.000Z</time>
      </trkpt>
      <trkpt lat="46.35213" lon="4.77243">
        <ele>371.39999389648</ele>
        <time>2018-09-09T08:08:14.000Z</time>
      </trkpt>
      <trkpt lat="46.35219" lon="4.77269">
        <ele>373.79998779297</ele>
        <time>2018-09-09T08:08:24.000Z</time>
      </trkpt>
      <trkpt lat="46.35224" lon="4.77295">
        <ele>375.79998779297</ele>
        <time>2018-09-09T08:08:36.000Z</time>
      </trkpt>
      <trkpt lat="46.35236" lon="4.77315">
        <ele>377.39999389648</ele>
        <time>2018-09-09T08:08:50.000Z</time>
      </trkpt>
      <trkpt lat="46.35257" lon="4.77318">
        <ele>379</ele>
        <time>2018-09-09T08:09:00.000Z</time>
      </trkpt>
      <trkpt lat="46.35275" lon="4.77321">
        <ele>379.79998779297</ele>
        <time>2018-09-09T08:09:08.000Z</time>
      </trkpt>
      <trkpt lat="46.35294" lon="4.77322">
        <ele>380.39999389648</ele>
        <time>2018-09-09T08:09:17.000Z</time>
      </trkpt>
      <trkpt lat="46.35314" lon="4.77322">
        <ele>380.79998779297</ele>
        <time>2018-09-09T08:09:26.000Z</time>
      </trkpt>
      <trkpt lat="46.35334" lon="4.77328">
        <ele>383</ele>
        <time>2018-09-09T08:09:34.000Z</time>
      </trkpt>
      <trkpt lat="46.35352" lon="4.77329">
        <ele>384.60000610352</ele>
        <time>2018-09-09T08:09:42.000Z</time>
      </trkpt>
      <trkpt lat="46.35372" lon="4.77328">
        <ele>386.20001220703</ele>
        <time>2018-09-09T08:09:52.000Z</time>
      </trkpt>
      <trkpt lat="46.3539" lon="4.77335">
        <ele>388.39999389648</ele>
        <time>2018-09-09T08:10:00.000Z</time>
      </trkpt>
      <trkpt lat="46.35403" lon="4.77336">
        <ele>389.60000610352</ele>
        <time>2018-09-09T08:10:06.000Z</time>
      </trkpt>
      <trkpt lat="46.35421" lon="4.77335">
        <ele>391.20001220703</ele>
        <time>2018-09-09T08:10:14.000Z</time>
      </trkpt>
      <trkpt lat="46.35427" lon="4.77334">
        <ele>391.60000610352</ele>
        <time>2018-09-09T08:10:17.000Z</time>
      </trkpt>
      <trkpt lat="46.35445" lon="4.77335">
        <ele>393.39999389648</ele>
        <time>2018-09-09T08:10:25.000Z</time>
      </trkpt>
      <trkpt lat="46.35465" lon="4.77336">
        <ele>395.39999389648</ele>
        <time>2018-09-09T08:10:34.000Z</time>
      </trkpt>
      <trkpt lat="46.35485" lon="4.77346">
        <ele>397.79998779297</ele>
        <time>2018-09-09T08:10:42.000Z</time>
      </trkpt>
      <trkpt lat="46.3549" lon="4.77349">
        <ele>398</ele>
        <time>2018-09-09T08:10:44.000Z</time>
      </trkpt>
      <trkpt lat="46.35503" lon="4.77354">
        <ele>398.79998779297</ele>
        <time>2018-09-09T08:10:50.000Z</time>
      </trkpt>
      <trkpt lat="46.35508" lon="4.77363">
        <ele>399.79998779297</ele>
        <time>2018-09-09T08:10:54.000Z</time>
      </trkpt>
      <trkpt lat="46.35519" lon="4.77372">
        <ele>400.79998779297</ele>
        <time>2018-09-09T08:10:58.000Z</time>
      </trkpt>
      <trkpt lat="46.35536" lon="4.77384">
        <ele>400.60000610352</ele>
        <time>2018-09-09T08:11:04.000Z</time>
      </trkpt>
      <trkpt lat="46.35555" lon="4.77388">
        <ele>401</ele>
        <time>2018-09-09T08:11:10.000Z</time>
      </trkpt>
      <trkpt lat="46.35574" lon="4.7739">
        <ele>401.39999389648</ele>
        <time>2018-09-09T08:11:16.000Z</time>
      </trkpt>
      <trkpt lat="46.35592" lon="4.77391">
        <ele>401.79998779297</ele>
        <time>2018-09-09T08:11:22.000Z</time>
      </trkpt>
      <trkpt lat="46.35611" lon="4.77395">
        <ele>401.79998779297</ele>
        <time>2018-09-09T08:11:28.000Z</time>
      </trkpt>
      <trkpt lat="46.3563" lon="4.77397">
        <ele>401.60000610352</ele>
        <time>2018-09-09T08:11:35.000Z</time>
      </trkpt>
      <trkpt lat="46.3565" lon="4.77397">
        <ele>401.79998779297</ele>
        <time>2018-09-09T08:11:42.000Z</time>
      </trkpt>
      <trkpt lat="46.35669" lon="4.77397">
        <ele>402.39999389648</ele>
        <time>2018-09-09T08:11:48.000Z</time>
      </trkpt>
      <trkpt lat="46.35687" lon="4.774">
        <ele>402.60000610352</ele>
        <time>2018-09-09T08:11:54.000Z</time>
      </trkpt>
      <trkpt lat="46.35707" lon="4.77407">
        <ele>402.60000610352</ele>
        <time>2018-09-09T08:12:02.000Z</time>
      </trkpt>
      <trkpt lat="46.35726" lon="4.7742">
        <ele>402.79998779297</ele>
        <time>2018-09-09T08:12:08.000Z</time>
      </trkpt>
      <trkpt lat="46.35743" lon="4.77433">
        <ele>401.79998779297</ele>
        <time>2018-09-09T08:12:14.000Z</time>
      </trkpt>
      <trkpt lat="46.3576" lon="4.77444">
        <ele>400.39999389648</ele>
        <time>2018-09-09T08:12:19.000Z</time>
      </trkpt>
      <trkpt lat="46.35777" lon="4.77458">
        <ele>398.79998779297</ele>
        <time>2018-09-09T08:12:24.000Z</time>
      </trkpt>
      <trkpt lat="46.35786" lon="4.77464">
        <ele>397.60000610352</ele>
        <time>2018-09-09T08:12:26.000Z</time>
      </trkpt>
      <trkpt lat="46.35803" lon="4.77482">
        <ele>394.60000610352</ele>
        <time>2018-09-09T08:12:31.000Z</time>
      </trkpt>
      <trkpt lat="46.35819" lon="4.775">
        <ele>391.60000610352</ele>
        <time>2018-09-09T08:12:35.000Z</time>
      </trkpt>
      <trkpt lat="46.35824" lon="4.77504">
        <ele>390.39999389648</ele>
        <time>2018-09-09T08:12:36.000Z</time>
      </trkpt>
      <trkpt lat="46.35841" lon="4.77517">
        <ele>387</ele>
        <time>2018-09-09T08:12:39.000Z</time>
      </trkpt>
      <trkpt lat="46.3586" lon="4.77532">
        <ele>383.39999389648</ele>
        <time>2018-09-09T08:12:42.000Z</time>
      </trkpt>
      <trkpt lat="46.3588" lon="4.77546">
        <ele>379.60000610352</ele>
        <time>2018-09-09T08:12:46.000Z</time>
      </trkpt>
      <trkpt lat="46.35892" lon="4.77553">
        <ele>377.39999389648</ele>
        <time>2018-09-09T08:12:48.000Z</time>
      </trkpt>
      <trkpt lat="46.3591" lon="4.77563">
        <ele>375</ele>
        <time>2018-09-09T08:12:51.000Z</time>
      </trkpt>
      <trkpt lat="46.35915" lon="4.77567">
        <ele>374.60000610352</ele>
        <time>2018-09-09T08:12:52.000Z</time>
      </trkpt>
      <trkpt lat="46.35932" lon="4.77578">
        <ele>372.60000610352</ele>
        <time>2018-09-09T08:12:56.000Z</time>
      </trkpt>
      <trkpt lat="46.35949" lon="4.77593">
        <ele>370.79998779297</ele>
        <time>2018-09-09T08:13:00.000Z</time>
      </trkpt>
      <trkpt lat="46.35967" lon="4.77602">
        <ele>368.39999389648</ele>
        <time>2018-09-09T08:13:04.000Z</time>
      </trkpt>
      <trkpt lat="46.35972" lon="4.77604">
        <ele>367.60000610352</ele>
        <time>2018-09-09T08:13:05.000Z</time>
      </trkpt>
      <trkpt lat="46.3599" lon="4.77613">
        <ele>365.60000610352</ele>
        <time>2018-09-09T08:13:08.000Z</time>
      </trkpt>
      <trkpt lat="46.35997" lon="4.77616">
        <ele>365.20001220703</ele>
        <time>2018-09-09T08:13:09.000Z</time>
      </trkpt>
      <trkpt lat="46.36006" lon="4.77621">
        <ele>364.60000610352</ele>
        <time>2018-09-09T08:13:11.000Z</time>
      </trkpt>
      <trkpt lat="46.36027" lon="4.77626">
        <ele>362.79998779297</ele>
        <time>2018-09-09T08:13:15.000Z</time>
      </trkpt>
      <trkpt lat="46.36033" lon="4.7763">
        <ele>362.39999389648</ele>
        <time>2018-09-09T08:13:17.000Z</time>
      </trkpt>
      <trkpt lat="46.36045" lon="4.77643">
        <ele>361.60000610352</ele>
        <time>2018-09-09T08:13:20.000Z</time>
      </trkpt>
      <trkpt lat="46.3606" lon="4.77656">
        <ele>360.60000610352</ele>
        <time>2018-09-09T08:13:23.000Z</time>
      </trkpt>
      <trkpt lat="46.36078" lon="4.77669">
        <ele>359.79998779297</ele>
        <time>2018-09-09T08:13:27.000Z</time>
      </trkpt>
      <trkpt lat="46.361" lon="4.77675">
        <ele>358.39999389648</ele>
        <time>2018-09-09T08:13:31.000Z</time>
      </trkpt>
      <trkpt lat="46.3612" lon="4.77681">
        <ele>357.20001220703</ele>
        <time>2018-09-09T08:13:34.000Z</time>
      </trkpt>
      <trkpt lat="46.36141" lon="4.77691">
        <ele>355.79998779297</ele>
        <time>2018-09-09T08:13:38.000Z</time>
      </trkpt>
      <trkpt lat="46.36163" lon="4.77687">
        <ele>354.39999389648</ele>
        <time>2018-09-09T08:13:43.000Z</time>
      </trkpt>
      <trkpt lat="46.36174" lon="4.77686">
        <ele>354</ele>
        <time>2018-09-09T08:13:46.000Z</time>
      </trkpt>
      <trkpt lat="46.36192" lon="4.77694">
        <ele>353.79998779297</ele>
        <time>2018-09-09T08:13:51.000Z</time>
      </trkpt>
      <trkpt lat="46.36214" lon="4.77696">
        <ele>353.20001220703</ele>
        <time>2018-09-09T08:13:56.000Z</time>
      </trkpt>
      <trkpt lat="46.36232" lon="4.77691">
        <ele>352.20001220703</ele>
        <time>2018-09-09T08:14:00.000Z</time>
      </trkpt>
      <trkpt lat="46.36249" lon="4.77688">
        <ele>352.79998779297</ele>
        <time>2018-09-09T08:14:04.000Z</time>
      </trkpt>
      <trkpt lat="46.3627" lon="4.77683">
        <ele>353.60000610352</ele>
        <time>2018-09-09T08:14:09.000Z</time>
      </trkpt>
      <trkpt lat="46.36288" lon="4.77675">
        <ele>354</ele>
        <time>2018-09-09T08:14:14.000Z</time>
      </trkpt>
      <trkpt lat="46.36307" lon="4.77663">
        <ele>353.79998779297</ele>
        <time>2018-09-09T08:14:19.000Z</time>
      </trkpt>
      <trkpt lat="46.36327" lon="4.77652">
        <ele>352.79998779297</ele>
        <time>2018-09-09T08:14:24.000Z</time>
      </trkpt>
      <trkpt lat="46.36342" lon="4.77638">
        <ele>352</ele>
        <time>2018-09-09T08:14:28.000Z</time>
      </trkpt>
      <trkpt lat="46.36358" lon="4.77622">
        <ele>352.60000610352</ele>
        <time>2018-09-09T08:14:32.000Z</time>
      </trkpt>
      <trkpt lat="46.36375" lon="4.77609">
        <ele>352</ele>
        <time>2018-09-09T08:14:36.000Z</time>
      </trkpt>
      <trkpt lat="46.36393" lon="4.77601">
        <ele>352.60000610352</ele>
        <time>2018-09-09T08:14:40.000Z</time>
      </trkpt>
      <trkpt lat="46.36411" lon="4.77595">
        <ele>353</ele>
        <time>2018-09-09T08:14:44.000Z</time>
      </trkpt>
      <trkpt lat="46.36432" lon="4.7759">
        <ele>353.39999389648</ele>
        <time>2018-09-09T08:14:48.000Z</time>
      </trkpt>
      <trkpt lat="46.36453" lon="4.77584">
        <ele>354</ele>
        <time>2018-09-09T08:14:53.000Z</time>
      </trkpt>
      <trkpt lat="46.36473" lon="4.77583">
        <ele>355.39999389648</ele>
        <time>2018-09-09T08:14:58.000Z</time>
      </trkpt>
      <trkpt lat="46.36494" lon="4.77582">
        <ele>357</ele>
        <time>2018-09-09T08:15:03.000Z</time>
      </trkpt>
      <trkpt lat="46.36512" lon="4.77578">
        <ele>358.60000610352</ele>
        <time>2018-09-09T08:15:09.000Z</time>
      </trkpt>
      <trkpt lat="46.36534" lon="4.77574">
        <ele>360.60000610352</ele>
        <time>2018-09-09T08:15:15.000Z</time>
      </trkpt>
      <trkpt lat="46.36552" lon="4.77574">
        <ele>362.39999389648</ele>
        <time>2018-09-09T08:15:20.000Z</time>
      </trkpt>
      <trkpt lat="46.36571" lon="4.77574">
        <ele>364.20001220703</ele>
        <time>2018-09-09T08:15:26.000Z</time>
      </trkpt>
      <trkpt lat="46.36591" lon="4.77572">
        <ele>365.79998779297</ele>
        <time>2018-09-09T08:15:34.000Z</time>
      </trkpt>
      <trkpt lat="46.36609" lon="4.77568">
        <ele>367.79998779297</ele>
        <time>2018-09-09T08:15:40.000Z</time>
      </trkpt>
      <trkpt lat="46.3663" lon="4.77562">
        <ele>370.20001220703</ele>
        <time>2018-09-09T08:15:47.000Z</time>
      </trkpt>
      <trkpt lat="46.36632" lon="4.77562">
        <ele>370.39999389648</ele>
        <time>2018-09-09T08:15:48.000Z</time>
      </trkpt>
      <trkpt lat="46.36651" lon="4.77567">
        <ele>372</ele>
        <time>2018-09-09T08:15:56.000Z</time>
      </trkpt>
      <trkpt lat="46.36671" lon="4.77568">
        <ele>372.39999389648</ele>
        <time>2018-09-09T08:16:03.000Z</time>
      </trkpt>
      <trkpt lat="46.3669" lon="4.77567">
        <ele>373.39999389648</ele>
        <time>2018-09-09T08:16:11.000Z</time>
      </trkpt>
      <trkpt lat="46.36708" lon="4.7756">
        <ele>375</ele>
        <time>2018-09-09T08:16:17.000Z</time>
      </trkpt>
      <trkpt lat="46.36726" lon="4.77548">
        <ele>377</ele>
        <time>2018-09-09T08:16:24.000Z</time>
      </trkpt>
      <trkpt lat="46.36743" lon="4.77536">
        <ele>376.79998779297</ele>
        <time>2018-09-09T08:16:31.000Z</time>
      </trkpt>
      <trkpt lat="46.36762" lon="4.77523">
        <ele>375</ele>
        <time>2018-09-09T08:16:37.000Z</time>
      </trkpt>
      <trkpt lat="46.36775" lon="4.775">
        <ele>374.20001220703</ele>
        <time>2018-09-09T08:16:43.000Z</time>
      </trkpt>
      <trkpt lat="46.36783" lon="4.77477">
        <ele>373.20001220703</ele>
        <time>2018-09-09T08:16:49.000Z</time>
      </trkpt>
      <trkpt lat="46.36789" lon="4.77452">
        <ele>372.20001220703</ele>
        <time>2018-09-09T08:16:55.000Z</time>
      </trkpt>
      <trkpt lat="46.36788" lon="4.77422">
        <ele>371.39999389648</ele>
        <time>2018-09-09T08:17:01.000Z</time>
      </trkpt>
      <trkpt lat="46.36788" lon="4.7739">
        <ele>372.20001220703</ele>
        <time>2018-09-09T08:17:07.000Z</time>
      </trkpt>
      <trkpt lat="46.36788" lon="4.77363">
        <ele>372</ele>
        <time>2018-09-09T08:17:11.000Z</time>
      </trkpt>
      <trkpt lat="46.36786" lon="4.77334">
        <ele>369.79998779297</ele>
        <time>2018-09-09T08:17:16.000Z</time>
      </trkpt>
      <trkpt lat="46.36787" lon="4.77329">
        <ele>369.39999389648</ele>
        <time>2018-09-09T08:17:17.000Z</time>
      </trkpt>
      <trkpt lat="46.36799" lon="4.77309">
        <ele>367.79998779297</ele>
        <time>2018-09-09T08:17:22.000Z</time>
      </trkpt>
      <trkpt lat="46.36812" lon="4.77288">
        <ele>366.20001220703</ele>
        <time>2018-09-09T08:17:26.000Z</time>
      </trkpt>
      <trkpt lat="46.36818" lon="4.77278">
        <ele>365.39999389648</ele>
        <time>2018-09-09T08:17:28.000Z</time>
      </trkpt>
      <trkpt lat="46.36833" lon="4.77253">
        <ele>363.39999389648</ele>
        <time>2018-09-09T08:17:32.000Z</time>
      </trkpt>
      <trkpt lat="46.36836" lon="4.77247">
        <ele>363</ele>
        <time>2018-09-09T08:17:33.000Z</time>
      </trkpt>
      <trkpt lat="46.36856" lon="4.77234">
        <ele>361.60000610352</ele>
        <time>2018-09-09T08:17:38.000Z</time>
      </trkpt>
      <trkpt lat="46.36878" lon="4.7723">
        <ele>360.60000610352</ele>
        <time>2018-09-09T08:17:42.000Z</time>
      </trkpt>
      <trkpt lat="46.36884" lon="4.7723">
        <ele>360.39999389648</ele>
        <time>2018-09-09T08:17:43.000Z</time>
      </trkpt>
      <trkpt lat="46.36907" lon="4.77222">
        <ele>358.39999389648</ele>
        <time>2018-09-09T08:17:47.000Z</time>
      </trkpt>
      <trkpt lat="46.36926" lon="4.7722">
        <ele>355.39999389648</ele>
        <time>2018-09-09T08:17:50.000Z</time>
      </trkpt>
      <trkpt lat="46.36944" lon="4.77221">
        <ele>352.39999389648</ele>
        <time>2018-09-09T08:17:53.000Z</time>
      </trkpt>
      <trkpt lat="46.36963" lon="4.77217">
        <ele>349</ele>
        <time>2018-09-09T08:17:56.000Z</time>
      </trkpt>
      <trkpt lat="46.3698" lon="4.77214">
        <ele>346</ele>
        <time>2018-09-09T08:17:59.000Z</time>
      </trkpt>
      <trkpt lat="46.36999" lon="4.77213">
        <ele>343.60000610352</ele>
        <time>2018-09-09T08:18:03.000Z</time>
      </trkpt>
      <trkpt lat="46.37004" lon="4.77214">
        <ele>343.20001220703</ele>
        <time>2018-09-09T08:18:04.000Z</time>
      </trkpt>
      <trkpt lat="46.37025" lon="4.77221">
        <ele>341.60000610352</ele>
        <time>2018-09-09T08:18:08.000Z</time>
      </trkpt>
      <trkpt lat="46.37039" lon="4.77245">
        <ele>341.39999389648</ele>
        <time>2018-09-09T08:18:12.000Z</time>
      </trkpt>
      <trkpt lat="46.37042" lon="4.77252">
        <ele>341.39999389648</ele>
        <time>2018-09-09T08:18:13.000Z</time>
      </trkpt>
      <trkpt lat="46.37056" lon="4.77273">
        <ele>341</ele>
        <time>2018-09-09T08:18:16.000Z</time>
      </trkpt>
      <trkpt lat="46.37074" lon="4.7729">
        <ele>340</ele>
        <time>2018-09-09T08:18:19.000Z</time>
      </trkpt>
      <trkpt lat="46.37093" lon="4.77304">
        <ele>338.20001220703</ele>
        <time>2018-09-09T08:18:22.000Z</time>
      </trkpt>
      <trkpt lat="46.37098" lon="4.77309">
        <ele>337.79998779297</ele>
        <time>2018-09-09T08:18:23.000Z</time>
      </trkpt>
      <trkpt lat="46.37117" lon="4.77325">
        <ele>336</ele>
        <time>2018-09-09T08:18:26.000Z</time>
      </trkpt>
      <trkpt lat="46.37124" lon="4.77329">
        <ele>335.39999389648</ele>
        <time>2018-09-09T08:18:27.000Z</time>
      </trkpt>
      <trkpt lat="46.37147" lon="4.77334">
        <ele>332.79998779297</ele>
        <time>2018-09-09T08:18:30.000Z</time>
      </trkpt>
      <trkpt lat="46.3717" lon="4.77327">
        <ele>329.20001220703</ele>
        <time>2018-09-09T08:18:33.000Z</time>
      </trkpt>
      <trkpt lat="46.37177" lon="4.77324">
        <ele>328</ele>
        <time>2018-09-09T08:18:34.000Z</time>
      </trkpt>
      <trkpt lat="46.37196" lon="4.77314">
        <ele>324</ele>
        <time>2018-09-09T08:18:38.000Z</time>
      </trkpt>
      <trkpt lat="46.37215" lon="4.77313">
        <ele>320.20001220703</ele>
        <time>2018-09-09T08:18:42.000Z</time>
      </trkpt>
      <trkpt lat="46.37226" lon="4.77315">
        <ele>318.20001220703</ele>
        <time>2018-09-09T08:18:44.000Z</time>
      </trkpt>
      <trkpt lat="46.37249" lon="4.77321">
        <ele>316</ele>
        <time>2018-09-09T08:18:48.000Z</time>
      </trkpt>
      <trkpt lat="46.37255" lon="4.77323">
        <ele>315.60000610352</ele>
        <time>2018-09-09T08:18:49.000Z</time>
      </trkpt>
      <trkpt lat="46.37261" lon="4.77326">
        <ele>315.20001220703</ele>
        <time>2018-09-09T08:18:50.000Z</time>
      </trkpt>
      <trkpt lat="46.3728" lon="4.77338">
        <ele>314.60000610352</ele>
        <time>2018-09-09T08:18:53.000Z</time>
      </trkpt>
      <trkpt lat="46.37293" lon="4.77347">
        <ele>314</ele>
        <time>2018-09-09T08:18:55.000Z</time>
      </trkpt>
      <trkpt lat="46.37311" lon="4.77358">
        <ele>313.39999389648</ele>
        <time>2018-09-09T08:18:58.000Z</time>
      </trkpt>
      <trkpt lat="46.37327" lon="4.77372">
        <ele>313.79998779297</ele>
        <time>2018-09-09T08:19:01.000Z</time>
      </trkpt>
      <trkpt lat="46.37333" lon="4.77379">
        <ele>313.39999389648</ele>
        <time>2018-09-09T08:19:02.000Z</time>
      </trkpt>
      <trkpt lat="46.37338" lon="4.77385">
        <ele>312.79998779297</ele>
        <time>2018-09-09T08:19:03.000Z</time>
      </trkpt>
      <trkpt lat="46.37353" lon="4.77406">
        <ele>311.39999389648</ele>
        <time>2018-09-09T08:19:06.000Z</time>
      </trkpt>
      <trkpt lat="46.37367" lon="4.77424">
        <ele>310.20001220703</ele>
        <time>2018-09-09T08:19:09.000Z</time>
      </trkpt>
      <trkpt lat="46.37383" lon="4.77445">
        <ele>309.39999389648</ele>
        <time>2018-09-09T08:19:12.000Z</time>
      </trkpt>
      <trkpt lat="46.37401" lon="4.77469">
        <ele>307.60000610352</ele>
        <time>2018-09-09T08:19:15.000Z</time>
      </trkpt>
      <trkpt lat="46.37419" lon="4.77491">
        <ele>305.20001220703</ele>
        <time>2018-09-09T08:19:18.000Z</time>
      </trkpt>
      <trkpt lat="46.37437" lon="4.77513">
        <ele>302.79998779297</ele>
        <time>2018-09-09T08:19:21.000Z</time>
      </trkpt>
      <trkpt lat="46.37456" lon="4.77536">
        <ele>300.39999389648</ele>
        <time>2018-09-09T08:19:24.000Z</time>
      </trkpt>
      <trkpt lat="46.37471" lon="4.77557">
        <ele>298.39999389648</ele>
        <time>2018-09-09T08:19:27.000Z</time>
      </trkpt>
      <trkpt lat="46.37487" lon="4.77572">
        <ele>296.39999389648</ele>
        <time>2018-09-09T08:19:33.000Z</time>
      </trkpt>
      <trkpt lat="46.3749" lon="4.77558">
        <ele>295.79998779297</ele>
        <time>2018-09-09T08:19:38.000Z</time>
      </trkpt>
      <trkpt lat="46.37491" lon="4.7753">
        <ele>296.60000610352</ele>
        <time>2018-09-09T08:19:46.000Z</time>
      </trkpt>
      <trkpt lat="46.37501" lon="4.77508">
        <ele>296.60000610352</ele>
        <time>2018-09-09T08:19:53.000Z</time>
      </trkpt>
      <trkpt lat="46.37518" lon="4.77491">
        <ele>296</ele>
        <time>2018-09-09T08:20:00.000Z</time>
      </trkpt>
      <trkpt lat="46.37533" lon="4.77474">
        <ele>297</ele>
        <time>2018-09-09T08:20:06.000Z</time>
      </trkpt>
      <trkpt lat="46.37548" lon="4.77456">
        <ele>298.20001220703</ele>
        <time>2018-09-09T08:20:12.000Z</time>
      </trkpt>
      <trkpt lat="46.37565" lon="4.77442">
        <ele>298.39999389648</ele>
        <time>2018-09-09T08:20:18.000Z</time>
      </trkpt>
      <trkpt lat="46.37583" lon="4.77443">
        <ele>297.39999389648</ele>
        <time>2018-09-09T08:20:23.000Z</time>
      </trkpt>
      <trkpt lat="46.37598" lon="4.77446">
        <ele>296.39999389648</ele>
        <time>2018-09-09T08:20:26.000Z</time>
      </trkpt>
      <trkpt lat="46.37619" lon="4.77449">
        <ele>295</ele>
        <time>2018-09-09T08:20:30.000Z</time>
      </trkpt>
      <trkpt lat="46.37636" lon="4.77434">
        <ele>294.20001220703</ele>
        <time>2018-09-09T08:23:38.000Z</time>
      </trkpt>
      <trkpt lat="46.37635" lon="4.77407">
        <ele>294.60000610352</ele>
        <time>2018-09-09T08:23:45.000Z</time>
      </trkpt>
      <trkpt lat="46.37633" lon="4.77394">
        <ele>295</ele>
        <time>2018-09-09T08:23:49.000Z</time>
      </trkpt>
      <trkpt lat="46.37628" lon="4.77373">
        <ele>295.60000610352</ele>
        <time>2018-09-09T08:23:55.000Z</time>
      </trkpt>
      <trkpt lat="46.3764" lon="4.7735">
        <ele>295</ele>
        <time>2018-09-09T08:24:02.000Z</time>
      </trkpt>
      <trkpt lat="46.37647" lon="4.77332">
        <ele>294.20001220703</ele>
        <time>2018-09-09T08:24:05.000Z</time>
      </trkpt>
      <trkpt lat="46.37654" lon="4.77306">
        <ele>293.39999389648</ele>
        <time>2018-09-09T08:24:09.000Z</time>
      </trkpt>
      <trkpt lat="46.37655" lon="4.77288">
        <ele>293.39999389648</ele>
        <time>2018-09-09T08:24:12.000Z</time>
      </trkpt>
      <trkpt lat="46.37641" lon="4.77269">
        <ele>292.60000610352</ele>
        <time>2018-09-09T08:24:16.000Z</time>
      </trkpt>
      <trkpt lat="46.3764" lon="4.77267">
        <ele>292.60000610352</ele>
        <time>2018-09-09T08:24:17.000Z</time>
      </trkpt>
      <trkpt lat="46.3764" lon="4.77259">
        <ele>291.60000610352</ele>
        <time>2018-09-09T08:24:20.000Z</time>
      </trkpt>
      <trkpt lat="46.3764" lon="4.77229">
        <ele>287.60000610352</ele>
        <time>2018-09-09T08:24:26.000Z</time>
      </trkpt>
      <trkpt lat="46.3764" lon="4.77224">
        <ele>286.79998779297</ele>
        <time>2018-09-09T08:24:27.000Z</time>
      </trkpt>
      <trkpt lat="46.37641" lon="4.77195">
        <ele>283</ele>
        <time>2018-09-09T08:24:32.000Z</time>
      </trkpt>
      <trkpt lat="46.37639" lon="4.77169">
        <ele>279.60000610352</ele>
        <time>2018-09-09T08:24:37.000Z</time>
      </trkpt>
      <trkpt lat="46.37638" lon="4.77154">
        <ele>277.60000610352</ele>
        <time>2018-09-09T08:24:40.000Z</time>
      </trkpt>
      <trkpt lat="46.37634" lon="4.77145">
        <ele>277</ele>
        <time>2018-09-09T08:24:42.000Z</time>
      </trkpt>
      <trkpt lat="46.37632" lon="4.77111">
        <ele>272.39999389648</ele>
        <time>2018-09-09T08:24:50.000Z</time>
      </trkpt>
      <trkpt lat="46.37629" lon="4.77106">
        <ele>272</ele>
        <time>2018-09-09T08:24:51.000Z</time>
      </trkpt>
      <trkpt lat="46.37616" lon="4.77078">
        <ele>270</ele>
        <time>2018-09-09T08:24:55.000Z</time>
      </trkpt>
      <trkpt lat="46.37605" lon="4.77054">
        <ele>268.60000610352</ele>
        <time>2018-09-09T08:24:58.000Z</time>
      </trkpt>
      <trkpt lat="46.37593" lon="4.7703">
        <ele>267.39999389648</ele>
        <time>2018-09-09T08:25:01.000Z</time>
      </trkpt>
      <trkpt lat="46.3758" lon="4.77008">
        <ele>267</ele>
        <time>2018-09-09T08:25:04.000Z</time>
      </trkpt>
      <trkpt lat="46.37566" lon="4.76989">
        <ele>267</ele>
        <time>2018-09-09T08:25:07.000Z</time>
      </trkpt>
      <trkpt lat="46.37552" lon="4.76971">
        <ele>266.79998779297</ele>
        <time>2018-09-09T08:25:10.000Z</time>
      </trkpt>
      <trkpt lat="46.37548" lon="4.76965">
        <ele>266.60000610352</ele>
        <time>2018-09-09T08:25:11.000Z</time>
      </trkpt>
      <trkpt lat="46.3753" lon="4.76943">
        <ele>266.60000610352</ele>
        <time>2018-09-09T08:25:15.000Z</time>
      </trkpt>
      <trkpt lat="46.37522" lon="4.76929">
        <ele>266.60000610352</ele>
        <time>2018-09-09T08:25:18.000Z</time>
      </trkpt>
      <trkpt lat="46.3752" lon="4.76899">
        <ele>266.20001220703</ele>
        <time>2018-09-09T08:25:22.000Z</time>
      </trkpt>
      <trkpt lat="46.37523" lon="4.76865">
        <ele>268.20001220703</ele>
        <time>2018-09-09T08:25:25.000Z</time>
      </trkpt>
      <trkpt lat="46.37526" lon="4.76855">
        <ele>268.39999389648</ele>
        <time>2018-09-09T08:25:26.000Z</time>
      </trkpt>
      <trkpt lat="46.37536" lon="4.76832">
        <ele>270</ele>
        <time>2018-09-09T08:25:29.000Z</time>
      </trkpt>
      <trkpt lat="46.37545" lon="4.76823">
        <ele>271.39999389648</ele>
        <time>2018-09-09T08:25:31.000Z</time>
      </trkpt>
      <trkpt lat="46.37558" lon="4.76808">
        <ele>273.79998779297</ele>
        <time>2018-09-09T08:25:34.000Z</time>
      </trkpt>
      <trkpt lat="46.37574" lon="4.76792">
        <ele>276.39999389648</ele>
        <time>2018-09-09T08:25:39.000Z</time>
      </trkpt>
      <trkpt lat="46.37591" lon="4.7678">
        <ele>279</ele>
        <time>2018-09-09T08:25:51.000Z</time>
      </trkpt>
      <trkpt lat="46.37609" lon="4.76773">
        <ele>281.20001220703</ele>
        <time>2018-09-09T08:26:06.000Z</time>
      </trkpt>
      <trkpt lat="46.37613" lon="4.76773">
        <ele>281.60000610352</ele>
        <time>2018-09-09T08:26:09.000Z</time>
      </trkpt>
      <trkpt lat="46.37626" lon="4.76759">
        <ele>284.20001220703</ele>
        <time>2018-09-09T08:26:21.000Z</time>
      </trkpt>
      <trkpt lat="46.37629" lon="4.76734">
        <ele>287.20001220703</ele>
        <time>2018-09-09T08:26:29.000Z</time>
      </trkpt>
      <trkpt lat="46.37631" lon="4.76707">
        <ele>290.60000610352</ele>
        <time>2018-09-09T08:26:39.000Z</time>
      </trkpt>
      <trkpt lat="46.37634" lon="4.7668">
        <ele>292.60000610352</ele>
        <time>2018-09-09T08:26:48.000Z</time>
      </trkpt>
      <trkpt lat="46.37637" lon="4.76653">
        <ele>295</ele>
        <time>2018-09-09T08:26:57.000Z</time>
      </trkpt>
      <trkpt lat="46.3764" lon="4.76626">
        <ele>297.39999389648</ele>
        <time>2018-09-09T08:27:06.000Z</time>
      </trkpt>
      <trkpt lat="46.37647" lon="4.766">
        <ele>299.39999389648</ele>
        <time>2018-09-09T08:27:14.000Z</time>
      </trkpt>
      <trkpt lat="46.37659" lon="4.76581">
        <ele>300.60000610352</ele>
        <time>2018-09-09T08:27:23.000Z</time>
      </trkpt>
      <trkpt lat="46.37673" lon="4.76559">
        <ele>301.79998779297</ele>
        <time>2018-09-09T08:27:32.000Z</time>
      </trkpt>
      <trkpt lat="46.37687" lon="4.76538">
        <ele>303.79998779297</ele>
        <time>2018-09-09T08:27:39.000Z</time>
      </trkpt>
      <trkpt lat="46.37692" lon="4.76514">
        <ele>304.20001220703</ele>
        <time>2018-09-09T08:27:47.000Z</time>
      </trkpt>
      <trkpt lat="46.37695" lon="4.76486">
        <ele>305.20001220703</ele>
        <time>2018-09-09T08:27:55.000Z</time>
      </trkpt>
      <trkpt lat="46.37702" lon="4.7646">
        <ele>307.20001220703</ele>
        <time>2018-09-09T08:28:04.000Z</time>
      </trkpt>
      <trkpt lat="46.3771" lon="4.76434">
        <ele>309.79998779297</ele>
        <time>2018-09-09T08:28:13.000Z</time>
      </trkpt>
      <trkpt lat="46.37716" lon="4.76406">
        <ele>312</ele>
        <time>2018-09-09T08:28:20.000Z</time>
      </trkpt>
      <trkpt lat="46.3772" lon="4.76379">
        <ele>314.20001220703</ele>
        <time>2018-09-09T08:28:27.000Z</time>
      </trkpt>
      <trkpt lat="46.37722" lon="4.7635">
        <ele>316</ele>
        <time>2018-09-09T08:28:34.000Z</time>
      </trkpt>
      <trkpt lat="46.37719" lon="4.76323">
        <ele>317.20001220703</ele>
        <time>2018-09-09T08:28:40.000Z</time>
      </trkpt>
      <trkpt lat="46.37718" lon="4.76293">
        <ele>319</ele>
        <time>2018-09-09T08:28:47.000Z</time>
      </trkpt>
      <trkpt lat="46.37717" lon="4.76263">
        <ele>320</ele>
        <time>2018-09-09T08:28:53.000Z</time>
      </trkpt>
      <trkpt lat="46.37719" lon="4.76235">
        <ele>321.20001220703</ele>
        <time>2018-09-09T08:29:00.000Z</time>
      </trkpt>
      <trkpt lat="46.37718" lon="4.76205">
        <ele>322.20001220703</ele>
        <time>2018-09-09T08:29:08.000Z</time>
      </trkpt>
      <trkpt lat="46.37722" lon="4.76182">
        <ele>324.39999389648</ele>
        <time>2018-09-09T08:29:15.000Z</time>
      </trkpt>
      <trkpt lat="46.37725" lon="4.76163">
        <ele>326</ele>
        <time>2018-09-09T08:29:20.000Z</time>
      </trkpt>
      <trkpt lat="46.37726" lon="4.76134">
        <ele>328.39999389648</ele>
        <time>2018-09-09T08:29:29.000Z</time>
      </trkpt>
      <trkpt lat="46.37732" lon="4.76108">
        <ele>331.20001220703</ele>
        <time>2018-09-09T08:29:37.000Z</time>
      </trkpt>
      <trkpt lat="46.37731" lon="4.76085">
        <ele>333.39999389648</ele>
        <time>2018-09-09T08:29:44.000Z</time>
      </trkpt>
      <trkpt lat="46.3773" lon="4.76073">
        <ele>334.39999389648</ele>
        <time>2018-09-09T08:29:47.000Z</time>
      </trkpt>
      <trkpt lat="46.37729" lon="4.76045">
        <ele>337</ele>
        <time>2018-09-09T08:29:56.000Z</time>
      </trkpt>
      <trkpt lat="46.37727" lon="4.76035">
        <ele>337.60000610352</ele>
        <time>2018-09-09T08:29:59.000Z</time>
      </trkpt>
      <trkpt lat="46.37719" lon="4.7601">
        <ele>339.20001220703</ele>
        <time>2018-09-09T08:30:06.000Z</time>
      </trkpt>
      <trkpt lat="46.37713" lon="4.75981">
        <ele>341</ele>
        <time>2018-09-09T08:30:13.000Z</time>
      </trkpt>
      <trkpt lat="46.37712" lon="4.75952">
        <ele>343.39999389648</ele>
        <time>2018-09-09T08:30:21.000Z</time>
      </trkpt>
      <trkpt lat="46.37708" lon="4.75925">
        <ele>345.39999389648</ele>
        <time>2018-09-09T08:30:29.000Z</time>
      </trkpt>
      <trkpt lat="46.377" lon="4.75899">
        <ele>347</ele>
        <time>2018-09-09T08:30:37.000Z</time>
      </trkpt>
      <trkpt lat="46.37693" lon="4.75872">
        <ele>348.60000610352</ele>
        <time>2018-09-09T08:30:47.000Z</time>
      </trkpt>
      <trkpt lat="46.37691" lon="4.75844">
        <ele>349.20001220703</ele>
        <time>2018-09-09T08:30:58.000Z</time>
      </trkpt>
      <trkpt lat="46.37691" lon="4.75816">
        <ele>350.20001220703</ele>
        <time>2018-09-09T08:31:08.000Z</time>
      </trkpt>
      <trkpt lat="46.37694" lon="4.7579">
        <ele>351.79998779297</ele>
        <time>2018-09-09T08:31:18.000Z</time>
      </trkpt>
      <trkpt lat="46.37699" lon="4.75761">
        <ele>352.79998779297</ele>
        <time>2018-09-09T08:31:28.000Z</time>
      </trkpt>
      <trkpt lat="46.377" lon="4.75732">
        <ele>353.60000610352</ele>
        <time>2018-09-09T08:31:37.000Z</time>
      </trkpt>
      <trkpt lat="46.37701" lon="4.75704">
        <ele>354.39999389648</ele>
        <time>2018-09-09T08:31:47.000Z</time>
      </trkpt>
      <trkpt lat="46.37704" lon="4.75674">
        <ele>353.79998779297</ele>
        <time>2018-09-09T08:31:56.000Z</time>
      </trkpt>
      <trkpt lat="46.3771" lon="4.75649">
        <ele>352.79998779297</ele>
        <time>2018-09-09T08:32:02.000Z</time>
      </trkpt>
      <trkpt lat="46.37717" lon="4.7562">
        <ele>351.79998779297</ele>
        <time>2018-09-09T08:32:08.000Z</time>
      </trkpt>
      <trkpt lat="46.37735" lon="4.75611">
        <ele>353</ele>
        <time>2018-09-09T08:32:17.000Z</time>
      </trkpt>
      <trkpt lat="46.37755" lon="4.7561">
        <ele>355.39999389648</ele>
        <time>2018-09-09T08:32:26.000Z</time>
      </trkpt>
      <trkpt lat="46.37773" lon="4.75611">
        <ele>357.60000610352</ele>
        <time>2018-09-09T08:32:34.000Z</time>
      </trkpt>
      <trkpt lat="46.37788" lon="4.7561">
        <ele>359.20001220703</ele>
        <time>2018-09-09T08:32:41.000Z</time>
      </trkpt>
      <trkpt lat="46.37808" lon="4.75608">
        <ele>361.39999389648</ele>
        <time>2018-09-09T08:32:49.000Z</time>
      </trkpt>
      <trkpt lat="46.37826" lon="4.75612">
        <ele>363.20001220703</ele>
        <time>2018-09-09T08:32:56.000Z</time>
      </trkpt>
      <trkpt lat="46.37839" lon="4.75632">
        <ele>365</ele>
        <time>2018-09-09T08:33:03.000Z</time>
      </trkpt>
      <trkpt lat="46.37852" lon="4.75652">
        <ele>366.39999389648</ele>
        <time>2018-09-09T08:33:11.000Z</time>
      </trkpt>
      <trkpt lat="46.37864" lon="4.75672">
        <ele>367.79998779297</ele>
        <time>2018-09-09T08:33:18.000Z</time>
      </trkpt>
      <trkpt lat="46.37873" lon="4.75695">
        <ele>369.20001220703</ele>
        <time>2018-09-09T08:33:24.000Z</time>
      </trkpt>
      <trkpt lat="46.37883" lon="4.75717">
        <ele>369</ele>
        <time>2018-09-09T08:33:30.000Z</time>
      </trkpt>
      <trkpt lat="46.37899" lon="4.75737">
        <ele>368.39999389648</ele>
        <time>2018-09-09T08:33:37.000Z</time>
      </trkpt>
      <trkpt lat="46.37913" lon="4.75755">
        <ele>367.39999389648</ele>
        <time>2018-09-09T08:33:42.000Z</time>
      </trkpt>
      <trkpt lat="46.37928" lon="4.7578">
        <ele>366</ele>
        <time>2018-09-09T08:33:47.000Z</time>
      </trkpt>
      <trkpt lat="46.37931" lon="4.75785">
        <ele>365.79998779297</ele>
        <time>2018-09-09T08:33:48.000Z</time>
      </trkpt>
      <trkpt lat="46.37939" lon="4.75797">
        <ele>365</ele>
        <time>2018-09-09T08:33:50.000Z</time>
      </trkpt>
      <trkpt lat="46.37954" lon="4.75823">
        <ele>363.39999389648</ele>
        <time>2018-09-09T08:33:54.000Z</time>
      </trkpt>
      <trkpt lat="46.37967" lon="4.75843">
        <ele>362</ele>
        <time>2018-09-09T08:33:57.000Z</time>
      </trkpt>
      <trkpt lat="46.37974" lon="4.75854">
        <ele>361.39999389648</ele>
        <time>2018-09-09T08:33:59.000Z</time>
      </trkpt>
      <trkpt lat="46.37987" lon="4.75873">
        <ele>359.60000610352</ele>
        <time>2018-09-09T08:34:02.000Z</time>
      </trkpt>
      <trkpt lat="46.38002" lon="4.75889">
        <ele>357.39999389648</ele>
        <time>2018-09-09T08:34:06.000Z</time>
      </trkpt>
      <trkpt lat="46.38021" lon="4.75901">
        <ele>355.20001220703</ele>
        <time>2018-09-09T08:34:10.000Z</time>
      </trkpt>
      <trkpt lat="46.38046" lon="4.75908">
        <ele>353.39999389648</ele>
        <time>2018-09-09T08:34:14.000Z</time>
      </trkpt>
      <trkpt lat="46.38066" lon="4.75907">
        <ele>352.39999389648</ele>
        <time>2018-09-09T08:34:17.000Z</time>
      </trkpt>
      <trkpt lat="46.38072" lon="4.75908">
        <ele>352</ele>
        <time>2018-09-09T08:34:18.000Z</time>
      </trkpt>
      <trkpt lat="46.38092" lon="4.75915">
        <ele>350</ele>
        <time>2018-09-09T08:34:21.000Z</time>
      </trkpt>
      <trkpt lat="46.38108" lon="4.7592">
        <ele>348.79998779297</ele>
        <time>2018-09-09T08:34:23.000Z</time>
      </trkpt>
      <trkpt lat="46.38123" lon="4.75924">
        <ele>347.39999389648</ele>
        <time>2018-09-09T08:34:25.000Z</time>
      </trkpt>
      <trkpt lat="46.38143" lon="4.7594">
        <ele>344.60000610352</ele>
        <time>2018-09-09T08:34:28.000Z</time>
      </trkpt>
      <trkpt lat="46.38158" lon="4.75964">
        <ele>341.20001220703</ele>
        <time>2018-09-09T08:34:31.000Z</time>
      </trkpt>
      <trkpt lat="46.3817" lon="4.75987">
        <ele>338</ele>
        <time>2018-09-09T08:34:34.000Z</time>
      </trkpt>
      <trkpt lat="46.38174" lon="4.75993">
        <ele>337.20001220703</ele>
        <time>2018-09-09T08:34:35.000Z</time>
      </trkpt>
      <trkpt lat="46.38188" lon="4.76005">
        <ele>334.60000610352</ele>
        <time>2018-09-09T08:34:38.000Z</time>
      </trkpt>
      <trkpt lat="46.38192" lon="4.7601">
        <ele>333.60000610352</ele>
        <time>2018-09-09T08:34:39.000Z</time>
      </trkpt>
      <trkpt lat="46.382" lon="4.7602">
        <ele>332.20001220703</ele>
        <time>2018-09-09T08:34:41.000Z</time>
      </trkpt>
      <trkpt lat="46.38219" lon="4.76027">
        <ele>329.39999389648</ele>
        <time>2018-09-09T08:34:45.000Z</time>
      </trkpt>
      <trkpt lat="46.38237" lon="4.7603">
        <ele>327.39999389648</ele>
        <time>2018-09-09T08:34:48.000Z</time>
      </trkpt>
      <trkpt lat="46.38259" lon="4.76031">
        <ele>325</ele>
        <time>2018-09-09T08:34:52.000Z</time>
      </trkpt>
      <trkpt lat="46.38269" lon="4.76033">
        <ele>324</ele>
        <time>2018-09-09T08:34:54.000Z</time>
      </trkpt>
      <trkpt lat="46.38288" lon="4.76041">
        <ele>321.39999389648</ele>
        <time>2018-09-09T08:34:58.000Z</time>
      </trkpt>
      <trkpt lat="46.38308" lon="4.7605">
        <ele>318.79998779297</ele>
        <time>2018-09-09T08:35:02.000Z</time>
      </trkpt>
      <trkpt lat="46.38322" lon="4.76061">
        <ele>316</ele>
        <time>2018-09-09T08:35:05.000Z</time>
      </trkpt>
      <trkpt lat="46.3834" lon="4.76075">
        <ele>311.39999389648</ele>
        <time>2018-09-09T08:35:09.000Z</time>
      </trkpt>
      <trkpt lat="46.38351" lon="4.76092">
        <ele>308.20001220703</ele>
        <time>2018-09-09T08:35:12.000Z</time>
      </trkpt>
      <trkpt lat="46.38366" lon="4.76111">
        <ele>303.79998779297</ele>
        <time>2018-09-09T08:35:16.000Z</time>
      </trkpt>
      <trkpt lat="46.38385" lon="4.76113">
        <ele>300</ele>
        <time>2018-09-09T08:35:20.000Z</time>
      </trkpt>
      <trkpt lat="46.38402" lon="4.761">
        <ele>296.79998779297</ele>
        <time>2018-09-09T08:35:25.000Z</time>
      </trkpt>
      <trkpt lat="46.38412" lon="4.76087">
        <ele>293.79998779297</ele>
        <time>2018-09-09T08:35:28.000Z</time>
      </trkpt>
      <trkpt lat="46.38423" lon="4.76059">
        <ele>291.39999389648</ele>
        <time>2018-09-09T08:35:32.000Z</time>
      </trkpt>
      <trkpt lat="46.38432" lon="4.76033">
        <ele>289.20001220703</ele>
        <time>2018-09-09T08:35:35.000Z</time>
      </trkpt>
      <trkpt lat="46.38441" lon="4.76006">
        <ele>286.39999389648</ele>
        <time>2018-09-09T08:35:38.000Z</time>
      </trkpt>
      <trkpt lat="46.38445" lon="4.75985">
        <ele>286</ele>
        <time>2018-09-09T08:35:45.000Z</time>
      </trkpt>
      <trkpt lat="46.38456" lon="4.76005">
        <ele>281.39999389648</ele>
        <time>2018-09-09T08:35:54.000Z</time>
      </trkpt>
      <trkpt lat="46.38459" lon="4.7601">
        <ele>280.20001220703</ele>
        <time>2018-09-09T08:35:57.000Z</time>
      </trkpt>
      <trkpt lat="46.38485" lon="4.76027">
        <ele>272</ele>
        <time>2018-09-09T08:36:16.000Z</time>
      </trkpt>
      <trkpt lat="46.38496" lon="4.76052">
        <ele>270.20001220703</ele>
        <time>2018-09-09T08:36:23.000Z</time>
      </trkpt>
      <trkpt lat="46.38502" lon="4.7606">
        <ele>269.20001220703</ele>
        <time>2018-09-09T08:36:28.000Z</time>
      </trkpt>
      <trkpt lat="46.38515" lon="4.76079">
        <ele>267.20001220703</ele>
        <time>2018-09-09T08:36:38.000Z</time>
      </trkpt>
      <trkpt lat="46.38527" lon="4.761">
        <ele>265.20001220703</ele>
        <time>2018-09-09T08:36:46.000Z</time>
      </trkpt>
      <trkpt lat="46.38543" lon="4.76111">
        <ele>263.39999389648</ele>
        <time>2018-09-09T08:36:55.000Z</time>
      </trkpt>
      <trkpt lat="46.38545" lon="4.76109">
        <ele>263.20001220703</ele>
        <time>2018-09-09T08:36:56.000Z</time>
      </trkpt>
      <trkpt lat="46.38556" lon="4.76088">
        <ele>262</ele>
        <time>2018-09-09T08:37:03.000Z</time>
      </trkpt>
      <trkpt lat="46.38566" lon="4.76064">
        <ele>260.79998779297</ele>
        <time>2018-09-09T08:37:10.000Z</time>
      </trkpt>
      <trkpt lat="46.38572" lon="4.76059">
        <ele>262.79998779297</ele>
        <time>2018-09-09T08:37:15.000Z</time>
      </trkpt>
      <trkpt lat="46.38571" lon="4.76062">
        <ele>262.39999389648</ele>
        <time>2018-09-09T08:37:30.000Z</time>
      </trkpt>
      <trkpt lat="46.38576" lon="4.76062">
        <ele>264.39999389648</ele>
        <time>2018-09-09T08:37:33.000Z</time>
      </trkpt>
      <trkpt lat="46.38589" lon="4.76045">
        <ele>268.20001220703</ele>
        <time>2018-09-09T08:37:47.000Z</time>
      </trkpt>
      <trkpt lat="46.38589" lon="4.76044">
        <ele>268.39999389648</ele>
        <time>2018-09-09T08:37:48.000Z</time>
      </trkpt>
      <trkpt lat="46.386" lon="4.75998">
        <ele>272</ele>
        <time>2018-09-09T08:38:20.000Z</time>
      </trkpt>
      <trkpt lat="46.38601" lon="4.75993">
        <ele>272.39999389648</ele>
        <time>2018-09-09T08:38:24.000Z</time>
      </trkpt>
      <trkpt lat="46.3863" lon="4.75938">
        <ele>279.60000610352</ele>
        <time>2018-09-09T08:39:20.000Z</time>
      </trkpt>
      <trkpt lat="46.38633" lon="4.75929">
        <ele>280</ele>
        <time>2018-09-09T08:39:25.000Z</time>
      </trkpt>
      <trkpt lat="46.38637" lon="4.759">
        <ele>279.60000610352</ele>
        <time>2018-09-09T08:39:33.000Z</time>
      </trkpt>
      <trkpt lat="46.38647" lon="4.75878">
        <ele>281</ele>
        <time>2018-09-09T08:39:40.000Z</time>
      </trkpt>
      <trkpt lat="46.38653" lon="4.75849">
        <ele>280</ele>
        <time>2018-09-09T08:39:47.000Z</time>
      </trkpt>
      <trkpt lat="46.38662" lon="4.75822">
        <ele>279.60000610352</ele>
        <time>2018-09-09T08:39:53.000Z</time>
      </trkpt>
      <trkpt lat="46.38665" lon="4.75792">
        <ele>277.20001220703</ele>
        <time>2018-09-09T08:39:59.000Z</time>
      </trkpt>
      <trkpt lat="46.38663" lon="4.75785">
        <ele>276</ele>
        <time>2018-09-09T08:40:00.000Z</time>
      </trkpt>
      <trkpt lat="46.38662" lon="4.75761">
        <ele>275.60000610352</ele>
        <time>2018-09-09T08:40:05.000Z</time>
      </trkpt>
      <trkpt lat="46.3867" lon="4.75731">
        <ele>276.79998779297</ele>
        <time>2018-09-09T08:40:14.000Z</time>
      </trkpt>
      <trkpt lat="46.38685" lon="4.75713">
        <ele>277.60000610352</ele>
        <time>2018-09-09T08:40:24.000Z</time>
      </trkpt>
      <trkpt lat="46.38701" lon="4.75696">
        <ele>279.20001220703</ele>
        <time>2018-09-09T08:40:32.000Z</time>
      </trkpt>
      <trkpt lat="46.38718" lon="4.75681">
        <ele>281.60000610352</ele>
        <time>2018-09-09T08:40:39.000Z</time>
      </trkpt>
      <trkpt lat="46.38734" lon="4.75666">
        <ele>284.60000610352</ele>
        <time>2018-09-09T08:40:47.000Z</time>
      </trkpt>
      <trkpt lat="46.3875" lon="4.75653">
        <ele>286.60000610352</ele>
        <time>2018-09-09T08:40:55.000Z</time>
      </trkpt>
      <trkpt lat="46.38768" lon="4.75642">
        <ele>288.79998779297</ele>
        <time>2018-09-09T08:41:01.000Z</time>
      </trkpt>
      <trkpt lat="46.38785" lon="4.75628">
        <ele>291.39999389648</ele>
        <time>2018-09-09T08:41:09.000Z</time>
      </trkpt>
      <trkpt lat="46.38805" lon="4.75624">
        <ele>293.79998779297</ele>
        <time>2018-09-09T08:41:19.000Z</time>
      </trkpt>
      <trkpt lat="46.38823" lon="4.75624">
        <ele>296.20001220703</ele>
        <time>2018-09-09T08:41:28.000Z</time>
      </trkpt>
      <trkpt lat="46.38842" lon="4.75625">
        <ele>299.20001220703</ele>
        <time>2018-09-09T08:41:37.000Z</time>
      </trkpt>
      <trkpt lat="46.38856" lon="4.75646">
        <ele>300.20001220703</ele>
        <time>2018-09-09T08:41:46.000Z</time>
      </trkpt>
      <trkpt lat="46.3887" lon="4.75663">
        <ele>301.20001220703</ele>
        <time>2018-09-09T08:41:56.000Z</time>
      </trkpt>
      <trkpt lat="46.38889" lon="4.75667">
        <ele>304.20001220703</ele>
        <time>2018-09-09T08:42:08.000Z</time>
      </trkpt>
      <trkpt lat="46.38907" lon="4.75671">
        <ele>306.79998779297</ele>
        <time>2018-09-09T08:42:19.000Z</time>
      </trkpt>
      <trkpt lat="46.38927" lon="4.75669">
        <ele>309.60000610352</ele>
        <time>2018-09-09T08:42:29.000Z</time>
      </trkpt>
      <trkpt lat="46.38943" lon="4.75666">
        <ele>312.20001220703</ele>
        <time>2018-09-09T08:42:40.000Z</time>
      </trkpt>
      <trkpt lat="46.38949" lon="4.75662">
        <ele>312.79998779297</ele>
        <time>2018-09-09T08:42:43.000Z</time>
      </trkpt>
      <trkpt lat="46.38966" lon="4.75649">
        <ele>314.79998779297</ele>
        <time>2018-09-09T08:42:54.000Z</time>
      </trkpt>
      <trkpt lat="46.38971" lon="4.75642">
        <ele>315.39999389648</ele>
        <time>2018-09-09T08:42:58.000Z</time>
      </trkpt>
      <trkpt lat="46.38976" lon="4.75639">
        <ele>316</ele>
        <time>2018-09-09T08:43:02.000Z</time>
      </trkpt>
      <trkpt lat="46.38992" lon="4.75621">
        <ele>317.79998779297</ele>
        <time>2018-09-09T08:43:13.000Z</time>
      </trkpt>
      <trkpt lat="46.39001" lon="4.75605">
        <ele>319.39999389648</ele>
        <time>2018-09-09T08:43:22.000Z</time>
      </trkpt>
      <trkpt lat="46.39019" lon="4.75591">
        <ele>321.60000610352</ele>
        <time>2018-09-09T08:43:33.000Z</time>
      </trkpt>
      <trkpt lat="46.39033" lon="4.75574">
        <ele>322.79998779297</ele>
        <time>2018-09-09T08:43:43.000Z</time>
      </trkpt>
      <trkpt lat="46.39046" lon="4.75554">
        <ele>323.39999389648</ele>
        <time>2018-09-09T08:43:53.000Z</time>
      </trkpt>
      <trkpt lat="46.39054" lon="4.75529">
        <ele>323.39999389648</ele>
        <time>2018-09-09T08:44:01.000Z</time>
      </trkpt>
      <trkpt lat="46.39064" lon="4.75505">
        <ele>323.60000610352</ele>
        <time>2018-09-09T08:44:10.000Z</time>
      </trkpt>
      <trkpt lat="46.39071" lon="4.75496">
        <ele>324</ele>
        <time>2018-09-09T08:44:15.000Z</time>
      </trkpt>
      <trkpt lat="46.39088" lon="4.75483">
        <ele>325.20001220703</ele>
        <time>2018-09-09T08:44:26.000Z</time>
      </trkpt>
      <trkpt lat="46.3909" lon="4.75481">
        <ele>325.39999389648</ele>
        <time>2018-09-09T08:44:27.000Z</time>
      </trkpt>
      <trkpt lat="46.39106" lon="4.75472">
        <ele>326.20001220703</ele>
        <time>2018-09-09T08:44:36.000Z</time>
      </trkpt>
      <trkpt lat="46.39126" lon="4.75474">
        <ele>327.39999389648</ele>
        <time>2018-09-09T08:44:45.000Z</time>
      </trkpt>
      <trkpt lat="46.39144" lon="4.75468">
        <ele>328.20001220703</ele>
        <time>2018-09-09T08:44:54.000Z</time>
      </trkpt>
      <trkpt lat="46.39148" lon="4.75467">
        <ele>328.39999389648</ele>
        <time>2018-09-09T08:44:56.000Z</time>
      </trkpt>
      <trkpt lat="46.3915" lon="4.75477">
        <ele>329</ele>
        <time>2018-09-09T08:45:02.000Z</time>
      </trkpt>
      <trkpt lat="46.39144" lon="4.75505">
        <ele>329.60000610352</ele>
        <time>2018-09-09T08:45:12.000Z</time>
      </trkpt>
      <trkpt lat="46.39135" lon="4.7553">
        <ele>329.79998779297</ele>
        <time>2018-09-09T08:45:20.000Z</time>
      </trkpt>
      <trkpt lat="46.39124" lon="4.75556">
        <ele>330</ele>
        <time>2018-09-09T08:45:28.000Z</time>
      </trkpt>
      <trkpt lat="46.39111" lon="4.75576">
        <ele>330.20001220703</ele>
        <time>2018-09-09T08:45:33.000Z</time>
      </trkpt>
      <trkpt lat="46.39103" lon="4.75587">
        <ele>329.60000610352</ele>
        <time>2018-09-09T08:45:35.000Z</time>
      </trkpt>
      <trkpt lat="46.39093" lon="4.75601">
        <ele>328</ele>
        <time>2018-09-09T08:45:38.000Z</time>
      </trkpt>
      <trkpt lat="46.39077" lon="4.75624">
        <ele>326</ele>
        <time>2018-09-09T08:45:42.000Z</time>
      </trkpt>
      <trkpt lat="46.39065" lon="4.75649">
        <ele>326</ele>
        <time>2018-09-09T08:45:46.000Z</time>
      </trkpt>
      <trkpt lat="46.39052" lon="4.75672">
        <ele>326.60000610352</ele>
        <time>2018-09-09T08:45:50.000Z</time>
      </trkpt>
      <trkpt lat="46.39039" lon="4.757">
        <ele>325.39999389648</ele>
        <time>2018-09-09T08:45:54.000Z</time>
      </trkpt>
      <trkpt lat="46.39029" lon="4.75723">
        <ele>324.79998779297</ele>
        <time>2018-09-09T08:45:57.000Z</time>
      </trkpt>
      <trkpt lat="46.39014" lon="4.75747">
        <ele>324</ele>
        <time>2018-09-09T08:46:02.000Z</time>
      </trkpt>
      <trkpt lat="46.38999" lon="4.75767">
        <ele>322.79998779297</ele>
        <time>2018-09-09T08:46:06.000Z</time>
      </trkpt>
      <trkpt lat="46.38989" lon="4.75781">
        <ele>322</ele>
        <time>2018-09-09T08:46:09.000Z</time>
      </trkpt>
      <trkpt lat="46.38973" lon="4.75804">
        <ele>321.60000610352</ele>
        <time>2018-09-09T08:46:14.000Z</time>
      </trkpt>
      <trkpt lat="46.38957" lon="4.7582">
        <ele>321.20001220703</ele>
        <time>2018-09-09T08:46:18.000Z</time>
      </trkpt>
      <trkpt lat="46.38939" lon="4.75839">
        <ele>321.20001220703</ele>
        <time>2018-09-09T08:46:22.000Z</time>
      </trkpt>
      <trkpt lat="46.38924" lon="4.75856">
        <ele>322.20001220703</ele>
        <time>2018-09-09T08:46:26.000Z</time>
      </trkpt>
      <trkpt lat="46.38907" lon="4.75871">
        <ele>322.79998779297</ele>
        <time>2018-09-09T08:46:30.000Z</time>
      </trkpt>
      <trkpt lat="46.38889" lon="4.75885">
        <ele>322</ele>
        <time>2018-09-09T08:46:35.000Z</time>
      </trkpt>
      <trkpt lat="46.38871" lon="4.759">
        <ele>321.39999389648</ele>
        <time>2018-09-09T08:46:40.000Z</time>
      </trkpt>
      <trkpt lat="46.38854" lon="4.75913">
        <ele>321</ele>
        <time>2018-09-09T08:46:45.000Z</time>
      </trkpt>
      <trkpt lat="46.38838" lon="4.75933">
        <ele>321.60000610352</ele>
        <time>2018-09-09T08:46:50.000Z</time>
      </trkpt>
      <trkpt lat="46.38826" lon="4.75953">
        <ele>322.60000610352</ele>
        <time>2018-09-09T08:46:54.000Z</time>
      </trkpt>
      <trkpt lat="46.38815" lon="4.75978">
        <ele>322.79998779297</ele>
        <time>2018-09-09T08:46:58.000Z</time>
      </trkpt>
      <trkpt lat="46.38808" lon="4.76003">
        <ele>322.60000610352</ele>
        <time>2018-09-09T08:47:02.000Z</time>
      </trkpt>
      <trkpt lat="46.388" lon="4.7603">
        <ele>322.39999389648</ele>
        <time>2018-09-09T08:47:06.000Z</time>
      </trkpt>
      <trkpt lat="46.38794" lon="4.76054">
        <ele>321.60000610352</ele>
        <time>2018-09-09T08:47:09.000Z</time>
      </trkpt>
      <trkpt lat="46.38782" lon="4.76081">
        <ele>319.20001220703</ele>
        <time>2018-09-09T08:47:13.000Z</time>
      </trkpt>
      <trkpt lat="46.38769" lon="4.76107">
        <ele>319</ele>
        <time>2018-09-09T08:47:18.000Z</time>
      </trkpt>
      <trkpt lat="46.38767" lon="4.76119">
        <ele>319.39999389648</ele>
        <time>2018-09-09T08:47:20.000Z</time>
      </trkpt>
      <trkpt lat="46.38765" lon="4.76132">
        <ele>319</ele>
        <time>2018-09-09T08:47:22.000Z</time>
      </trkpt>
      <trkpt lat="46.3876" lon="4.76159">
        <ele>318.39999389648</ele>
        <time>2018-09-09T08:47:26.000Z</time>
      </trkpt>
      <trkpt lat="46.38754" lon="4.7619">
        <ele>317.79998779297</ele>
        <time>2018-09-09T08:47:30.000Z</time>
      </trkpt>
      <trkpt lat="46.38745" lon="4.76214">
        <ele>316.79998779297</ele>
        <time>2018-09-09T08:47:34.000Z</time>
      </trkpt>
      <trkpt lat="46.38741" lon="4.76245">
        <ele>315.79998779297</ele>
        <time>2018-09-09T08:47:39.000Z</time>
      </trkpt>
      <trkpt lat="46.38743" lon="4.76275">
        <ele>315.20001220703</ele>
        <time>2018-09-09T08:47:43.000Z</time>
      </trkpt>
      <trkpt lat="46.38747" lon="4.76308">
        <ele>314.20001220703</ele>
        <time>2018-09-09T08:47:47.000Z</time>
      </trkpt>
      <trkpt lat="46.38748" lon="4.76338">
        <ele>312.79998779297</ele>
        <time>2018-09-09T08:47:50.000Z</time>
      </trkpt>
      <trkpt lat="46.38748" lon="4.76354">
        <ele>312</ele>
        <time>2018-09-09T08:47:52.000Z</time>
      </trkpt>
      <trkpt lat="46.38747" lon="4.76388">
        <ele>310</ele>
        <time>2018-09-09T08:47:56.000Z</time>
      </trkpt>
      <trkpt lat="46.38747" lon="4.76407">
        <ele>309</ele>
        <time>2018-09-09T08:47:58.000Z</time>
      </trkpt>
      <trkpt lat="46.38746" lon="4.76434">
        <ele>307.60000610352</ele>
        <time>2018-09-09T08:48:01.000Z</time>
      </trkpt>
      <trkpt lat="46.38745" lon="4.76447">
        <ele>307</ele>
        <time>2018-09-09T08:48:03.000Z</time>
      </trkpt>
      <trkpt lat="46.38744" lon="4.76477">
        <ele>304.79998779297</ele>
        <time>2018-09-09T08:48:08.000Z</time>
      </trkpt>
      <trkpt lat="46.38739" lon="4.76506">
        <ele>303</ele>
        <time>2018-09-09T08:48:12.000Z</time>
      </trkpt>
      <trkpt lat="46.38731" lon="4.76534">
        <ele>301.20001220703</ele>
        <time>2018-09-09T08:48:17.000Z</time>
      </trkpt>
      <trkpt lat="46.38728" lon="4.76563">
        <ele>299.20001220703</ele>
        <time>2018-09-09T08:48:21.000Z</time>
      </trkpt>
      <trkpt lat="46.38729" lon="4.76599">
        <ele>297.60000610352</ele>
        <time>2018-09-09T08:48:24.000Z</time>
      </trkpt>
      <trkpt lat="46.38733" lon="4.76633">
        <ele>296.20001220703</ele>
        <time>2018-09-09T08:48:27.000Z</time>
      </trkpt>
      <trkpt lat="46.38735" lon="4.76656">
        <ele>294.39999389648</ele>
        <time>2018-09-09T08:48:30.000Z</time>
      </trkpt>
      <trkpt lat="46.38731" lon="4.76688">
        <ele>292</ele>
        <time>2018-09-09T08:48:34.000Z</time>
      </trkpt>
      <trkpt lat="46.38729" lon="4.76696">
        <ele>291.20001220703</ele>
        <time>2018-09-09T08:48:35.000Z</time>
      </trkpt>
      <trkpt lat="46.38727" lon="4.76712">
        <ele>290.20001220703</ele>
        <time>2018-09-09T08:48:37.000Z</time>
      </trkpt>
      <trkpt lat="46.38727" lon="4.7673">
        <ele>289.79998779297</ele>
        <time>2018-09-09T08:48:39.000Z</time>
      </trkpt>
      <trkpt lat="46.38727" lon="4.76766">
        <ele>289.60000610352</ele>
        <time>2018-09-09T08:48:42.000Z</time>
      </trkpt>
      <trkpt lat="46.38726" lon="4.76793">
        <ele>289.20001220703</ele>
        <time>2018-09-09T08:48:45.000Z</time>
      </trkpt>
      <trkpt lat="46.38714" lon="4.7682">
        <ele>287.20001220703</ele>
        <time>2018-09-09T08:48:50.000Z</time>
      </trkpt>
      <trkpt lat="46.38705" lon="4.76847">
        <ele>286</ele>
        <time>2018-09-09T08:48:54.000Z</time>
      </trkpt>
      <trkpt lat="46.38696" lon="4.76878">
        <ele>284.79998779297</ele>
        <time>2018-09-09T08:48:58.000Z</time>
      </trkpt>
      <trkpt lat="46.38686" lon="4.76904">
        <ele>283</ele>
        <time>2018-09-09T08:49:02.000Z</time>
      </trkpt>
      <trkpt lat="46.38674" lon="4.76928">
        <ele>283.20001220703</ele>
        <time>2018-09-09T08:49:06.000Z</time>
      </trkpt>
      <trkpt lat="46.38661" lon="4.76947">
        <ele>283.39999389648</ele>
        <time>2018-09-09T08:49:10.000Z</time>
      </trkpt>
      <trkpt lat="46.38642" lon="4.76967">
        <ele>282.39999389648</ele>
        <time>2018-09-09T08:49:14.000Z</time>
      </trkpt>
      <trkpt lat="46.38627" lon="4.76981">
        <ele>280</ele>
        <time>2018-09-09T08:49:17.000Z</time>
      </trkpt>
      <trkpt lat="46.38613" lon="4.77">
        <ele>278</ele>
        <time>2018-09-09T08:49:20.000Z</time>
      </trkpt>
      <trkpt lat="46.38598" lon="4.77022">
        <ele>278</ele>
        <time>2018-09-09T08:49:23.000Z</time>
      </trkpt>
      <trkpt lat="46.38582" lon="4.77045">
        <ele>277.79998779297</ele>
        <time>2018-09-09T08:49:27.000Z</time>
      </trkpt>
      <trkpt lat="46.38569" lon="4.77067">
        <ele>278.39999389648</ele>
        <time>2018-09-09T08:49:31.000Z</time>
      </trkpt>
      <trkpt lat="46.38555" lon="4.77082">
        <ele>278.39999389648</ele>
        <time>2018-09-09T08:49:35.000Z</time>
      </trkpt>
      <trkpt lat="46.38546" lon="4.77087">
        <ele>277.60000610352</ele>
        <time>2018-09-09T08:49:37.000Z</time>
      </trkpt>
      <trkpt lat="46.38524" lon="4.77093">
        <ele>275</ele>
        <time>2018-09-09T08:49:41.000Z</time>
      </trkpt>
      <trkpt lat="46.38502" lon="4.77104">
        <ele>272.60000610352</ele>
        <time>2018-09-09T08:49:45.000Z</time>
      </trkpt>
      <trkpt lat="46.38491" lon="4.77113">
        <ele>271.79998779297</ele>
        <time>2018-09-09T08:49:47.000Z</time>
      </trkpt>
      <trkpt lat="46.38483" lon="4.77124">
        <ele>271.39999389648</ele>
        <time>2018-09-09T08:49:49.000Z</time>
      </trkpt>
      <trkpt lat="46.38468" lon="4.77148">
        <ele>271.20001220703</ele>
        <time>2018-09-09T08:49:53.000Z</time>
      </trkpt>
      <trkpt lat="46.38454" lon="4.77167">
        <ele>270.60000610352</ele>
        <time>2018-09-09T08:49:56.000Z</time>
      </trkpt>
      <trkpt lat="46.3844" lon="4.77186">
        <ele>269.79998779297</ele>
        <time>2018-09-09T08:49:59.000Z</time>
      </trkpt>
      <trkpt lat="46.38426" lon="4.77203">
        <ele>269</ele>
        <time>2018-09-09T08:50:02.000Z</time>
      </trkpt>
      <trkpt lat="46.38422" lon="4.77208">
        <ele>268.39999389648</ele>
        <time>2018-09-09T08:50:03.000Z</time>
      </trkpt>
      <trkpt lat="46.38417" lon="4.77211">
        <ele>267.60000610352</ele>
        <time>2018-09-09T08:50:04.000Z</time>
      </trkpt>
      <trkpt lat="46.38398" lon="4.77224">
        <ele>265.79998779297</ele>
        <time>2018-09-09T08:50:08.000Z</time>
      </trkpt>
      <trkpt lat="46.38394" lon="4.77229">
        <ele>265.79998779297</ele>
        <time>2018-09-09T08:50:09.000Z</time>
      </trkpt>
      <trkpt lat="46.3838" lon="4.77255">
        <ele>266.39999389648</ele>
        <time>2018-09-09T08:50:13.000Z</time>
      </trkpt>
      <trkpt lat="46.38376" lon="4.77285">
        <ele>268.39999389648</ele>
        <time>2018-09-09T08:50:17.000Z</time>
      </trkpt>
      <trkpt lat="46.38374" lon="4.77317">
        <ele>270</ele>
        <time>2018-09-09T08:50:21.000Z</time>
      </trkpt>
      <trkpt lat="46.38373" lon="4.77343">
        <ele>271.39999389648</ele>
        <time>2018-09-09T08:50:25.000Z</time>
      </trkpt>
      <trkpt lat="46.38372" lon="4.77354">
        <ele>271.60000610352</ele>
        <time>2018-09-09T08:50:26.000Z</time>
      </trkpt>
      <trkpt lat="46.38375" lon="4.77383">
        <ele>273</ele>
        <time>2018-09-09T08:50:30.000Z</time>
      </trkpt>
      <trkpt lat="46.38376" lon="4.77389">
        <ele>273</ele>
        <time>2018-09-09T08:50:31.000Z</time>
      </trkpt>
      <trkpt lat="46.38378" lon="4.77416">
        <ele>273.39999389648</ele>
        <time>2018-09-09T08:50:35.000Z</time>
      </trkpt>
      <trkpt lat="46.38378" lon="4.77453">
        <ele>273.60000610352</ele>
        <time>2018-09-09T08:50:40.000Z</time>
      </trkpt>
      <trkpt lat="46.3838" lon="4.7746">
        <ele>273.60000610352</ele>
        <time>2018-09-09T08:50:41.000Z</time>
      </trkpt>
      <trkpt lat="46.38392" lon="4.77487">
        <ele>274</ele>
        <time>2018-09-09T08:50:45.000Z</time>
      </trkpt>
      <trkpt lat="46.38394" lon="4.77493">
        <ele>274</ele>
        <time>2018-09-09T08:50:46.000Z</time>
      </trkpt>
      <trkpt lat="46.38405" lon="4.77516">
        <ele>273.79998779297</ele>
        <time>2018-09-09T08:50:50.000Z</time>
      </trkpt>
      <trkpt lat="46.38413" lon="4.77544">
        <ele>272.79998779297</ele>
        <time>2018-09-09T08:50:55.000Z</time>
      </trkpt>
      <trkpt lat="46.38423" lon="4.77573">
        <ele>272</ele>
        <time>2018-09-09T08:51:00.000Z</time>
      </trkpt>
      <trkpt lat="46.38426" lon="4.77607">
        <ele>270.60000610352</ele>
        <time>2018-09-09T08:51:04.000Z</time>
      </trkpt>
      <trkpt lat="46.38432" lon="4.77637">
        <ele>269.79998779297</ele>
        <time>2018-09-09T08:51:08.000Z</time>
      </trkpt>
      <trkpt lat="46.38439" lon="4.77666">
        <ele>268.79998779297</ele>
        <time>2018-09-09T08:51:12.000Z</time>
      </trkpt>
      <trkpt lat="46.38435" lon="4.77693">
        <ele>267.60000610352</ele>
        <time>2018-09-09T08:51:17.000Z</time>
      </trkpt>
      <trkpt lat="46.3843" lon="4.77703">
        <ele>267</ele>
        <time>2018-09-09T08:51:19.000Z</time>
      </trkpt>
      <trkpt lat="46.3842" lon="4.77712">
        <ele>266.20001220703</ele>
        <time>2018-09-09T08:51:22.000Z</time>
      </trkpt>
      <trkpt lat="46.38404" lon="4.77726">
        <ele>264.79998779297</ele>
        <time>2018-09-09T08:51:29.000Z</time>
      </trkpt>
      <trkpt lat="46.38398" lon="4.77737">
        <ele>264.20001220703</ele>
        <time>2018-09-09T08:51:33.000Z</time>
      </trkpt>
      <trkpt lat="46.38393" lon="4.77757">
        <ele>262.60000610352</ele>
        <time>2018-09-09T08:51:37.000Z</time>
      </trkpt>
      <trkpt lat="46.3839" lon="4.77783">
        <ele>261.60000610352</ele>
        <time>2018-09-09T08:51:42.000Z</time>
      </trkpt>
      <trkpt lat="46.3839" lon="4.77811">
        <ele>261</ele>
        <time>2018-09-09T08:51:47.000Z</time>
      </trkpt>
      <trkpt lat="46.38387" lon="4.7784">
        <ele>259.79998779297</ele>
        <time>2018-09-09T08:51:52.000Z</time>
      </trkpt>
      <trkpt lat="46.38386" lon="4.77867">
        <ele>259.20001220703</ele>
        <time>2018-09-09T08:51:56.000Z</time>
      </trkpt>
      <trkpt lat="46.38387" lon="4.77901">
        <ele>258.60000610352</ele>
        <time>2018-09-09T08:52:00.000Z</time>
      </trkpt>
      <trkpt lat="46.38389" lon="4.77933">
        <ele>258.20001220703</ele>
        <time>2018-09-09T08:52:04.000Z</time>
      </trkpt>
      <trkpt lat="46.38392" lon="4.77962">
        <ele>258</ele>
        <time>2018-09-09T08:52:08.000Z</time>
      </trkpt>
      <trkpt lat="46.38394" lon="4.77978">
        <ele>258</ele>
        <time>2018-09-09T08:52:10.000Z</time>
      </trkpt>
      <trkpt lat="46.384" lon="4.78009">
        <ele>257.60000610352</ele>
        <time>2018-09-09T08:52:14.000Z</time>
      </trkpt>
      <trkpt lat="46.38402" lon="4.78017">
        <ele>257.39999389648</ele>
        <time>2018-09-09T08:52:15.000Z</time>
      </trkpt>
      <trkpt lat="46.38413" lon="4.78043">
        <ele>256.60000610352</ele>
        <time>2018-09-09T08:52:19.000Z</time>
      </trkpt>
      <trkpt lat="46.38421" lon="4.78067">
        <ele>254.80000305176</ele>
        <time>2018-09-09T08:52:23.000Z</time>
      </trkpt>
      <trkpt lat="46.38417" lon="4.78095">
        <ele>252</ele>
        <time>2018-09-09T08:52:28.000Z</time>
      </trkpt>
      <trkpt lat="46.38412" lon="4.78107">
        <ele>250.80000305176</ele>
        <time>2018-09-09T08:52:30.000Z</time>
      </trkpt>
      <trkpt lat="46.3841" lon="4.78112">
        <ele>250.19999694824</ele>
        <time>2018-09-09T08:52:31.000Z</time>
      </trkpt>
      <trkpt lat="46.38392" lon="4.78127">
        <ele>248</ele>
        <time>2018-09-09T08:52:36.000Z</time>
      </trkpt>
      <trkpt lat="46.38374" lon="4.78139">
        <ele>245.39999389648</ele>
        <time>2018-09-09T08:52:41.000Z</time>
      </trkpt>
      <trkpt lat="46.38365" lon="4.78165">
        <ele>242.80000305176</ele>
        <time>2018-09-09T08:52:47.000Z</time>
      </trkpt>
      <trkpt lat="46.38365" lon="4.78198">
        <ele>240.60000610352</ele>
        <time>2018-09-09T08:52:51.000Z</time>
      </trkpt>
      <trkpt lat="46.38363" lon="4.78213">
        <ele>239.80000305176</ele>
        <time>2018-09-09T08:52:53.000Z</time>
      </trkpt>
      <trkpt lat="46.38358" lon="4.7824">
        <ele>238.80000305176</ele>
        <time>2018-09-09T08:52:57.000Z</time>
      </trkpt>
      <trkpt lat="46.38351" lon="4.78248">
        <ele>237.80000305176</ele>
        <time>2018-09-09T08:52:59.000Z</time>
      </trkpt>
      <trkpt lat="46.38336" lon="4.78251">
        <ele>235.80000305176</ele>
        <time>2018-09-09T08:53:03.000Z</time>
      </trkpt>
      <trkpt lat="46.38315" lon="4.78258">
        <ele>232.80000305176</ele>
        <time>2018-09-09T08:53:09.000Z</time>
      </trkpt>
      <trkpt lat="46.38297" lon="4.78267">
        <ele>231.60000610352</ele>
        <time>2018-09-09T08:53:13.000Z</time>
      </trkpt>
      <trkpt lat="46.38277" lon="4.78281">
        <ele>231.80000305176</ele>
        <time>2018-09-09T08:53:18.000Z</time>
      </trkpt>
      <trkpt lat="46.38269" lon="4.78291">
        <ele>232</ele>
        <time>2018-09-09T08:53:23.000Z</time>
      </trkpt>
      <trkpt lat="46.38244" lon="4.78297">
        <ele>232</ele>
        <time>2018-09-09T08:54:08.000Z</time>
      </trkpt>
      <trkpt lat="46.38237" lon="4.78291">
        <ele>232</ele>
        <time>2018-09-09T08:54:13.000Z</time>
      </trkpt>
      <trkpt lat="46.38221" lon="4.78274">
        <ele>232.80000305176</ele>
        <time>2018-09-09T08:54:23.000Z</time>
      </trkpt>
      <trkpt lat="46.38214" lon="4.78247">
        <ele>233</ele>
        <time>2018-09-09T08:54:34.000Z</time>
      </trkpt>
      <trkpt lat="46.38202" lon="4.78224">
        <ele>234</ele>
        <time>2018-09-09T08:54:45.000Z</time>
      </trkpt>
      <trkpt lat="46.38184" lon="4.78216">
        <ele>236</ele>
        <time>2018-09-09T08:54:55.000Z</time>
      </trkpt>
      <trkpt lat="46.38165" lon="4.78218">
        <ele>238.19999694824</ele>
        <time>2018-09-09T08:55:04.000Z</time>
      </trkpt>
      <trkpt lat="46.38146" lon="4.78225">
        <ele>242.39999389648</ele>
        <time>2018-09-09T08:55:16.000Z</time>
      </trkpt>
      <trkpt lat="46.38128" lon="4.78235">
        <ele>244.39999389648</ele>
        <time>2018-09-09T08:55:25.000Z</time>
      </trkpt>
      <trkpt lat="46.38111" lon="4.78249">
        <ele>247</ele>
        <time>2018-09-09T08:55:35.000Z</time>
      </trkpt>
      <trkpt lat="46.38103" lon="4.78256">
        <ele>248</ele>
        <time>2018-09-09T08:55:39.000Z</time>
      </trkpt>
      <trkpt lat="46.38099" lon="4.78258">
        <ele>248.19999694824</ele>
        <time>2018-09-09T08:55:41.000Z</time>
      </trkpt>
      <trkpt lat="46.3808" lon="4.7827">
        <ele>250</ele>
        <time>2018-09-09T08:55:50.000Z</time>
      </trkpt>
      <trkpt lat="46.38063" lon="4.78282">
        <ele>251.60000610352</ele>
        <time>2018-09-09T08:55:58.000Z</time>
      </trkpt>
      <trkpt lat="46.38044" lon="4.78294">
        <ele>252.60000610352</ele>
        <time>2018-09-09T08:56:07.000Z</time>
      </trkpt>
      <trkpt lat="46.38026" lon="4.78307">
        <ele>253.80000305176</ele>
        <time>2018-09-09T08:56:16.000Z</time>
      </trkpt>
      <trkpt lat="46.38007" lon="4.78319">
        <ele>254.80000305176</ele>
        <time>2018-09-09T08:56:23.000Z</time>
      </trkpt>
      <trkpt lat="46.3799" lon="4.7833">
        <ele>254.60000610352</ele>
        <time>2018-09-09T08:56:30.000Z</time>
      </trkpt>
      <trkpt lat="46.37971" lon="4.78341">
        <ele>255.39999389648</ele>
        <time>2018-09-09T08:56:38.000Z</time>
      </trkpt>
      <trkpt lat="46.37953" lon="4.78345">
        <ele>256.39999389648</ele>
        <time>2018-09-09T08:56:46.000Z</time>
      </trkpt>
      <trkpt lat="46.37936" lon="4.78353">
        <ele>257.20001220703</ele>
        <time>2018-09-09T08:56:54.000Z</time>
      </trkpt>
      <trkpt lat="46.37917" lon="4.7836">
        <ele>258</ele>
        <time>2018-09-09T08:57:03.000Z</time>
      </trkpt>
      <trkpt lat="46.37904" lon="4.78367">
        <ele>258.79998779297</ele>
        <time>2018-09-09T08:57:10.000Z</time>
      </trkpt>
      <trkpt lat="46.37886" lon="4.78378">
        <ele>260.60000610352</ele>
        <time>2018-09-09T08:57:20.000Z</time>
      </trkpt>
      <trkpt lat="46.3787" lon="4.7839">
        <ele>263</ele>
        <time>2018-09-09T08:57:29.000Z</time>
      </trkpt>
      <trkpt lat="46.37854" lon="4.78402">
        <ele>265.20001220703</ele>
        <time>2018-09-09T08:57:38.000Z</time>
      </trkpt>
      <trkpt lat="46.37839" lon="4.78416">
        <ele>267.60000610352</ele>
        <time>2018-09-09T08:57:47.000Z</time>
      </trkpt>
      <trkpt lat="46.37823" lon="4.78432">
        <ele>270</ele>
        <time>2018-09-09T08:57:57.000Z</time>
      </trkpt>
      <trkpt lat="46.37809" lon="4.78439">
        <ele>272</ele>
        <time>2018-09-09T08:58:04.000Z</time>
      </trkpt>
      <trkpt lat="46.37791" lon="4.78435">
        <ele>273.79998779297</ele>
        <time>2018-09-09T08:58:12.000Z</time>
      </trkpt>
      <trkpt lat="46.37772" lon="4.78434">
        <ele>275.39999389648</ele>
        <time>2018-09-09T08:58:21.000Z</time>
      </trkpt>
      <trkpt lat="46.37752" lon="4.78435">
        <ele>277</ele>
        <time>2018-09-09T08:58:30.000Z</time>
      </trkpt>
      <trkpt lat="46.37732" lon="4.78437">
        <ele>278.79998779297</ele>
        <time>2018-09-09T08:58:39.000Z</time>
      </trkpt>
      <trkpt lat="46.37714" lon="4.78435">
        <ele>281</ele>
        <time>2018-09-09T08:58:47.000Z</time>
      </trkpt>
      <trkpt lat="46.37695" lon="4.78432">
        <ele>283.79998779297</ele>
        <time>2018-09-09T08:58:56.000Z</time>
      </trkpt>
      <trkpt lat="46.37683" lon="4.78422">
        <ele>285.39999389648</ele>
        <time>2018-09-09T08:59:05.000Z</time>
      </trkpt>
      <trkpt lat="46.37678" lon="4.78409">
        <ele>285.60000610352</ele>
        <time>2018-09-09T08:59:10.000Z</time>
      </trkpt>
      <trkpt lat="46.37667" lon="4.78388">
        <ele>286.60000610352</ele>
        <time>2018-09-09T08:59:18.000Z</time>
      </trkpt>
      <trkpt lat="46.37653" lon="4.78367">
        <ele>288.20001220703</ele>
        <time>2018-09-09T08:59:27.000Z</time>
      </trkpt>
      <trkpt lat="46.37636" lon="4.78356">
        <ele>289.79998779297</ele>
        <time>2018-09-09T08:59:36.000Z</time>
      </trkpt>
      <trkpt lat="46.3762" lon="4.78341">
        <ele>291</ele>
        <time>2018-09-09T08:59:44.000Z</time>
      </trkpt>
      <trkpt lat="46.37604" lon="4.78328">
        <ele>292.20001220703</ele>
        <time>2018-09-09T08:59:51.000Z</time>
      </trkpt>
      <trkpt lat="46.37584" lon="4.78317">
        <ele>293.79998779297</ele>
        <time>2018-09-09T08:59:58.000Z</time>
      </trkpt>
      <trkpt lat="46.37567" lon="4.78308">
        <ele>295.20001220703</ele>
        <time>2018-09-09T09:00:04.000Z</time>
      </trkpt>
      <trkpt lat="46.3755" lon="4.78292">
        <ele>295.39999389648</ele>
        <time>2018-09-09T09:00:11.000Z</time>
      </trkpt>
      <trkpt lat="46.37538" lon="4.78269">
        <ele>296</ele>
        <time>2018-09-09T09:00:19.000Z</time>
      </trkpt>
      <trkpt lat="46.37528" lon="4.78247">
        <ele>296.79998779297</ele>
        <time>2018-09-09T09:00:28.000Z</time>
      </trkpt>
      <trkpt lat="46.37522" lon="4.78226">
        <ele>297</ele>
        <time>2018-09-09T09:00:36.000Z</time>
      </trkpt>
      <trkpt lat="46.37513" lon="4.78201">
        <ele>297.39999389648</ele>
        <time>2018-09-09T09:00:43.000Z</time>
      </trkpt>
      <trkpt lat="46.37508" lon="4.78172">
        <ele>297.79998779297</ele>
        <time>2018-09-09T09:00:51.000Z</time>
      </trkpt>
      <trkpt lat="46.37508" lon="4.78161">
        <ele>297.79998779297</ele>
        <time>2018-09-09T09:00:55.000Z</time>
      </trkpt>
      <trkpt lat="46.37509" lon="4.78132">
        <ele>297.39999389648</ele>
        <time>2018-09-09T09:01:01.000Z</time>
      </trkpt>
      <trkpt lat="46.37511" lon="4.78098">
        <ele>297.20001220703</ele>
        <time>2018-09-09T09:01:08.000Z</time>
      </trkpt>
      <trkpt lat="46.37513" lon="4.78069">
        <ele>297</ele>
        <time>2018-09-09T09:01:14.000Z</time>
      </trkpt>
      <trkpt lat="46.37512" lon="4.78042">
        <ele>297.20001220703</ele>
        <time>2018-09-09T09:01:20.000Z</time>
      </trkpt>
      <trkpt lat="46.37509" lon="4.78013">
        <ele>297.39999389648</ele>
        <time>2018-09-09T09:01:26.000Z</time>
      </trkpt>
      <trkpt lat="46.37501" lon="4.77985">
        <ele>297.79998779297</ele>
        <time>2018-09-09T09:01:30.000Z</time>
      </trkpt>
      <trkpt lat="46.37494" lon="4.77963">
        <ele>298.20001220703</ele>
        <time>2018-09-09T09:01:34.000Z</time>
      </trkpt>
      <trkpt lat="46.37475" lon="4.77946">
        <ele>299.60000610352</ele>
        <time>2018-09-09T09:01:38.000Z</time>
      </trkpt>
      <trkpt lat="46.37452" lon="4.77947">
        <ele>301.39999389648</ele>
        <time>2018-09-09T09:01:44.000Z</time>
      </trkpt>
      <trkpt lat="46.37431" lon="4.7795">
        <ele>303.20001220703</ele>
        <time>2018-09-09T09:01:49.000Z</time>
      </trkpt>
      <trkpt lat="46.37421" lon="4.7795">
        <ele>304</ele>
        <time>2018-09-09T09:01:51.000Z</time>
      </trkpt>
      <trkpt lat="46.37401" lon="4.77949">
        <ele>305.79998779297</ele>
        <time>2018-09-09T09:01:55.000Z</time>
      </trkpt>
      <trkpt lat="46.37382" lon="4.77954">
        <ele>306.39999389648</ele>
        <time>2018-09-09T09:01:59.000Z</time>
      </trkpt>
      <trkpt lat="46.37367" lon="4.77955">
        <ele>306.79998779297</ele>
        <time>2018-09-09T09:02:03.000Z</time>
      </trkpt>
      <trkpt lat="46.37348" lon="4.77963">
        <ele>307</ele>
        <time>2018-09-09T09:02:08.000Z</time>
      </trkpt>
      <trkpt lat="46.37341" lon="4.77962">
        <ele>307.20001220703</ele>
        <time>2018-09-09T09:02:10.000Z</time>
      </trkpt>
      <trkpt lat="46.37322" lon="4.77957">
        <ele>307.79998779297</ele>
        <time>2018-09-09T09:02:17.000Z</time>
      </trkpt>
      <trkpt lat="46.37305" lon="4.7796">
        <ele>309</ele>
        <time>2018-09-09T09:02:22.000Z</time>
      </trkpt>
      <trkpt lat="46.37284" lon="4.77966">
        <ele>311.20001220703</ele>
        <time>2018-09-09T09:02:28.000Z</time>
      </trkpt>
      <trkpt lat="46.37266" lon="4.77974">
        <ele>313.20001220703</ele>
        <time>2018-09-09T09:02:33.000Z</time>
      </trkpt>
      <trkpt lat="46.37248" lon="4.77978">
        <ele>315</ele>
        <time>2018-09-09T09:02:38.000Z</time>
      </trkpt>
      <trkpt lat="46.37228" lon="4.77981">
        <ele>316.79998779297</ele>
        <time>2018-09-09T09:02:45.000Z</time>
      </trkpt>
      <trkpt lat="46.37208" lon="4.77978">
        <ele>318.79998779297</ele>
        <time>2018-09-09T09:02:54.000Z</time>
      </trkpt>
      <trkpt lat="46.3719" lon="4.77968">
        <ele>321.20001220703</ele>
        <time>2018-09-09T09:03:04.000Z</time>
      </trkpt>
      <trkpt lat="46.37172" lon="4.77964">
        <ele>323.20001220703</ele>
        <time>2018-09-09T09:03:13.000Z</time>
      </trkpt>
      <trkpt lat="46.37152" lon="4.77968">
        <ele>324.79998779297</ele>
        <time>2018-09-09T09:03:23.000Z</time>
      </trkpt>
      <trkpt lat="46.37133" lon="4.77969">
        <ele>327.39999389648</ele>
        <time>2018-09-09T09:03:33.000Z</time>
      </trkpt>
      <trkpt lat="46.37112" lon="4.7797">
        <ele>330.20001220703</ele>
        <time>2018-09-09T09:03:44.000Z</time>
      </trkpt>
      <trkpt lat="46.37102" lon="4.77948">
        <ele>332.79998779297</ele>
        <time>2018-09-09T09:03:57.000Z</time>
      </trkpt>
      <trkpt lat="46.37098" lon="4.77926">
        <ele>333.79998779297</ele>
        <time>2018-09-09T09:04:05.000Z</time>
      </trkpt>
      <trkpt lat="46.37085" lon="4.77905">
        <ele>336.20001220703</ele>
        <time>2018-09-09T09:04:14.000Z</time>
      </trkpt>
      <trkpt lat="46.37073" lon="4.77886">
        <ele>338.39999389648</ele>
        <time>2018-09-09T09:04:24.000Z</time>
      </trkpt>
      <trkpt lat="46.37071" lon="4.7788">
        <ele>338.79998779297</ele>
        <time>2018-09-09T09:04:26.000Z</time>
      </trkpt>
      <trkpt lat="46.37067" lon="4.77868">
        <ele>339.79998779297</ele>
        <time>2018-09-09T09:04:31.000Z</time>
      </trkpt>
      <trkpt lat="46.37051" lon="4.77854">
        <ele>342.20001220703</ele>
        <time>2018-09-09T09:04:39.000Z</time>
      </trkpt>
      <trkpt lat="46.37034" lon="4.77844">
        <ele>344.79998779297</ele>
        <time>2018-09-09T09:04:48.000Z</time>
      </trkpt>
      <trkpt lat="46.37026" lon="4.77833">
        <ele>346</ele>
        <time>2018-09-09T09:04:54.000Z</time>
      </trkpt>
      <trkpt lat="46.37024" lon="4.77823">
        <ele>346.39999389648</ele>
        <time>2018-09-09T09:04:58.000Z</time>
      </trkpt>
      <trkpt lat="46.37024" lon="4.7782">
        <ele>346.60000610352</ele>
        <time>2018-09-09T09:04:59.000Z</time>
      </trkpt>
      <trkpt lat="46.37018" lon="4.77793">
        <ele>348</ele>
        <time>2018-09-09T09:05:08.000Z</time>
      </trkpt>
      <trkpt lat="46.37008" lon="4.77779">
        <ele>349.79998779297</ele>
        <time>2018-09-09T09:05:14.000Z</time>
      </trkpt>
      <trkpt lat="46.3699" lon="4.77771">
        <ele>352.39999389648</ele>
        <time>2018-09-09T09:05:22.000Z</time>
      </trkpt>
      <trkpt lat="46.36972" lon="4.7777">
        <ele>353.79998779297</ele>
        <time>2018-09-09T09:05:30.000Z</time>
      </trkpt>
      <trkpt lat="46.36953" lon="4.77772">
        <ele>354.20001220703</ele>
        <time>2018-09-09T09:05:39.000Z</time>
      </trkpt>
      <trkpt lat="46.36934" lon="4.77779">
        <ele>354.39999389648</ele>
        <time>2018-09-09T09:05:47.000Z</time>
      </trkpt>
      <trkpt lat="46.36916" lon="4.77786">
        <ele>354.60000610352</ele>
        <time>2018-09-09T09:05:54.000Z</time>
      </trkpt>
      <trkpt lat="46.36898" lon="4.77793">
        <ele>354.79998779297</ele>
        <time>2018-09-09T09:06:01.000Z</time>
      </trkpt>
      <trkpt lat="46.36895" lon="4.77798">
        <ele>354.79998779297</ele>
        <time>2018-09-09T09:06:05.000Z</time>
      </trkpt>
      <trkpt lat="46.36891" lon="4.77801">
        <ele>354.79998779297</ele>
        <time>2018-09-09T09:06:07.000Z</time>
      </trkpt>
      <trkpt lat="46.36878" lon="4.77825">
        <ele>354.39999389648</ele>
        <time>2018-09-09T09:06:12.000Z</time>
      </trkpt>
      <trkpt lat="46.36869" lon="4.77849">
        <ele>353.60000610352</ele>
        <time>2018-09-09T09:06:17.000Z</time>
      </trkpt>
      <trkpt lat="46.36865" lon="4.77881">
        <ele>351.39999389648</ele>
        <time>2018-09-09T09:06:23.000Z</time>
      </trkpt>
      <trkpt lat="46.36856" lon="4.77903">
        <ele>350</ele>
        <time>2018-09-09T09:06:27.000Z</time>
      </trkpt>
      <trkpt lat="46.36845" lon="4.77916">
        <ele>348.79998779297</ele>
        <time>2018-09-09T09:06:30.000Z</time>
      </trkpt>
      <trkpt lat="46.36831" lon="4.77931">
        <ele>347.20001220703</ele>
        <time>2018-09-09T09:06:33.000Z</time>
      </trkpt>
      <trkpt lat="46.36819" lon="4.77945">
        <ele>345.79998779297</ele>
        <time>2018-09-09T09:06:36.000Z</time>
      </trkpt>
      <trkpt lat="46.36805" lon="4.77963">
        <ele>343.79998779297</ele>
        <time>2018-09-09T09:06:39.000Z</time>
      </trkpt>
      <trkpt lat="46.3679" lon="4.7798">
        <ele>341.60000610352</ele>
        <time>2018-09-09T09:06:42.000Z</time>
      </trkpt>
      <trkpt lat="46.36774" lon="4.77995">
        <ele>339.60000610352</ele>
        <time>2018-09-09T09:06:45.000Z</time>
      </trkpt>
      <trkpt lat="46.36759" lon="4.78011">
        <ele>337</ele>
        <time>2018-09-09T09:06:48.000Z</time>
      </trkpt>
      <trkpt lat="46.36747" lon="4.78031">
        <ele>334.20001220703</ele>
        <time>2018-09-09T09:06:51.000Z</time>
      </trkpt>
      <trkpt lat="46.36733" lon="4.78055">
        <ele>330.60000610352</ele>
        <time>2018-09-09T09:06:56.000Z</time>
      </trkpt>
      <trkpt lat="46.36724" lon="4.78079">
        <ele>327.39999389648</ele>
        <time>2018-09-09T09:07:01.000Z</time>
      </trkpt>
      <trkpt lat="46.3671" lon="4.78102">
        <ele>324.20001220703</ele>
        <time>2018-09-09T09:07:06.000Z</time>
      </trkpt>
      <trkpt lat="46.36695" lon="4.78122">
        <ele>322.60000610352</ele>
        <time>2018-09-09T09:07:11.000Z</time>
      </trkpt>
      <trkpt lat="46.36679" lon="4.78139">
        <ele>320.20001220703</ele>
        <time>2018-09-09T09:07:15.000Z</time>
      </trkpt>
      <trkpt lat="46.36663" lon="4.78158">
        <ele>317.60000610352</ele>
        <time>2018-09-09T09:07:20.000Z</time>
      </trkpt>
      <trkpt lat="46.36647" lon="4.7818">
        <ele>314.79998779297</ele>
        <time>2018-09-09T09:07:24.000Z</time>
      </trkpt>
      <trkpt lat="46.36639" lon="4.7819">
        <ele>313.60000610352</ele>
        <time>2018-09-09T09:07:26.000Z</time>
      </trkpt>
      <trkpt lat="46.3662" lon="4.78204">
        <ele>312.79998779297</ele>
        <time>2018-09-09T09:07:30.000Z</time>
      </trkpt>
      <trkpt lat="46.36602" lon="4.78217">
        <ele>312</ele>
        <time>2018-09-09T09:07:35.000Z</time>
      </trkpt>
      <trkpt lat="46.36585" lon="4.78227">
        <ele>311.60000610352</ele>
        <time>2018-09-09T09:07:41.000Z</time>
      </trkpt>
      <trkpt lat="46.36569" lon="4.78242">
        <ele>311.20001220703</ele>
        <time>2018-09-09T09:07:46.000Z</time>
      </trkpt>
      <trkpt lat="46.36553" lon="4.78256">
        <ele>310.60000610352</ele>
        <time>2018-09-09T09:07:51.000Z</time>
      </trkpt>
      <trkpt lat="46.36537" lon="4.78269">
        <ele>310.20001220703</ele>
        <time>2018-09-09T09:07:56.000Z</time>
      </trkpt>
      <trkpt lat="46.36521" lon="4.78289">
        <ele>309.39999389648</ele>
        <time>2018-09-09T09:08:02.000Z</time>
      </trkpt>
      <trkpt lat="46.36513" lon="4.78294">
        <ele>308.79998779297</ele>
        <time>2018-09-09T09:08:04.000Z</time>
      </trkpt>
      <trkpt lat="46.36495" lon="4.78306">
        <ele>308</ele>
        <time>2018-09-09T09:08:09.000Z</time>
      </trkpt>
      <trkpt lat="46.36484" lon="4.78314">
        <ele>308</ele>
        <time>2018-09-09T09:08:12.000Z</time>
      </trkpt>
      <trkpt lat="46.36467" lon="4.78333">
        <ele>306.20001220703</ele>
        <time>2018-09-09T09:08:16.000Z</time>
      </trkpt>
      <trkpt lat="46.36462" lon="4.78337">
        <ele>305.79998779297</ele>
        <time>2018-09-09T09:08:17.000Z</time>
      </trkpt>
      <trkpt lat="46.36445" lon="4.78345">
        <ele>304.79998779297</ele>
        <time>2018-09-09T09:08:20.000Z</time>
      </trkpt>
      <trkpt lat="46.36423" lon="4.78347">
        <ele>304.60000610352</ele>
        <time>2018-09-09T09:08:24.000Z</time>
      </trkpt>
      <trkpt lat="46.36405" lon="4.78357">
        <ele>303.60000610352</ele>
        <time>2018-09-09T09:08:29.000Z</time>
      </trkpt>
      <trkpt lat="46.3639" lon="4.78375">
        <ele>301.60000610352</ele>
        <time>2018-09-09T09:08:33.000Z</time>
      </trkpt>
      <trkpt lat="46.36379" lon="4.78389">
        <ele>299.20001220703</ele>
        <time>2018-09-09T09:08:36.000Z</time>
      </trkpt>
      <trkpt lat="46.3636" lon="4.78401">
        <ele>297.60000610352</ele>
        <time>2018-09-09T09:08:40.000Z</time>
      </trkpt>
      <trkpt lat="46.36337" lon="4.7841">
        <ele>296.79998779297</ele>
        <time>2018-09-09T09:08:44.000Z</time>
      </trkpt>
      <trkpt lat="46.36321" lon="4.78421">
        <ele>295.60000610352</ele>
        <time>2018-09-09T09:08:47.000Z</time>
      </trkpt>
      <trkpt lat="46.36316" lon="4.78425">
        <ele>294.79998779297</ele>
        <time>2018-09-09T09:08:48.000Z</time>
      </trkpt>
      <trkpt lat="46.36305" lon="4.78452">
        <ele>290.20001220703</ele>
        <time>2018-09-09T09:08:52.000Z</time>
      </trkpt>
      <trkpt lat="46.36303" lon="4.7848">
        <ele>287.60000610352</ele>
        <time>2018-09-09T09:08:57.000Z</time>
      </trkpt>
      <trkpt lat="46.363" lon="4.78496">
        <ele>286.20001220703</ele>
        <time>2018-09-09T09:09:01.000Z</time>
      </trkpt>
      <trkpt lat="46.36291" lon="4.78522">
        <ele>284.39999389648</ele>
        <time>2018-09-09T09:09:08.000Z</time>
      </trkpt>
      <trkpt lat="46.36283" lon="4.78547">
        <ele>285.60000610352</ele>
        <time>2018-09-09T09:09:15.000Z</time>
      </trkpt>
      <trkpt lat="46.36276" lon="4.78571">
        <ele>288</ele>
        <time>2018-09-09T09:09:23.000Z</time>
      </trkpt>
      <trkpt lat="46.36271" lon="4.78596">
        <ele>291</ele>
        <time>2018-09-09T09:09:34.000Z</time>
      </trkpt>
      <trkpt lat="46.36253" lon="4.78612">
        <ele>294.20001220703</ele>
        <time>2018-09-09T09:09:50.000Z</time>
      </trkpt>
      <trkpt lat="46.36244" lon="4.78613">
        <ele>295</ele>
        <time>2018-09-09T09:09:57.000Z</time>
      </trkpt>
      <trkpt lat="46.36228" lon="4.78617">
        <ele>296.79998779297</ele>
        <time>2018-09-09T09:10:09.000Z</time>
      </trkpt>
      <trkpt lat="46.36211" lon="4.78619">
        <ele>298.60000610352</ele>
        <time>2018-09-09T09:10:19.000Z</time>
      </trkpt>
      <trkpt lat="46.36194" lon="4.78628">
        <ele>301.60000610352</ele>
        <time>2018-09-09T09:10:32.000Z</time>
      </trkpt>
      <trkpt lat="46.36178" lon="4.7864">
        <ele>305.20001220703</ele>
        <time>2018-09-09T09:10:44.000Z</time>
      </trkpt>
      <trkpt lat="46.3616" lon="4.78651">
        <ele>308.20001220703</ele>
        <time>2018-09-09T09:10:57.000Z</time>
      </trkpt>
      <trkpt lat="46.36142" lon="4.7866">
        <ele>310.20001220703</ele>
        <time>2018-09-09T09:11:10.000Z</time>
      </trkpt>
      <trkpt lat="46.36136" lon="4.78663">
        <ele>310.79998779297</ele>
        <time>2018-09-09T09:11:13.000Z</time>
      </trkpt>
      <trkpt lat="46.36118" lon="4.78672">
        <ele>312.39999389648</ele>
        <time>2018-09-09T09:11:23.000Z</time>
      </trkpt>
      <trkpt lat="46.361" lon="4.7868">
        <ele>314.20001220703</ele>
        <time>2018-09-09T09:11:31.000Z</time>
      </trkpt>
      <trkpt lat="46.36082" lon="4.78688">
        <ele>316</ele>
        <time>2018-09-09T09:11:37.000Z</time>
      </trkpt>
      <trkpt lat="46.36064" lon="4.78696">
        <ele>317.79998779297</ele>
        <time>2018-09-09T09:11:43.000Z</time>
      </trkpt>
      <trkpt lat="46.36046" lon="4.78705">
        <ele>318.79998779297</ele>
        <time>2018-09-09T09:11:51.000Z</time>
      </trkpt>
      <trkpt lat="46.3604" lon="4.78728">
        <ele>322.79998779297</ele>
        <time>2018-09-09T09:12:00.000Z</time>
      </trkpt>
      <trkpt lat="46.36028" lon="4.78748">
        <ele>326.39999389648</ele>
        <time>2018-09-09T09:12:08.000Z</time>
      </trkpt>
      <trkpt lat="46.36014" lon="4.78767">
        <ele>329.20001220703</ele>
        <time>2018-09-09T09:12:17.000Z</time>
      </trkpt>
      <trkpt lat="46.36" lon="4.78784">
        <ele>331.79998779297</ele>
        <time>2018-09-09T09:12:25.000Z</time>
      </trkpt>
      <trkpt lat="46.35986" lon="4.78802">
        <ele>332.79998779297</ele>
        <time>2018-09-09T09:12:33.000Z</time>
      </trkpt>
      <trkpt lat="46.35973" lon="4.78822">
        <ele>333.79998779297</ele>
        <time>2018-09-09T09:12:41.000Z</time>
      </trkpt>
      <trkpt lat="46.35958" lon="4.78844">
        <ele>334.79998779297</ele>
        <time>2018-09-09T09:12:49.000Z</time>
      </trkpt>
      <trkpt lat="46.35943" lon="4.78865">
        <ele>336.79998779297</ele>
        <time>2018-09-09T09:12:54.000Z</time>
      </trkpt>
      <trkpt lat="46.35929" lon="4.78886">
        <ele>337.79998779297</ele>
        <time>2018-09-09T09:12:59.000Z</time>
      </trkpt>
      <trkpt lat="46.35915" lon="4.78904">
        <ele>338.20001220703</ele>
        <time>2018-09-09T09:13:04.000Z</time>
      </trkpt>
      <trkpt lat="46.35899" lon="4.78914">
        <ele>338.39999389648</ele>
        <time>2018-09-09T09:13:10.000Z</time>
      </trkpt>
      <trkpt lat="46.35882" lon="4.78903">
        <ele>339</ele>
        <time>2018-09-09T09:13:17.000Z</time>
      </trkpt>
      <trkpt lat="46.35863" lon="4.7889">
        <ele>339.39999389648</ele>
        <time>2018-09-09T09:13:24.000Z</time>
      </trkpt>
      <trkpt lat="46.35844" lon="4.78882">
        <ele>340</ele>
        <time>2018-09-09T09:13:30.000Z</time>
      </trkpt>
      <trkpt lat="46.35825" lon="4.78877">
        <ele>340.60000610352</ele>
        <time>2018-09-09T09:13:36.000Z</time>
      </trkpt>
      <trkpt lat="46.35805" lon="4.78874">
        <ele>341.79998779297</ele>
        <time>2018-09-09T09:13:42.000Z</time>
      </trkpt>
      <trkpt lat="46.35787" lon="4.78868">
        <ele>343</ele>
        <time>2018-09-09T09:13:48.000Z</time>
      </trkpt>
      <trkpt lat="46.35768" lon="4.78863">
        <ele>344.39999389648</ele>
        <time>2018-09-09T09:13:55.000Z</time>
      </trkpt>
      <trkpt lat="46.3575" lon="4.78862">
        <ele>345.79998779297</ele>
        <time>2018-09-09T09:14:04.000Z</time>
      </trkpt>
      <trkpt lat="46.35732" lon="4.78853">
        <ele>347.20001220703</ele>
        <time>2018-09-09T09:14:17.000Z</time>
      </trkpt>
      <trkpt lat="46.35713" lon="4.78845">
        <ele>347.39999389648</ele>
        <time>2018-09-09T09:14:27.000Z</time>
      </trkpt>
      <trkpt lat="46.35693" lon="4.7884">
        <ele>347.39999389648</ele>
        <time>2018-09-09T09:14:35.000Z</time>
      </trkpt>
      <trkpt lat="46.35673" lon="4.78837">
        <ele>347.39999389648</ele>
        <time>2018-09-09T09:14:42.000Z</time>
      </trkpt>
      <trkpt lat="46.35665" lon="4.78835">
        <ele>347.39999389648</ele>
        <time>2018-09-09T09:14:47.000Z</time>
      </trkpt>
      <trkpt lat="46.35658" lon="4.78829">
        <ele>347.60000610352</ele>
        <time>2018-09-09T09:16:56.000Z</time>
      </trkpt>
      <trkpt lat="46.3564" lon="4.78818">
        <ele>347.39999389648</ele>
        <time>2018-09-09T09:17:04.000Z</time>
      </trkpt>
      <trkpt lat="46.35622" lon="4.78806">
        <ele>346.79998779297</ele>
        <time>2018-09-09T09:17:11.000Z</time>
      </trkpt>
      <trkpt lat="46.35604" lon="4.78797">
        <ele>346.39999389648</ele>
        <time>2018-09-09T09:17:17.000Z</time>
      </trkpt>
      <trkpt lat="46.35585" lon="4.78787">
        <ele>345.79998779297</ele>
        <time>2018-09-09T09:17:23.000Z</time>
      </trkpt>
      <trkpt lat="46.35566" lon="4.78777">
        <ele>345</ele>
        <time>2018-09-09T09:17:29.000Z</time>
      </trkpt>
      <trkpt lat="46.35548" lon="4.78767">
        <ele>345.39999389648</ele>
        <time>2018-09-09T09:17:35.000Z</time>
      </trkpt>
      <trkpt lat="46.35529" lon="4.78759">
        <ele>345.79998779297</ele>
        <time>2018-09-09T09:17:41.000Z</time>
      </trkpt>
      <trkpt lat="46.35517" lon="4.78759">
        <ele>346</ele>
        <time>2018-09-09T09:17:45.000Z</time>
      </trkpt>
      <trkpt lat="46.35511" lon="4.78782">
        <ele>345.79998779297</ele>
        <time>2018-09-09T09:17:50.000Z</time>
      </trkpt>
      <trkpt lat="46.35505" lon="4.78799">
        <ele>345.79998779297</ele>
        <time>2018-09-09T09:17:53.000Z</time>
      </trkpt>
      <trkpt lat="46.35493" lon="4.78825">
        <ele>345</ele>
        <time>2018-09-09T09:17:57.000Z</time>
      </trkpt>
      <trkpt lat="46.3548" lon="4.78844">
        <ele>344</ele>
        <time>2018-09-09T09:18:00.000Z</time>
      </trkpt>
      <trkpt lat="46.35463" lon="4.78863">
        <ele>343.79998779297</ele>
        <time>2018-09-09T09:18:03.000Z</time>
      </trkpt>
      <trkpt lat="46.35444" lon="4.78882">
        <ele>342.60000610352</ele>
        <time>2018-09-09T09:18:06.000Z</time>
      </trkpt>
      <trkpt lat="46.35424" lon="4.78901">
        <ele>341.20001220703</ele>
        <time>2018-09-09T09:18:09.000Z</time>
      </trkpt>
      <trkpt lat="46.35403" lon="4.78922">
        <ele>340.20001220703</ele>
        <time>2018-09-09T09:18:12.000Z</time>
      </trkpt>
      <trkpt lat="46.35397" lon="4.7893">
        <ele>339.79998779297</ele>
        <time>2018-09-09T09:18:13.000Z</time>
      </trkpt>
      <trkpt lat="46.35384" lon="4.78959">
        <ele>337.60000610352</ele>
        <time>2018-09-09T09:18:16.000Z</time>
      </trkpt>
      <trkpt lat="46.35382" lon="4.78968">
        <ele>336.79998779297</ele>
        <time>2018-09-09T09:18:17.000Z</time>
      </trkpt>
      <trkpt lat="46.35381" lon="4.78976">
        <ele>336</ele>
        <time>2018-09-09T09:18:18.000Z</time>
      </trkpt>
      <trkpt lat="46.35377" lon="4.78991">
        <ele>334.60000610352</ele>
        <time>2018-09-09T09:18:21.000Z</time>
      </trkpt>
      <trkpt lat="46.35365" lon="4.7899">
        <ele>334.60000610352</ele>
        <time>2018-09-09T09:18:25.000Z</time>
      </trkpt>
      <trkpt lat="46.35348" lon="4.78987">
        <ele>334.79998779297</ele>
        <time>2018-09-09T09:18:30.000Z</time>
      </trkpt>
      <trkpt lat="46.3533" lon="4.78984">
        <ele>335.60000610352</ele>
        <time>2018-09-09T09:18:35.000Z</time>
      </trkpt>
      <trkpt lat="46.35309" lon="4.78982">
        <ele>336</ele>
        <time>2018-09-09T09:18:41.000Z</time>
      </trkpt>
      <trkpt lat="46.35289" lon="4.7898">
        <ele>335.79998779297</ele>
        <time>2018-09-09T09:18:46.000Z</time>
      </trkpt>
      <trkpt lat="46.35268" lon="4.78978">
        <ele>335.79998779297</ele>
        <time>2018-09-09T09:18:51.000Z</time>
      </trkpt>
      <trkpt lat="46.35255" lon="4.78977">
        <ele>335.79998779297</ele>
        <time>2018-09-09T09:18:54.000Z</time>
      </trkpt>
      <trkpt lat="46.35235" lon="4.78977">
        <ele>335.20001220703</ele>
        <time>2018-09-09T09:18:59.000Z</time>
      </trkpt>
      <trkpt lat="46.3523" lon="4.78978">
        <ele>335</ele>
        <time>2018-09-09T09:19:00.000Z</time>
      </trkpt>
      <trkpt lat="46.35208" lon="4.78977">
        <ele>335.20001220703</ele>
        <time>2018-09-09T09:19:05.000Z</time>
      </trkpt>
      <trkpt lat="46.35187" lon="4.78976">
        <ele>335.20001220703</ele>
        <time>2018-09-09T09:19:10.000Z</time>
      </trkpt>
      <trkpt lat="46.35167" lon="4.78975">
        <ele>335.39999389648</ele>
        <time>2018-09-09T09:19:15.000Z</time>
      </trkpt>
      <trkpt lat="46.35147" lon="4.78978">
        <ele>334.79998779297</ele>
        <time>2018-09-09T09:19:20.000Z</time>
      </trkpt>
      <trkpt lat="46.35127" lon="4.78979">
        <ele>333.39999389648</ele>
        <time>2018-09-09T09:19:25.000Z</time>
      </trkpt>
      <trkpt lat="46.35117" lon="4.78977">
        <ele>333</ele>
        <time>2018-09-09T09:19:28.000Z</time>
      </trkpt>
      <trkpt lat="46.3511" lon="4.79005">
        <ele>330.20001220703</ele>
        <time>2018-09-09T09:19:33.000Z</time>
      </trkpt>
      <trkpt lat="46.35106" lon="4.79036">
        <ele>329.60000610352</ele>
        <time>2018-09-09T09:19:37.000Z</time>
      </trkpt>
      <trkpt lat="46.35105" lon="4.79045">
        <ele>329.20001220703</ele>
        <time>2018-09-09T09:19:38.000Z</time>
      </trkpt>
      <trkpt lat="46.351" lon="4.79073">
        <ele>328.20001220703</ele>
        <time>2018-09-09T09:19:41.000Z</time>
      </trkpt>
      <trkpt lat="46.35094" lon="4.791">
        <ele>327</ele>
        <time>2018-09-09T09:19:44.000Z</time>
      </trkpt>
      <trkpt lat="46.35089" lon="4.79125">
        <ele>325.79998779297</ele>
        <time>2018-09-09T09:19:47.000Z</time>
      </trkpt>
      <trkpt lat="46.35087" lon="4.79156">
        <ele>323.60000610352</ele>
        <time>2018-09-09T09:19:51.000Z</time>
      </trkpt>
      <trkpt lat="46.35086" lon="4.79182">
        <ele>321.60000610352</ele>
        <time>2018-09-09T09:19:56.000Z</time>
      </trkpt>
      <trkpt lat="46.35084" lon="4.79189">
        <ele>321.20001220703</ele>
        <time>2018-09-09T09:19:58.000Z</time>
      </trkpt>
      <trkpt lat="46.35066" lon="4.79195">
        <ele>320.60000610352</ele>
        <time>2018-09-09T09:20:03.000Z</time>
      </trkpt>
      <trkpt lat="46.35051" lon="4.79213">
        <ele>319.20001220703</ele>
        <time>2018-09-09T09:20:08.000Z</time>
      </trkpt>
      <trkpt lat="46.35045" lon="4.79238">
        <ele>317.79998779297</ele>
        <time>2018-09-09T09:20:12.000Z</time>
      </trkpt>
      <trkpt lat="46.3504" lon="4.79271">
        <ele>316</ele>
        <time>2018-09-09T09:20:16.000Z</time>
      </trkpt>
      <trkpt lat="46.35036" lon="4.79298">
        <ele>314.79998779297</ele>
        <time>2018-09-09T09:20:20.000Z</time>
      </trkpt>
      <trkpt lat="46.35029" lon="4.79324">
        <ele>313.79998779297</ele>
        <time>2018-09-09T09:20:27.000Z</time>
      </trkpt>
      <trkpt lat="46.35026" lon="4.79336">
        <ele>313.39999389648</ele>
        <time>2018-09-09T09:20:29.000Z</time>
      </trkpt>
      <trkpt lat="46.35017" lon="4.79366">
        <ele>312</ele>
        <time>2018-09-09T09:20:33.000Z</time>
      </trkpt>
      <trkpt lat="46.35009" lon="4.79393">
        <ele>310.60000610352</ele>
        <time>2018-09-09T09:20:36.000Z</time>
      </trkpt>
      <trkpt lat="46.35001" lon="4.79422">
        <ele>309.39999389648</ele>
        <time>2018-09-09T09:20:39.000Z</time>
      </trkpt>
      <trkpt lat="46.34992" lon="4.79451">
        <ele>308.60000610352</ele>
        <time>2018-09-09T09:20:42.000Z</time>
      </trkpt>
      <trkpt lat="46.34984" lon="4.79475">
        <ele>308.20001220703</ele>
        <time>2018-09-09T09:20:46.000Z</time>
      </trkpt>
      <trkpt lat="46.34976" lon="4.79482">
        <ele>306.4</ele>
      </trkpt>
      <trkpt lat="46.34977" lon="4.79486">
        <ele>307.79998779297</ele>
        <time>2018-09-09T09:20:51.000Z</time>
      </trkpt>
    </trkseg>
  </trk>
</gpx>